GFSCGP_850_thetae_000.txt.gz
Theta_e
315 314 315 315 316 317 317 316 316 317 316 315 315 315 315 316 316 315 316 316 316 316 316 315 315 312 310 308 306 304 304 303 302 301 300 298 299 298 298 297 297 297 298 298
315 315 315 315 315 315 315 314 315 315 316 314 314 315 314 313 314 315 315 315 315 315 315 315 315 312 309 307 305 304 304 304 303 302 300 298 298 297 296 296 296 296 297 298
315 316 315 315 315 316 315 314 314 315 315 312 312 313 313 313 314 314 315 315 314 314 314 314 313 311 308 307 306 306 305 305 304 302 300 297 296 296 296 296 296 296 296 297
314 315 315 314 314 314 314 315 315 315 315 315 314 316 313 314 312 311 313 314 314 313 313 314 313 310 307 306 306 305 305 305 304 302 301 300 300 299 299 298 296 295 296 296
314 313 313 314 314 314 315 312 313 314 314 314 315 313 313 313 312 311 311 315 315 314 314 313 312 310 308 306 306 306 305 305 304 303 302 301 299 297 296 296 295 295 295 296
311 310 311 313 310 311 310 312 312 312 311 313 312 313 313 313 313 312 311 315 315 314 314 312 310 309 308 307 306 306 305 304 303 302 301 302 300 298 296 295 294 294 294 295
312 311 310 310 312 309 310 313 313 315 314 316 312 312 315 315 312 311 311 314 314 314 313 311 309 309 308 308 307 307 306 305 303 303 302 301 301 299 297 296 295 294 294 294
313 313 311 308 311 314 310 313 315 314 313 314 309 313 314 313 313 315 315 315 314 314 313 311 310 310 310 310 308 308 307 306 304 304 304 301 300 299 297 295 294 293 293 293
312 313 308 308 311 312 312 312 314 314 307 313 314 313 313 313 312 311 310 312 312 312 312 311 310 310 310 309 310 310 309 307 305 305 304 303 299 298 297 295 294 293 292 292
312 313 311 306 306 307 309 309 312 313 311 310 312 312 315 315 314 311 310 309 312 312 311 310 310 310 310 309 310 309 307 308 307 306 306 304 301 297 296 294 294 293 292 292
312 312 311 306 306 309 306 308 309 310 314 312 313 314 313 313 313 311 310 312 313 313 312 312 311 310 309 309 309 309 308 307 306 305 304 303 301 298 295 294 293 292 291 291
311 313 313 311 310 307 309 309 310 311 311 309 312 314 312 311 309 308 309 312 313 313 312 312 311 311 310 310 309 310 309 307 306 304 303 301 300 298 295 293 292 291 290 291
310 311 314 311 311 307 307 308 309 310 310 312 313 312 312 312 311 310 309 311 312 312 312 311 311 311 310 310 310 310 309 308 305 302 301 299 298 297 294 292 291 290 290 290
312 312 313 314 313 311 310 308 307 309 311 311 311 311 311 311 311 311 312 312 312 312 312 312 311 310 310 310 309 309 308 307 305 301 299 297 297 294 292 290 289 289 289 290
312 312 310 311 312 311 311 311 310 310 309 309 310 310 310 311 311 310 311 310 310 310 311 310 310 310 310 309 309 308 307 305 303 300 298 296 294 293 290 289 288 289 289 289
311 314 310 311 310 310 310 310 310 310 310 311 310 310 309 309 310 310 310 310 310 310 311 311 310 310 310 309 309 308 307 306 303 300 297 295 293 291 289 288 288 288 289 288
309 310 312 314 311 311 312 311 312 312 312 311 311 311 311 311 310 310 311 311 311 311 312 311 311 311 310 310 309 308 307 305 301 299 297 295 293 291 289 288 287 288 288 287
313 311 312 314 313 314 311 311 310 311 312 312 311 312 312 312 312 312 312 312 311 311 311 311 310 310 310 309 308 307 306 303 300 298 296 294 292 290 289 287 287 287 287 287
312 313 314 314 315 313 312 312 311 311 312 311 311 311 311 311 311 311 312 312 311 311 311 310 310 309 308 308 308 307 306 303 299 298 296 294 292 290 288 287 287 287 287 286
311 312 314 315 316 316 313 311 310 310 312 310 311 311 311 310 311 311 311 311 311 310 310 310 309 309 308 308 307 306 305 303 302 301 299 294 291 290 287 287 287 287 287 288
310 311 313 314 315 314 312 310 309 311 312 310 311 310 310 309 310 310 310 310 310 310 310 310 309 309 309 308 307 305 305 306 304 299 295 293 290 288 286 286 287 286 288 288
310 310 311 311 312 312 307 308 311 308 307 305 304 305 306 307 309 309 309 309 308 307 308 308 307 307 307 307 305 305 306 304 301 297 295 291 289 286 285 286 287 286 287 287
302 299 298 300 304 303 303 299 297 302 300 300 301 301 301 302 303 304 304 305 305 307 308 308 307 306 305 304 304 304 305 302 299 296 293 290 287 285 285 286 285 285 287 288
293 295 297 296 301 297 294 296 298 296 295 294 295 295 296 298 300 301 301 302 303 305 305 305 305 306 307 305 303 302 300 298 296 293 290 287 285 284 284 284 284 287 288 285
291 291 291 291 292 294 295 295 294 293 293 293 293 295 296 297 298 299 300 301 301 300 300 300 301 301 302 305 305 302 299 297 292 289 288 286 283 283 283 284 286 287 285 282
290 291 291 291 292 292 292 291 291 291 288 288 290 290 290 291 293 294 296 296 296 297 297 298 299 300 299 300 301 301 299 296 291 289 286 284 282 282 284 285 285 282 280 279

GFSCGP_850_thetae_003.txt.gz
Theta_e
314 311 312 313 312 312 312 312 311 313 313 314 315 314 314 313 313 312 315 317 317 316 317 316 316 316 315 313 312 310 309 307 307 305 303 301 301 301 300 300 299 298 298 298
313 313 312 312 312 312 312 312 312 312 311 311 312 313 313 310 312 314 314 315 316 314 315 315 315 315 314 314 311 309 308 307 307 305 305 304 303 301 300 299 298 298 297 297
313 313 313 313 313 313 313 312 313 312 312 311 310 311 311 311 311 314 315 315 315 314 315 314 314 314 314 312 311 310 308 307 307 306 304 302 299 298 298 298 297 297 297 296
312 313 312 312 312 312 314 311 312 312 313 313 311 314 311 311 310 310 312 316 314 314 314 314 314 314 314 312 311 309 308 307 306 305 304 304 303 303 303 302 300 298 296 296
312 312 311 312 313 311 313 312 312 312 312 311 313 312 314 310 310 311 311 314 316 315 314 314 313 314 313 311 310 309 308 307 306 305 304 304 302 301 301 300 299 297 296 295
308 309 311 311 310 310 310 311 311 310 308 312 310 311 311 309 311 311 311 314 317 316 313 313 313 313 312 310 308 307 307 307 307 306 305 304 303 302 300 299 298 298 297 295
309 308 308 310 311 308 310 310 310 310 310 314 309 309 313 312 310 310 311 315 317 317 313 314 313 313 311 309 308 307 307 307 307 307 307 306 304 301 300 300 298 298 297 296
310 311 308 307 310 310 308 311 311 310 312 313 306 312 313 311 311 313 315 317 316 313 314 313 313 312 311 309 308 307 307 307 308 309 308 307 305 302 300 299 298 298 297 297
309 311 309 307 308 310 309 311 311 311 298 308 313 311 311 311 310 309 309 309 312 314 314 313 312 311 310 310 310 311 310 310 309 310 308 307 305 303 301 300 299 296 296 295
311 311 310 307 308 308 309 308 311 310 311 311 313 310 313 312 313 312 308 306 311 313 312 312 311 311 311 311 311 310 309 309 309 308 308 308 307 305 302 300 298 296 293 293
308 311 311 306 307 309 307 309 309 310 311 314 313 314 312 312 312 311 308 308 310 311 312 312 312 311 311 310 310 309 309 308 308 307 307 307 307 305 303 300 298 295 293 292
310 311 312 309 306 306 308 309 309 312 311 309 312 314 312 308 309 306 309 311 312 312 312 312 312 311 311 311 310 311 310 308 309 308 306 305 304 303 301 299 297 295 293 292
312 311 314 312 309 305 307 306 308 309 308 312 313 313 312 311 310 307 307 310 311 311 312 312 312 311 311 311 311 310 310 309 309 308 306 303 303 302 301 299 296 293 292 291
313 312 313 316 314 311 311 308 307 310 311 312 312 311 311 311 311 311 311 311 311 311 311 312 312 312 311 311 311 310 310 309 309 308 306 304 302 302 301 299 295 292 291 290
312 314 312 312 313 312 312 312 312 311 311 312 312 312 310 310 310 310 311 310 310 310 310 310 310 310 310 310 310 310 309 309 308 306 305 304 302 301 298 297 294 292 290 290
312 314 315 315 313 312 313 313 313 313 312 312 311 311 311 312 312 311 311 311 311 310 309 309 310 311 311 311 311 310 310 309 308 307 305 303 301 300 298 296 293 292 290 289
312 312 314 316 314 314 315 314 314 313 312 311 312 311 311 310 311 311 312 311 311 311 310 310 310 311 311 311 311 310 309 309 307 306 304 302 301 298 297 294 292 291 290 289
310 309 311 315 314 315 312 310 311 312 311 311 311 312 312 311 312 312 312 312 312 312 311 311 311 311 312 311 310 309 309 308 307 306 305 302 300 298 296 293 292 290 289 288
310 312 313 314 315 313 312 309 310 310 311 310 310 311 311 311 311 311 311 309 309 309 309 310 311 312 312 310 309 308 308 307 307 307 305 303 301 298 296 293 291 290 289 287
308 310 311 312 313 312 310 309 309 309 312 300 301 302 302 304 309 308 306 303 303 305 305 305 306 308 309 309 308 308 308 307 307 307 306 303 300 298 296 294 291 289 288 286
304 308 310 312 312 310 304 303 306 312 302 298 297 298 297 301 301 301 300 300 300 300 301 303 305 305 304 304 306 306 306 306 307 306 305 301 299 297 294 292 290 288 287 285
299 300 300 303 306 307 300 301 296 295 297 295 294 294 295 295 295 296 298 298 299 298 298 300 301 304 304 304 303 303 304 304 303 302 302 300 298 295 291 289 288 286 285 285
294 295 294 295 296 293 295 293 292 296 294 293 293 292 293 294 295 296 296 296 297 298 297 296 300 299 300 300 301 303 303 301 300 300 299 298 296 293 290 289 286 285 283 284
289 290 291 291 291 291 290 291 292 291 290 289 288 288 290 291 291 290 291 292 293 293 294 295 295 296 297 297 297 299 300 302 300 298 296 295 293 291 288 286 285 284 283 283
289 290 288 289 289 290 291 291 289 288 288 286 286 285 284 283 284 284 286 287 289 291 292 293 294 294 295 296 297 298 299 299 300 299 300 298 291 289 287 286 285 283 283 283
290 290 289 289 290 288 289 287 286 285 282 282 281 281 282 280 280 281 282 281 282 283 285 288 290 292 293 295 297 298 298 299 298 298 296 293 294 292 288 285 282 281 282 282

GFSCGP_850_thetae_006.txt.gz
Theta_e
312 310 311 312 310 312 309 309 310 310 311 313 312 312 313 314 313 311 313 314 315 317 318 317 317 316 315 315 315 314 313 312 310 308 306 304 305 304 303 302 301 300 299 299
311 311 311 311 309 311 311 311 311 311 310 309 311 311 312 311 313 313 313 314 315 316 318 317 316 315 315 315 315 314 313 312 311 309 308 306 307 305 304 302 301 299 299 298
312 312 311 311 310 311 311 311 312 312 310 308 308 311 309 309 311 312 313 314 315 316 316 316 316 315 315 315 315 314 313 312 310 309 307 305 304 303 302 301 300 299 298 297
310 311 311 311 311 311 313 310 311 310 310 312 309 313 310 309 310 309 311 314 314 316 315 316 315 315 315 314 314 313 312 311 309 308 307 307 307 306 306 304 303 300 298 298
309 311 311 310 312 310 313 310 310 310 310 309 310 311 312 309 309 310 311 314 316 316 316 316 315 315 314 314 313 312 311 310 309 308 307 306 305 306 306 305 302 299 298 297
308 309 309 309 309 308 309 311 309 306 307 312 310 310 312 308 310 310 310 313 315 317 318 316 314 314 314 313 313 312 311 310 309 308 306 306 306 306 305 304 302 300 298 297
307 307 307 309 310 308 310 310 310 309 308 313 308 308 313 310 311 308 310 313 316 317 317 315 314 314 314 313 313 311 310 309 308 307 307 308 307 306 306 305 303 301 299 298
308 311 307 306 308 308 308 309 313 310 312 314 304 310 312 309 310 312 311 312 313 314 314 314 315 315 313 313 312 311 310 309 308 308 309 308 308 307 306 305 303 301 300 298
308 310 308 307 308 309 308 309 309 311 296 305 312 310 311 310 309 308 309 310 311 313 312 313 314 314 314 313 312 311 310 310 309 308 307 308 307 307 306 306 303 300 298 298
309 311 309 307 307 307 308 308 311 309 313 311 311 311 313 311 311 307 307 308 311 310 311 311 312 312 312 312 311 310 310 310 310 307 307 307 308 307 305 305 303 301 299 297
309 310 311 306 306 309 307 309 308 309 312 315 315 314 308 308 308 308 307 312 311 309 312 312 312 312 311 311 310 310 310 310 309 309 309 308 308 307 305 305 304 302 299 297
311 312 315 315 308 305 305 309 311 312 313 309 312 313 313 312 311 311 309 313 312 311 312 312 312 312 312 312 311 311 311 310 310 311 310 309 307 307 305 305 304 302 299 297
315 315 317 315 313 309 305 307 308 309 309 313 316 315 312 312 310 311 310 311 311 312 310 311 310 310 311 312 312 311 310 309 310 310 309 308 307 306 305 304 303 301 298 296
314 315 315 315 313 312 311 308 306 308 310 311 311 311 311 311 311 312 311 311 310 310 311 311 311 311 311 312 311 311 311 310 310 309 308 308 307 307 305 304 302 301 299 297
313 315 314 314 315 314 315 314 313 312 312 313 312 311 311 311 312 311 312 312 311 310 311 311 311 310 311 311 311 310 311 310 310 310 309 309 308 306 303 302 301 299 297 296
307 313 314 314 313 312 313 313 313 313 312 313 313 313 312 312 312 311 311 312 311 310 309 308 309 310 310 309 310 310 310 310 310 310 309 308 307 306 304 302 300 298 295 294
306 308 311 313 310 309 311 313 313 312 312 313 313 312 309 308 308 310 310 304 302 302 301 301 301 304 305 308 311 309 310 310 310 309 309 307 307 305 303 302 299 297 296 294
305 306 308 309 309 310 310 310 311 312 313 312 308 302 299 298 298 302 301 300 299 298 298 298 299 300 303 303 307 309 309 310 310 309 307 306 304 302 302 299 298 296 295 294
300 304 306 308 307 308 310 306 305 306 307 297 298 296 295 294 295 302 295 294 295 296 297 296 296 298 300 303 303 305 307 308 308 308 307 306 305 303 302 299 297 296 295 293
296 299 300 301 301 305 299 297 295 299 307 293 295 295 295 294 293 293 293 294 295 297 297 295 294 295 296 298 300 301 302 305 306 307 306 305 303 301 300 298 296 295 293 292
286 287 293 296 297 300 294 296 295 301 295 294 293 292 292 292 292 292 291 293 294 292 292 293 292 293 295 296 297 298 299 301 302 302 302 302 301 300 298 295 294 293 291 290
290 292 291 292 291 295 292 291 291 291 293 294 292 291 291 290 289 291 292 291 289 289 290 291 290 291 293 294 297 295 297 298 300 300 299 298 297 297 295 294 293 292 289 288
287 289 288 291 291 291 291 291 290 292 290 290 289 288 286 287 288 287 285 284 284 285 285 286 288 289 291 292 292 295 295 296 297 299 299 297 295 293 293 292 290 289 289 287
288 289 288 287 289 289 289 289 289 289 288 288 286 286 285 284 284 284 283 282 283 283 283 282 283 284 287 290 289 291 292 295 297 298 298 299 296 295 294 292 290 288 287 286
287 288 288 288 290 289 289 289 289 288 287 286 286 285 283 281 281 280 280 280 280 280 281 280 280 282 285 285 287 289 290 293 295 296 298 297 296 299 298 297 296 294 292 289
289 289 289 289 289 289 289 289 288 286 284 283 281 281 282 280 279 279 279 279 278 278 277 278 279 280 281 280 283 286 286 289 292 293 293 295 297 293 294 294 294 289 285 286

GFSCGP_850_thetae_009.txt.gz
Theta_e
311 309 309 311 309 311 309 308 308 308 309 310 310 311 311 312 313 313 312 313 313 314 315 315 315 315 315 315 315 315 315 315 313 312 310 308 308 306 305 305 304 303 302 300
310 310 310 309 309 309 309 310 310 311 310 308 309 310 309 309 310 312 313 313 312 313 315 316 315 315 315 315 315 315 314 314 313 312 311 309 308 307 306 305 303 302 301 300
311 310 310 309 309 310 309 309 311 311 309 307 307 311 310 308 309 311 312 312 313 314 315 316 315 315 314 315 314 315 315 314 313 312 310 309 307 305 304 303 303 303 301 299
309 309 310 309 309 309 311 308 309 309 309 311 309 312 311 310 310 309 310 312 313 315 316 316 316 314 314 315 314 314 314 313 311 311 310 310 310 309 308 307 305 303 301 299
307 310 309 309 310 308 311 310 308 308 308 308 309 308 311 309 309 308 308 312 315 316 316 316 316 314 315 315 315 314 313 312 311 310 310 310 309 308 308 307 306 303 301 300
307 307 308 308 308 307 308 310 308 305 306 310 309 309 311 308 309 310 309 314 315 314 314 314 314 315 315 315 314 314 313 312 311 310 309 309 309 309 308 307 305 304 302 301
306 306 306 308 309 308 309 308 309 308 307 311 307 308 313 311 311 307 310 311 313 313 313 314 313 313 313 315 314 313 312 312 311 310 310 309 308 308 307 307 307 305 303 302
307 314 306 305 307 308 307 308 309 309 311 314 304 309 314 309 309 309 311 311 312 314 313 312 313 312 312 313 312 313 312 311 311 311 310 309 308 307 306 306 305 306 305 304
307 309 306 305 306 308 307 307 308 310 300 306 311 309 310 308 310 309 307 309 311 313 314 312 311 312 311 311 312 312 311 311 310 310 310 309 307 307 306 306 304 304 304 304
309 310 308 306 306 306 307 307 309 307 311 312 310 311 312 311 312 310 307 309 313 314 313 311 311 311 311 312 312 311 311 310 310 309 309 309 308 307 307 306 305 305 304 304
310 312 312 310 308 312 306 307 307 308 311 314 315 314 313 311 308 307 307 310 312 312 313 314 311 311 311 311 311 310 311 311 310 310 310 309 308 308 307 308 306 305 304 304
313 313 315 314 308 307 306 309 308 310 312 311 313 314 313 313 311 308 310 312 312 311 312 313 312 312 310 310 311 310 311 311 311 311 310 309 308 307 306 308 308 305 304 304
312 314 317 315 310 308 311 312 311 312 311 311 312 313 312 312 312 312 310 310 311 312 312 312 311 310 308 308 308 310 310 309 310 310 310 308 307 306 306 307 307 306 305 304
312 314 316 317 314 312 313 310 310 311 314 313 312 311 311 311 311 311 311 310 308 304 304 305 305 304 305 305 306 308 307 306 307 308 309 308 308 309 308 306 305 305 305 303
311 313 312 312 312 313 313 313 312 314 312 311 311 313 312 311 310 307 306 303 300 299 298 297 298 299 301 304 306 307 307 307 305 305 306 308 308 308 306 304 305 304 303 302
305 306 307 309 307 307 309 311 310 309 308 308 309 310 306 297 296 298 296 295 294 295 295 296 296 296 295 296 298 299 302 303 304 305 305 304 306 306 307 306 304 305 302 299
302 304 304 304 303 303 304 304 304 305 308 305 306 298 296 295 294 295 293 292 293 293 295 296 296 294 294 295 295 295 297 298 300 303 305 305 302 304 303 304 303 303 300 298
301 300 299 301 299 298 299 301 304 303 296 297 296 295 294 292 292 293 295 291 292 292 295 296 294 292 292 293 295 296 295 298 298 299 301 301 300 302 302 302 302 301 300 299
299 300 297 292 291 297 298 297 295 296 296 295 294 293 292 291 291 292 290 290 291 292 293 291 289 291 291 291 291 294 296 296 298 298 297 295 296 297 298 299 299 299 298 297
294 297 298 286 294 295 297 292 294 294 298 293 293 293 291 290 290 289 289 290 290 290 288 286 286 286 287 288 289 290 292 295 295 296 298 297 294 295 294 295 296 296 295 295
282 281 285 281 285 288 289 290 290 288 290 289 293 292 291 291 290 290 288 288 287 286 286 286 286 286 286 285 286 287 290 291 292 294 296 299 298 292 293 292 292 293 293 292
287 281 280 278 281 288 290 289 289 288 290 290 293 290 289 289 288 287 287 286 285 285 284 283 283 283 284 284 285 285 286 288 290 291 292 296 298 298 293 290 290 289 288 289
285 286 283 286 287 290 290 289 289 289 290 291 290 289 287 286 286 286 285 285 284 283 283 283 282 283 283 283 284 284 286 286 287 290 291 293 296 297 298 296 290 287 286 286
287 289 289 286 290 289 289 289 289 289 289 289 288 287 285 284 284 283 282 283 283 283 283 282 282 282 283 283 283 284 284 283 284 285 288 290 293 295 297 298 297 292 288 286
288 288 287 287 289 289 289 289 289 289 289 288 287 286 284 282 282 281 280 280 280 279 279 279 280 281 282 282 283 282 281 281 282 283 283 286 290 293 293 294 295 295 295 295
289 289 289 288 289 289 289 289 289 288 287 286 285 284 283 280 279 279 279 279 278 277 277 276 275 275 277 278 281 282 280 278 278 279 281 281 284 288 291 291 291 290 290 288

GFSCGP_850_thetae_012.txt.gz
Theta_e
311 308 309 310 308 310 308 307 306 306 307 308 310 310 309 309 310 310 311 311 312 312 315 314 315 315 314 314 314 314 314 314 314 314 313 311 311 310 309 308 306 304 304 303
308 308 309 309 308 308 308 309 309 309 308 307 308 309 309 309 310 311 311 311 311 312 313 314 314 314 314 314 314 314 314 314 314 314 313 312 312 311 309 308 306 305 303 303
310 310 309 308 309 309 307 308 309 309 308 306 305 309 307 307 308 310 310 311 311 313 314 314 313 313 313 314 314 313 314 314 314 313 311 311 309 308 308 307 305 305 304 303
308 308 309 308 308 308 310 307 308 308 308 309 307 311 308 308 308 307 309 310 313 314 312 313 314 315 315 313 314 314 313 312 313 313 312 311 312 311 311 310 308 307 305 304
308 309 309 308 309 307 309 309 308 308 307 307 308 307 311 307 308 307 307 312 312 313 314 314 314 315 315 314 314 314 313 312 311 311 311 312 311 310 310 309 308 306 305 303
306 307 307 308 307 306 307 309 307 304 305 309 308 308 310 308 309 310 309 310 314 313 314 313 313 314 313 313 313 314 313 313 311 310 310 310 309 310 310 309 308 307 305 303
306 306 306 307 308 307 308 307 308 308 307 311 306 307 311 310 309 309 308 311 313 313 313 313 312 312 313 312 311 312 312 312 311 310 309 309 309 309 309 310 309 308 306 304
308 317 307 305 307 308 306 307 309 311 310 316 302 310 314 308 309 311 310 311 312 310 312 313 314 312 311 310 309 310 310 310 311 310 310 309 308 308 308 308 308 308 307 306
307 310 305 304 305 306 306 307 307 310 305 307 312 309 310 308 306 307 308 309 311 311 313 313 313 313 311 312 311 310 310 310 310 310 309 309 309 309 308 308 307 306 306 305
310 314 310 308 305 305 306 306 309 307 312 312 310 310 312 312 311 309 308 308 310 313 313 313 311 309 308 307 307 308 308 309 309 309 310 310 309 309 309 308 307 307 306 305
311 311 312 311 308 310 310 308 306 307 311 316 316 314 312 311 310 307 305 310 312 312 308 307 306 306 306 305 305 305 305 305 305 303 304 305 307 307 307 306 306 306 305 305
312 314 315 314 309 307 306 312 310 312 312 308 312 313 311 311 310 311 307 304 302 302 301 302 302 301 302 303 305 305 305 305 306 306 305 304 304 305 304 305 305 305 305 305
313 315 316 315 310 308 312 312 312 313 313 315 315 314 310 310 310 299 301 298 297 297 299 300 300 300 299 297 297 299 299 299 301 303 305 305 305 303 303 304 304 303 304 304
309 310 313 315 312 311 313 312 311 312 314 314 314 313 312 310 307 299 297 294 294 293 294 295 296 295 295 295 296 296 297 296 297 298 300 302 305 307 304 301 301 301 302 302
308 312 311 312 312 308 307 306 306 307 309 310 309 308 305 298 296 296 293 293 292 292 293 294 296 293 292 294 293 293 294 297 297 297 298 299 302 304 305 303 302 301 300 302
303 305 304 303 302 302 304 305 305 304 304 304 306 305 295 294 293 293 293 292 291 291 292 293 293 290 290 290 292 292 292 293 295 297 296 297 298 300 301 302 301 301 299 299
301 303 302 302 300 299 300 300 302 302 302 300 301 295 292 292 292 292 292 293 290 290 291 293 292 288 289 288 288 288 290 290 291 293 294 295 297 298 298 299 298 300 298 298
300 300 299 301 298 299 298 298 296 298 297 296 294 292 291 292 292 290 291 289 289 290 290 290 287 287 287 288 288 287 288 288 288 289 291 292 294 297 299 297 297 295 295 295
298 298 293 293 288 294 296 293 293 295 294 293 293 293 293 292 290 290 289 289 289 288 288 287 286 285 285 285 285 286 287 287 288 287 288 289 290 292 297 298 296 294 293 291
292 297 297 287 294 287 294 290 291 293 292 288 290 290 290 290 288 288 289 289 289 288 287 285 285 284 284 284 284 284 285 285 285 285 286 287 288 290 293 297 298 294 292 290
281 278 291 288 286 285 288 289 289 286 287 287 290 290 291 289 289 289 289 288 288 287 287 286 285 284 284 284 284 285 285 285 284 284 284 285 287 288 291 293 296 296 293 290
288 282 278 276 281 284 289 289 287 288 289 289 289 289 291 291 289 288 288 288 287 286 286 285 284 284 284 284 282 283 284 283 284 284 283 284 285 285 287 290 292 296 294 291
285 286 283 284 284 289 290 289 290 289 289 289 288 289 290 290 288 287 287 286 286 284 284 283 282 283 284 283 282 281 282 281 282 283 284 283 283 283 285 286 290 291 295 291
288 288 289 289 289 289 289 290 289 289 289 289 289 288 289 288 287 285 284 284 283 283 281 281 281 281 282 283 282 281 280 278 278 280 282 283 282 283 282 284 285 289 289 292
289 287 286 288 289 289 289 289 289 289 289 289 288 288 287 285 284 283 282 282 281 280 280 278 278 278 279 279 279 279 279 277 276 276 278 279 279 280 280 281 283 285 288 288
289 289 288 288 289 289 289 289 289 289 288 288 287 286 284 282 280 279 279 279 278 277 277 276 275 274 275 274 275 274 273 273 273 275 277 276 275 277 278 278 280 283 284 286

GFSCGP_850_thetae_015.txt.gz
Theta_e
310 308 309 309 307 308 308 306 306 305 306 307 310 309 309 309 309 309 310 310 310 311 314 312 313 313 314 314 314 314 313 313 313 313 313 312 313 313 313 312 312 311 309 306
307 308 308 308 307 307 307 308 308 308 307 305 307 309 309 309 310 310 310 310 311 312 313 313 312 313 313 314 314 314 313 313 313 313 313 312 313 313 312 312 311 311 309 306
309 309 308 307 308 308 306 307 309 308 306 306 305 308 307 309 308 310 311 311 312 311 312 312 313 313 314 314 313 313 312 313 313 312 312 311 311 310 311 311 311 310 309 307
307 307 308 307 308 307 309 307 307 307 308 309 307 310 308 309 309 307 309 311 312 312 311 312 313 312 314 314 314 313 313 312 312 311 311 311 312 312 313 312 311 310 308 307
308 308 308 308 308 306 309 308 308 307 307 306 307 307 308 307 308 308 308 312 311 312 310 313 314 312 311 311 311 311 311 310 309 310 311 310 309 310 310 310 311 310 308 306
305 306 306 307 306 306 307 308 305 303 305 309 308 308 310 308 309 309 310 312 309 311 312 313 313 311 310 311 309 309 309 309 307 306 307 307 307 308 308 308 309 309 308 307
306 305 305 306 308 306 308 307 309 310 308 313 305 306 310 308 308 309 309 310 309 310 311 309 310 310 310 311 310 309 307 306 305 306 305 305 305 305 306 307 307 308 308 307
310 318 306 304 307 309 307 308 314 317 313 317 303 313 314 307 309 309 309 308 308 306 305 304 306 307 307 308 309 310 308 305 304 304 304 303 303 303 302 303 305 306 306 307
308 310 306 303 304 307 306 308 308 310 308 309 313 311 313 308 307 306 307 303 301 300 300 301 302 303 304 305 306 305 306 305 303 302 302 303 303 303 302 302 302 303 304 305
309 315 310 307 305 305 306 306 309 308 313 315 313 311 313 310 307 304 301 300 301 303 302 300 299 299 299 300 302 303 303 303 303 303 303 303 301 301 301 302 304 304 304 303
310 311 312 311 307 308 306 306 306 308 313 316 316 315 309 308 303 302 301 299 298 299 299 301 301 300 298 298 299 299 300 300 301 302 303 304 303 302 301 302 302 302 303 303
311 314 315 314 310 306 309 310 309 315 316 312 315 315 311 304 302 300 296 295 294 294 294 296 296 295 296 296 296 296 297 298 299 299 300 301 302 303 303 301 300 299 300 301
312 314 315 313 310 308 312 310 311 312 311 314 314 314 311 307 299 297 294 293 293 292 293 294 294 293 293 293 292 293 295 295 295 296 298 299 300 301 302 303 302 300 298 298
309 311 314 314 313 312 312 310 310 311 314 313 313 311 308 302 297 295 294 293 292 293 291 291 292 292 292 291 290 290 289 290 292 294 292 294 296 297 299 301 301 301 301 298
308 310 309 310 310 304 305 305 304 304 305 306 306 305 305 298 294 294 294 293 292 291 290 289 291 290 289 290 290 290 289 288 288 289 292 291 292 294 295 297 299 300 299 298
303 306 302 302 303 303 303 301 301 301 302 303 303 304 294 293 292 292 291 293 291 289 289 289 290 288 288 287 287 288 288 288 288 288 288 288 290 290 293 293 295 299 300 298
301 301 303 303 300 298 298 298 299 299 299 299 300 295 291 290 292 292 291 291 289 289 288 288 288 287 286 286 286 285 286 286 286 286 286 286 287 288 289 290 292 294 298 299
300 299 300 300 291 299 298 294 297 297 296 292 292 291 291 292 292 291 290 289 289 289 288 288 288 287 287 286 286 285 285 285 286 286 286 286 286 286 286 288 288 291 295 297
297 297 292 296 296 295 296 294 293 294 293 290 289 290 291 291 292 290 290 289 289 288 288 288 287 287 286 286 285 285 285 285 285 285 285 285 285 285 285 285 286 286 290 294
293 296 297 288 292 286 292 289 290 291 289 288 289 285 288 290 289 289 289 289 289 288 288 288 287 287 286 286 284 284 285 284 285 285 285 284 284 284 284 284 284 284 285 289
279 281 294 294 294 289 287 289 290 286 287 288 288 289 288 289 289 289 289 290 288 288 288 287 286 286 286 285 284 283 283 283 283 283 284 284 284 284 284 284 284 284 284 285
288 282 276 273 281 288 289 288 288 288 289 289 288 289 288 288 288 289 289 291 289 288 287 287 286 286 286 285 283 282 282 281 281 281 282 283 283 284 284 283 284 283 283 284
287 287 284 285 285 288 289 289 289 290 289 289 288 289 288 288 288 288 289 289 287 286 285 284 283 283 284 283 281 280 281 279 278 278 280 282 282 282 282 282 283 282 282 282
287 287 287 289 289 288 289 290 290 290 289 289 289 289 288 288 288 288 287 286 285 284 282 281 279 279 280 281 278 277 276 275 274 274 275 277 278 280 281 281 280 280 280 280
289 287 287 288 289 289 289 289 289 289 289 289 289 288 288 287 286 284 284 283 282 280 279 277 276 275 275 275 274 273 272 271 271 271 271 271 271 273 276 277 278 277 278 278
290 289 289 289 289 289 289 289 289 289 288 288 288 287 285 283 282 280 280 279 278 277 276 274 273 271 271 271 270 269 268 268 267 266 266 266 266 267 268 270 274 276 274 277

GFSCGP_850_thetae_018.txt.gz
Theta_e
312 314 315 316 315 315 314 314 314 314 314 313 313 314 314 313 312 312 313 313 313 313 312 311 311 311 311 312 312 311 311 312 311 312 311 311 312 313 314 314 314 315 314 313
312 314 315 314 312 312 313 314 314 314 313 310 313 313 313 313 313 313 313 313 313 312 312 311 311 311 311 312 312 312 311 310 311 311 311 310 310 311 312 313 314 315 315 314
315 315 312 311 313 313 314 313 314 315 313 312 311 315 314 315 314 313 311 312 310 310 310 309 307 307 310 311 311 311 312 309 308 308 308 308 308 309 310 310 311 313 314 314
313 311 310 311 312 313 314 314 312 312 312 315 311 317 317 316 316 315 313 312 311 310 309 307 308 309 310 310 310 310 309 309 309 308 306 305 306 307 308 309 309 309 311 313
314 311 310 312 313 311 314 310 310 310 312 311 314 313 319 313 314 314 313 311 309 308 306 304 303 303 305 308 311 310 308 308 306 306 305 304 304 304 304 305 307 307 308 309
311 306 309 311 309 309 308 310 310 310 311 316 317 315 318 316 314 313 311 307 306 305 303 302 304 306 307 308 307 307 307 307 306 305 304 304 303 302 302 303 304 305 305 306
311 310 308 307 310 308 309 311 319 322 322 323 311 314 314 315 311 310 308 305 304 303 303 302 303 304 306 305 305 305 304 304 304 304 303 304 303 302 302 302 302 302 302 303
317 319 310 308 312 317 311 313 321 324 324 324 316 317 318 316 309 307 305 304 303 302 301 301 301 302 301 301 302 302 303 302 303 303 303 302 302 302 301 301 301 301 301 302
318 318 308 306 307 310 312 312 313 317 317 318 316 316 316 313 309 307 306 304 301 300 299 299 300 300 300 299 300 300 301 301 301 301 302 303 303 302 301 301 301 301 301 300
312 316 314 311 306 307 309 312 316 312 316 319 316 316 317 312 310 307 305 302 299 298 298 298 297 295 296 297 298 298 298 299 299 300 301 301 301 301 302 302 301 300 300 300
313 315 316 313 312 314 311 309 309 310 313 319 319 317 313 311 308 306 302 298 297 296 296 297 296 296 296 296 297 297 297 297 298 299 299 300 301 300 300 301 302 302 300 299
313 314 315 314 313 310 310 313 313 315 316 314 315 316 309 306 304 300 297 296 295 294 294 294 295 294 293 292 292 293 294 294 293 293 296 296 296 299 299 299 299 300 302 302
312 313 317 316 313 310 313 313 312 313 314 316 317 317 306 301 300 297 296 295 294 293 292 291 293 293 290 289 289 289 289 290 290 291 291 291 293 294 295 296 296 297 299 300
309 311 312 312 312 311 313 313 311 311 314 313 314 313 311 310 306 298 296 294 293 291 290 290 290 290 288 288 288 288 288 287 287 287 288 289 289 289 291 292 293 295 295 297
308 310 309 309 309 309 310 309 308 307 307 307 306 306 305 305 302 297 293 294 293 290 290 290 290 290 288 288 288 287 287 287 287 287 286 286 286 287 287 287 288 289 292 294
305 306 306 307 306 306 307 305 305 305 304 304 303 303 302 295 293 293 292 291 293 291 290 289 289 290 289 287 287 287 286 286 286 286 286 286 286 286 286 286 286 287 287 288
302 302 303 303 303 302 303 302 302 302 302 301 301 301 294 293 293 293 292 291 292 291 290 289 289 289 289 287 287 287 286 286 286 286 286 286 286 286 286 285 285 285 285 286
299 300 301 302 300 300 300 299 298 299 299 296 295 293 293 291 290 291 291 291 291 291 289 289 289 288 288 287 287 286 286 285 285 285 285 285 285 285 286 285 285 285 285 285
297 298 299 299 299 299 298 298 298 297 298 296 293 291 291 290 291 291 291 290 290 290 290 289 288 288 288 287 287 286 286 286 285 285 285 284 284 285 285 285 285 285 285 285
294 296 296 295 296 295 295 291 291 292 295 293 290 290 290 290 290 291 290 289 289 289 289 289 288 288 288 287 286 285 285 284 284 284 283 283 283 283 283 284 285 285 285 285
291 292 295 296 296 296 294 291 292 294 294 292 290 289 289 290 290 290 289 289 289 288 289 289 289 288 287 286 284 284 282 282 280 280 280 281 282 281 282 282 283 284 284 284
291 292 291 287 291 292 291 289 292 292 291 290 290 290 289 289 289 289 289 289 289 289 288 288 286 286 286 284 281 281 281 280 278 277 277 276 277 278 279 279 280 281 281 282
291 292 292 290 292 292 290 291 290 290 290 290 290 290 289 289 288 288 288 288 288 287 286 285 283 283 284 282 279 278 278 276 275 275 275 274 273 272 273 273 274 274 277 278
291 291 290 291 291 291 291 290 290 290 290 290 289 289 288 288 288 287 287 286 285 284 283 281 280 280 281 280 278 275 274 272 272 271 271 271 269 269 269 269 269 270 271 273
292 290 290 291 291 290 290 290 290 290 290 289 289 288 288 287 286 284 284 283 282 280 279 278 276 276 277 275 275 273 273 271 269 267 266 265 265 265 266 266 266 267 268 270
291 291 291 291 291 291 290 290 290 289 289 288 288 288 286 285 284 283 282 280 278 278 277 277 275 274 274 272 272 271 269 266 264 263 263 263 263 263 263 264 264 266 267 269

GFSCGP_850_thetae_021.txt.gz
Theta_e
314 316 317 318 319 318 317 317 318 318 318 318 317 316 316 315 315 315 316 317 316 315 312 310 309 308 309 309 310 310 310 310 310 311 312 313 316 317 318 318 318 318 317 316
315 316 317 317 317 315 316 316 317 317 317 316 316 315 315 316 316 316 316 316 315 313 311 308 308 309 309 309 309 310 309 308 308 308 311 313 315 316 317 317 316 316 316 315
317 318 316 315 315 316 316 316 317 317 316 314 314 316 319 317 319 317 315 313 312 310 308 306 305 307 308 309 308 307 307 307 306 306 308 309 310 311 312 312 312 314 313 313
317 315 314 314 314 315 316 316 314 314 314 318 315 318 318 319 319 316 314 312 310 308 306 305 304 305 306 305 306 306 307 306 306 306 306 306 308 307 308 307 308 309 309 310
316 314 313 314 315 314 315 313 312 313 314 316 317 318 319 319 318 315 311 310 307 306 305 304 303 304 305 305 305 305 306 307 307 305 304 304 304 304 305 305 305 304 304 305
314 310 311 313 313 312 311 312 313 314 315 320 320 319 319 318 315 313 310 308 307 306 304 303 302 302 302 303 303 303 304 304 304 304 304 302 302 302 303 303 302 302 303 303
317 314 311 310 312 311 311 313 319 320 323 325 318 319 319 317 314 312 310 307 306 304 303 302 300 300 299 298 300 303 304 305 304 303 303 303 302 301 300 301 301 301 301 301
318 317 314 311 313 316 316 316 319 320 322 323 320 322 320 316 310 309 308 306 304 303 302 301 299 298 298 298 301 301 302 302 303 303 302 301 302 302 302 300 300 300 300 300
316 317 316 312 311 311 316 315 315 317 317 320 319 319 319 316 311 309 308 305 303 302 301 301 299 297 297 296 296 296 298 299 300 300 300 301 301 300 300 301 301 300 298 298
316 318 316 313 311 311 311 310 316 316 319 319 317 317 317 316 314 310 307 303 301 300 300 299 298 296 295 296 296 296 296 296 295 296 297 297 297 298 299 299 300 300 300 299
314 316 315 313 314 314 313 312 313 314 316 319 319 316 313 313 311 308 303 300 298 297 296 297 297 294 293 293 293 293 292 291 291 291 292 292 292 293 293 295 297 297 298 299
312 313 315 312 312 312 313 313 313 315 316 314 315 317 312 309 305 303 300 299 297 296 294 294 295 294 291 290 290 290 290 289 289 288 289 289 289 289 290 291 292 293 295 296
312 313 313 312 310 311 314 314 314 314 314 316 318 315 308 305 303 300 299 298 297 295 292 291 292 293 291 289 289 288 288 288 288 288 288 287 288 288 288 288 289 289 290 291
310 311 312 311 309 310 311 311 311 312 313 313 313 312 309 309 306 302 300 298 296 294 292 291 291 291 290 289 288 288 287 287 287 287 287 287 287 287 286 286 287 287 287 288
307 308 308 308 307 307 308 307 307 308 309 310 309 310 308 306 305 300 298 296 295 294 292 291 290 290 290 289 288 288 287 287 287 287 286 286 286 286 286 286 286 286 286 286
303 304 304 304 303 303 304 305 306 306 307 306 306 306 305 300 297 297 295 294 293 292 293 291 290 290 290 290 289 288 287 287 287 287 286 286 286 286 286 286 286 286 286 286
302 302 302 302 301 300 301 301 301 302 303 303 302 302 296 296 295 294 293 292 292 291 292 291 290 290 289 289 289 288 287 287 286 286 286 286 286 286 285 285 286 286 285 285
299 300 301 300 299 299 299 299 299 299 299 300 299 295 293 292 291 291 291 292 292 291 290 291 290 290 289 289 288 287 287 286 285 286 286 286 285 285 286 286 286 286 285 285
297 298 298 298 299 298 298 297 297 297 297 297 298 293 291 291 291 291 292 291 290 290 290 289 289 290 289 288 287 286 286 285 284 283 282 282 281 282 283 284 284 284 284 284
294 296 297 298 297 296 295 296 293 294 295 295 292 291 291 291 290 292 291 290 290 289 289 289 289 289 288 287 286 285 284 283 282 281 280 280 280 279 279 280 281 282 282 283
293 295 297 297 297 296 297 293 293 294 296 293 292 291 291 291 291 290 290 290 289 289 289 289 289 288 287 286 284 284 282 280 279 279 278 277 277 277 276 276 276 276 276 277
292 294 294 293 293 292 293 291 293 294 292 292 291 291 291 291 290 290 290 289 289 289 289 288 287 287 286 284 283 282 281 279 278 276 276 274 274 273 273 272 272 272 272 272
292 293 293 293 293 293 291 292 292 292 292 292 291 291 291 290 290 289 289 289 289 288 287 286 285 286 285 282 280 280 279 278 277 277 276 274 272 270 269 269 269 269 269 270
293 293 292 293 292 293 292 291 291 291 291 291 291 291 290 290 289 289 288 287 286 285 285 284 283 282 282 281 279 277 276 275 273 272 271 270 268 267 266 266 266 266 267 268
294 293 293 293 292 292 291 291 291 291 290 290 290 290 289 288 288 287 286 285 284 283 282 281 280 280 280 278 277 276 274 272 271 269 267 266 265 264 264 264 264 264 265 266
293 293 293 293 292 292 292 291 291 290 290 290 290 289 288 287 286 285 284 283 282 281 280 279 279 278 277 276 276 274 272 270 268 266 265 265 264 264 264 264 264 265 266 267

GFSCGP_850_thetae_024.txt.gz
Theta_e
314 314 314 315 315 316 315 316 316 315 316 315 315 314 314 315 315 314 315 316 312 310 309 308 307 307 307 308 308 309 310 310 311 311 312 315 319 321 321 323 322 323 322 321
315 315 315 316 316 315 315 315 314 315 316 315 314 313 313 313 314 315 316 313 310 308 308 307 307 306 307 308 307 308 308 308 309 309 312 314 315 316 318 318 319 320 319 318
315 317 317 316 315 315 315 315 315 315 314 313 313 313 314 316 317 313 311 309 308 307 307 306 306 306 307 307 308 308 308 307 307 306 308 309 311 314 315 316 316 316 316 315
316 315 315 315 315 315 315 314 315 314 313 313 313 316 317 315 315 311 309 308 307 306 305 304 304 304 305 305 305 305 305 306 306 306 306 308 309 308 307 307 307 307 310 312
316 313 313 314 314 314 315 311 312 312 312 312 314 314 317 316 313 310 308 307 306 304 303 303 302 302 303 303 305 305 304 303 302 303 304 305 305 305 305 306 306 305 304 304
313 310 311 313 312 313 311 311 311 310 311 315 316 317 317 314 311 309 308 307 305 304 302 301 301 302 303 303 303 303 304 304 303 303 303 302 302 303 303 303 303 302 302 302
314 313 311 311 311 311 311 312 315 317 315 317 316 316 316 314 310 309 308 306 304 302 301 300 301 302 302 302 303 303 302 302 302 301 300 301 301 302 302 301 301 301 301 300
316 317 312 309 312 314 314 315 316 315 314 314 314 316 316 311 309 308 306 304 303 302 301 300 299 299 298 299 298 299 300 300 300 300 300 298 300 301 300 301 301 301 300 299
314 314 311 311 311 312 314 314 313 313 308 311 314 314 314 310 308 306 305 303 302 301 301 300 298 297 297 296 296 295 295 295 296 296 296 296 298 298 298 299 298 298 299 300
315 317 316 311 311 309 310 310 314 314 319 314 314 313 313 312 309 306 303 301 300 299 298 298 297 295 294 293 292 291 290 290 290 290 290 291 291 292 293 295 295 294 295 296
313 316 314 312 313 312 310 311 311 312 313 313 313 311 310 309 307 303 301 300 299 297 296 296 297 296 292 291 290 289 289 289 289 289 289 289 289 289 289 290 290 291 291 291
312 313 310 312 310 309 309 311 312 313 311 311 313 313 308 305 303 302 301 300 299 298 295 293 294 293 291 289 289 288 288 288 288 288 287 288 288 288 288 288 288 288 289 289
312 310 307 305 306 311 313 312 310 310 311 314 314 312 306 304 302 301 305 305 301 297 294 292 291 291 291 289 289 288 288 288 288 288 287 287 287 287 286 286 286 286 286 287
309 309 306 305 305 307 306 307 306 308 310 307 307 307 307 307 307 305 304 302 299 296 293 292 291 291 290 290 289 288 288 288 288 288 288 287 287 287 286 286 286 286 286 286
307 306 306 307 306 306 304 304 305 305 305 305 304 304 305 305 303 299 298 296 296 296 294 292 291 290 290 289 289 289 288 288 288 287 287 287 287 287 287 287 287 287 287 286
304 299 302 298 302 302 301 301 301 301 301 302 303 303 302 298 297 297 296 295 294 292 292 292 291 290 290 289 289 289 289 289 288 288 287 287 287 287 287 286 286 286 286 286
300 298 292 295 298 297 293 297 297 298 298 299 299 298 293 295 294 293 292 292 292 292 291 291 291 291 290 289 289 289 288 288 287 286 286 287 286 286 285 285 285 285 285 285
297 294 294 292 290 292 295 297 296 296 296 295 295 291 292 292 291 291 291 291 292 291 290 290 290 289 289 290 290 289 288 287 286 285 284 283 283 282 283 282 283 283 283 284
297 297 296 291 289 294 295 295 295 294 293 294 293 293 292 291 291 291 291 291 290 290 290 289 289 289 289 289 289 288 287 286 285 283 282 281 281 280 279 280 280 280 279 280
293 294 294 288 291 287 294 293 293 294 292 293 294 289 291 291 288 287 291 291 290 290 289 289 289 289 289 289 287 287 285 284 282 281 281 279 278 277 276 276 276 276 276 276
286 287 293 293 293 291 293 292 293 289 291 291 291 291 291 289 290 291 291 290 290 289 289 289 289 289 288 287 286 285 283 282 280 279 279 279 278 276 275 274 273 272 272 272
290 287 286 286 288 292 293 291 291 292 293 292 291 291 291 291 291 291 290 290 289 289 289 289 288 287 286 285 284 283 282 281 280 279 278 277 276 275 273 272 270 269 268 268
289 290 287 290 289 293 292 292 292 292 292 292 292 291 291 291 291 290 290 289 289 289 288 288 287 287 285 284 282 282 281 280 279 278 277 276 274 272 270 268 267 267 266 265
290 292 291 290 291 291 292 292 292 292 291 291 291 291 290 290 290 290 289 289 288 288 287 287 286 285 283 282 282 280 278 278 277 276 275 274 272 270 268 266 266 265 265 265
292 291 290 291 292 292 292 292 292 292 291 291 291 290 290 290 289 289 288 288 287 286 286 285 284 282 282 281 280 278 277 276 276 274 273 271 269 267 266 266 265 265 265 265
293 292 292 292 292 292 292 292 292 291 291 291 291 290 290 290 289 288 287 286 285 285 284 283 282 281 281 280 278 277 276 275 274 273 271 270 266 265 265 265 265 266 266 266

GFSCGP_850_thetae_027.txt.gz
Theta_e
313 310 310 310 310 311 313 314 313 312 312 313 312 311 311 314 314 311 311 307 307 306 305 306 307 307 307 308 308 309 310 311 311 311 312 314 319 322 323 324 323 323 323 322
311 312 311 311 313 313 313 313 312 312 313 313 311 311 310 311 311 312 308 307 306 305 306 305 306 306 306 306 307 307 308 308 309 309 311 313 314 317 319 320 321 320 320 319
312 313 313 313 314 313 313 313 312 313 312 310 311 311 311 312 308 307 307 306 306 304 303 303 304 304 304 305 305 305 306 306 306 307 309 311 313 314 316 317 318 317 317 316
312 313 313 313 314 313 314 312 313 313 311 310 311 312 313 312 308 306 305 305 304 303 303 303 303 303 303 304 305 305 305 305 305 306 306 307 308 309 309 308 308 309 311 314
315 312 312 313 313 311 312 310 311 311 310 310 310 311 311 309 309 307 304 303 302 302 302 302 302 302 302 303 304 304 305 306 305 304 304 304 304 305 305 306 306 305 305 305
311 310 311 311 311 311 309 310 310 309 308 312 312 313 313 311 309 306 304 303 302 301 302 302 302 302 303 303 304 304 304 304 304 304 304 304 303 303 302 303 303 302 302 302
312 311 310 310 311 309 309 310 313 312 310 313 312 312 313 311 308 306 303 301 301 301 301 301 301 301 301 301 301 302 302 302 302 302 302 301 301 302 302 302 301 301 300 300
314 315 310 309 311 311 310 312 311 310 312 310 311 313 312 305 304 303 302 302 302 301 300 300 300 300 300 300 299 297 297 298 298 298 299 298 298 297 296 296 296 297 299 299
313 312 309 310 310 311 312 313 311 312 301 307 311 312 308 305 303 302 301 302 301 300 300 300 299 299 299 299 297 295 293 292 292 292 292 292 292 293 292 291 292 292 292 293
314 314 313 309 310 309 311 309 312 310 309 309 312 311 310 307 304 301 300 300 300 299 299 299 300 299 296 293 292 291 290 289 290 290 290 290 289 289 289 290 290 290 289 288
313 314 312 311 312 312 309 310 310 311 311 310 309 309 309 308 303 300 299 300 301 301 300 298 297 296 293 290 289 289 289 288 288 288 288 288 288 288 287 287 288 288 288 288
311 312 308 311 308 307 308 309 310 310 309 308 311 312 307 303 301 302 301 302 303 302 299 296 295 293 291 290 289 288 288 288 288 288 288 288 287 287 287 287 287 287 287 287
311 308 302 304 305 310 311 310 308 308 310 311 312 309 304 302 302 302 303 304 301 298 297 293 292 291 291 290 289 289 288 288 288 288 288 287 287 287 287 287 287 287 286 286
309 308 303 304 302 306 306 305 304 307 305 301 303 303 304 303 302 304 304 303 303 299 296 293 292 291 291 290 289 289 289 289 288 288 288 288 288 287 287 287 287 286 286 286
306 304 306 306 305 304 304 303 303 303 303 303 303 302 302 301 299 299 298 298 300 297 295 294 293 292 291 291 290 290 289 289 288 288 288 288 287 287 287 286 286 286 285 285
304 299 300 296 301 301 301 301 300 300 300 300 300 300 299 297 296 296 295 294 294 292 292 291 292 291 291 290 289 289 289 289 289 288 288 287 287 287 286 286 285 285 285 284
300 297 291 293 298 295 293 297 297 298 297 296 296 296 292 294 294 292 292 293 292 292 292 291 291 290 290 290 289 289 289 289 289 288 287 286 285 285 284 284 284 283 283 283
297 292 289 287 286 292 294 294 295 295 295 292 292 289 291 292 291 291 291 291 291 291 291 291 290 289 289 289 289 289 289 289 287 287 286 284 283 282 281 281 281 281 280 280
297 296 289 290 286 290 294 293 294 294 292 290 290 291 293 290 290 290 291 291 290 290 290 290 289 289 289 289 289 289 288 287 286 284 283 283 282 281 280 279 279 279 278 279
294 296 294 279 289 288 291 292 294 292 291 290 292 289 290 290 287 286 291 290 290 290 290 290 289 289 289 289 289 288 286 285 284 283 282 281 280 279 279 278 277 277 275 275
284 282 295 294 292 288 289 291 293 288 290 293 293 292 290 289 290 291 291 290 290 290 290 289 289 289 289 288 287 286 285 283 282 282 281 280 279 278 277 277 275 274 272 271
289 287 284 281 282 291 292 291 290 291 293 293 292 291 291 291 291 291 291 290 290 290 289 289 289 288 288 287 286 284 283 282 282 281 280 279 278 277 276 274 273 271 269 269
290 289 286 289 288 291 291 292 293 292 293 292 292 292 291 291 291 291 290 290 290 289 289 289 288 288 287 286 284 283 282 281 280 279 279 278 277 275 274 272 271 269 268 267
289 290 290 288 289 290 292 292 292 292 292 292 291 291 291 291 290 290 290 289 289 289 289 288 288 287 286 284 282 282 281 280 279 279 279 277 276 274 273 271 269 268 268 266
291 289 289 289 291 291 291 292 292 292 292 292 292 291 291 291 290 290 290 289 289 289 288 287 286 285 284 282 281 280 280 279 279 278 277 276 274 273 271 269 269 267 268 265
292 292 292 292 292 291 292 292 292 292 292 292 291 291 291 290 290 290 289 289 288 287 287 286 284 284 282 281 281 279 278 278 278 276 276 274 273 272 270 268 268 270 268 266

GFSCGP_850_thetae_030.txt.gz
Theta_e
312 309 308 308 309 309 311 312 312 311 311 311 311 311 310 312 312 308 305 305 304 303 303 304 304 305 306 306 307 308 309 311 312 314 316 318 321 322 323 322 323 323 322 323
310 310 310 309 309 310 310 312 311 310 310 312 310 310 309 308 307 306 305 304 302 302 303 303 304 305 305 305 306 307 307 308 309 309 311 313 314 317 320 320 320 319 319 319
311 313 311 312 312 312 311 312 312 313 310 309 310 310 311 306 306 305 304 303 302 302 302 302 303 304 305 306 305 305 305 306 306 307 308 311 313 314 316 317 317 316 316 316
310 311 312 312 313 313 314 311 311 312 310 312 309 310 310 309 305 303 302 301 301 301 301 301 302 303 303 303 304 305 305 306 305 305 305 305 307 308 308 308 310 312 312 312
314 312 312 313 312 311 313 310 310 310 310 309 308 308 308 307 307 303 301 300 300 300 300 301 302 302 302 303 304 304 304 305 305 305 304 304 303 302 303 304 305 305 305 305
310 309 309 310 310 310 309 309 308 306 306 310 309 309 311 309 308 303 301 300 300 299 299 300 300 301 301 301 302 302 302 302 303 303 304 304 303 302 302 301 301 301 301 301
310 310 310 310 310 309 308 310 312 310 309 313 310 310 311 306 306 304 300 299 299 300 300 300 301 301 302 301 301 301 301 301 301 301 301 301 300 300 300 300 299 299 299 299
313 315 309 308 309 310 308 310 311 308 311 311 308 310 309 302 301 301 301 300 300 300 300 301 303 302 301 300 300 299 299 298 297 296 295 295 295 293 292 292 292 293 293 292
311 313 308 308 309 310 311 312 310 310 297 306 310 309 306 302 300 300 301 301 302 301 301 301 302 301 300 298 297 295 293 292 292 291 291 291 290 290 289 288 288 288 288 289
312 314 312 310 310 308 310 308 311 308 308 309 309 310 310 304 301 300 299 301 301 301 302 302 301 300 298 296 294 292 291 291 290 290 290 289 289 289 288 288 288 288 288 288
312 311 311 310 311 311 308 309 309 309 307 305 305 307 306 305 302 300 300 302 301 301 302 301 300 299 297 294 291 290 290 290 289 289 289 289 289 288 288 288 288 288 287 287
310 311 307 311 308 307 308 308 308 307 307 306 308 308 306 304 302 301 302 303 302 302 300 299 298 296 294 291 290 289 289 289 289 289 288 288 288 288 288 288 287 287 287 287
309 306 300 304 304 308 308 308 306 307 306 303 308 308 303 302 301 302 303 303 302 301 300 297 296 294 292 290 289 289 289 289 289 288 288 288 288 288 287 287 287 287 286 286
309 306 305 307 302 306 306 305 304 306 304 303 307 305 304 302 300 300 301 302 303 301 299 297 293 293 292 291 290 289 289 289 289 289 288 288 288 287 287 287 286 286 285 285
308 309 306 305 305 305 305 305 303 304 303 303 302 300 301 300 298 298 299 299 300 301 297 295 295 294 292 292 292 291 290 290 289 289 289 288 287 287 286 286 285 285 285 284
303 301 301 298 302 302 302 302 301 302 302 301 302 301 299 299 297 296 297 297 297 299 297 295 293 293 292 291 291 290 290 289 289 289 289 289 287 286 286 285 284 284 284 283
303 298 295 297 296 294 293 295 298 297 297 297 296 296 292 294 295 295 296 294 293 293 292 292 291 291 291 290 290 289 289 289 289 289 288 287 286 285 284 284 283 282 282 282
298 295 294 291 287 291 296 293 294 295 295 292 291 288 291 295 296 295 294 293 292 291 291 291 291 291 290 289 289 289 289 289 288 288 287 286 284 284 283 282 282 281 281 281
297 297 294 294 289 291 294 293 293 293 292 290 291 289 293 294 291 290 291 291 291 291 290 290 290 290 289 289 289 289 289 288 288 287 285 284 283 282 281 281 281 281 281 280
295 296 296 282 285 289 291 292 293 291 290 289 291 289 291 290 287 287 291 291 291 290 290 290 290 289 289 289 289 288 288 287 286 285 284 283 282 281 280 280 280 279 278 278
287 293 296 293 285 286 289 291 292 288 290 292 293 293 291 288 291 293 291 291 291 291 290 290 290 289 289 289 288 288 287 286 285 284 283 282 281 280 280 280 278 278 277 276
290 289 289 287 290 290 291 290 291 292 291 292 293 293 293 292 292 291 291 291 291 290 290 290 289 289 289 288 288 287 286 285 283 283 282 281 280 280 279 278 278 276 275 273
290 290 287 289 289 291 291 293 294 294 293 292 292 292 292 291 291 291 291 291 290 289 289 289 289 288 288 288 287 286 286 284 283 282 281 280 280 279 278 277 276 275 273 271
289 289 289 288 289 290 292 293 293 292 292 292 292 292 291 291 291 291 291 290 290 289 289 289 288 288 287 286 286 285 284 282 282 281 280 279 279 278 278 276 275 273 272 271
289 289 287 288 290 291 291 291 292 292 292 292 291 291 291 291 291 291 290 290 290 290 289 289 288 287 286 285 284 283 282 281 281 280 279 279 278 278 277 275 274 273 272 269
291 292 291 290 292 291 291 292 292 292 292 292 292 291 292 291 291 291 291 290 290 289 289 288 287 286 284 284 283 281 281 280 280 279 278 277 277 277 275 274 274 274 273 271

GFSCGP_850_thetae_033.txt.gz
Theta_e
311 307 307 308 308 308 309 309 311 310 310 312 310 309 309 310 305 303 303 302 302 301 301 302 303 304 305 307 307 308 309 310 314 316 318 320 322 323 323 319 320 321 321 320
309 308 308 307 307 309 309 311 310 310 309 310 310 310 308 304 303 303 302 301 301 300 301 302 303 304 305 305 305 306 306 307 308 309 311 312 314 315 319 317 317 318 317 318
310 312 310 310 310 310 310 310 311 311 310 309 309 309 310 304 303 302 301 301 300 300 300 301 303 304 304 305 306 306 306 306 305 306 307 309 312 313 315 316 315 313 314 314
309 310 312 311 312 311 314 309 310 312 310 313 308 311 307 305 303 301 300 300 300 300 300 301 302 303 303 303 303 303 304 304 305 305 306 306 305 304 304 305 305 306 307 307
313 312 310 311 311 311 313 309 310 310 309 308 308 309 306 304 305 301 299 299 299 300 301 301 301 301 301 301 301 302 302 303 303 303 302 302 303 303 302 302 302 301 301 301
311 309 309 310 308 309 308 308 307 305 306 310 308 309 309 308 307 301 299 299 299 300 300 300 300 300 301 301 302 303 302 302 302 302 302 302 301 301 301 301 301 300 299 299
310 310 309 309 309 308 308 309 312 310 309 313 308 309 308 305 302 303 299 299 300 300 300 300 301 301 301 302 302 301 301 301 300 299 299 298 298 297 296 295 295 294 293 292
311 315 309 307 309 309 307 309 311 309 309 310 308 311 309 301 300 301 301 300 299 299 300 302 302 301 301 300 299 298 297 296 296 296 295 294 293 292 292 291 290 290 290 290
311 313 308 307 308 309 309 310 308 309 294 305 310 308 304 301 299 299 299 299 300 300 300 301 302 302 300 299 297 295 294 294 293 293 292 292 292 291 291 290 289 289 289 289
310 313 310 309 308 307 309 307 311 307 307 308 309 309 309 303 301 299 298 299 301 300 300 301 301 301 299 297 295 293 292 292 292 291 290 290 290 289 289 289 289 288 288 288
310 311 310 310 310 309 308 309 308 308 306 304 303 306 303 304 302 300 299 302 302 302 301 301 300 300 298 296 293 291 291 290 290 289 289 289 289 289 288 288 288 288 288 288
310 309 309 310 307 304 307 308 308 310 308 304 306 309 304 303 302 301 302 304 304 302 301 301 301 299 298 295 292 290 290 290 289 289 289 289 288 288 288 288 287 287 287 286
309 307 303 307 306 307 307 306 306 305 302 300 306 307 302 301 301 302 303 303 303 302 301 300 299 299 297 294 291 290 290 289 289 289 289 288 288 288 287 287 287 286 286 285
310 306 308 314 306 306 306 305 304 304 305 304 307 307 304 302 301 300 301 302 300 300 301 300 298 297 296 293 291 290 289 289 289 289 289 288 288 288 287 286 286 285 285 285
307 305 305 304 304 304 304 304 303 303 304 307 306 306 303 302 300 302 302 298 298 299 300 299 298 298 294 292 291 291 290 290 289 289 289 288 288 288 287 286 285 285 284 284
302 304 302 299 304 305 305 304 303 304 304 302 302 303 301 299 300 297 297 297 297 298 299 299 298 295 293 293 292 291 291 290 289 289 289 288 288 288 287 286 284 284 283 283
302 301 302 307 297 297 299 298 301 302 300 301 301 301 291 294 294 295 296 295 295 295 296 297 297 295 292 292 292 291 290 290 289 289 288 288 288 287 286 284 283 283 283 282
302 301 301 298 294 301 300 293 294 296 297 293 292 288 291 294 295 295 295 295 295 294 293 292 292 291 291 291 290 290 290 289 289 288 288 288 288 287 284 283 282 282 282 282
298 299 297 301 292 295 298 294 291 292 292 291 293 292 294 293 293 293 294 294 293 292 291 291 291 291 290 290 290 289 289 288 288 288 288 288 287 284 283 282 282 281 282 282
297 297 302 288 294 296 295 291 292 292 291 288 292 290 292 291 288 290 293 293 292 291 291 291 291 290 290 290 289 289 289 289 288 288 287 286 284 283 282 281 281 281 281 280
292 295 300 293 298 290 288 290 292 289 292 291 293 293 291 288 292 292 293 292 292 291 291 291 290 290 290 289 289 289 289 288 288 287 286 285 283 282 281 281 281 281 280 280
291 291 290 289 291 292 290 290 292 292 292 293 292 292 292 292 292 292 292 292 291 291 290 290 290 289 289 289 289 288 288 287 287 286 285 283 282 281 281 281 280 280 279 278
292 291 290 291 291 291 291 293 294 294 294 293 292 292 292 292 292 292 292 292 291 291 290 290 289 289 289 289 288 288 287 286 286 285 283 282 281 280 280 280 280 279 278 277
289 288 289 289 289 289 292 293 293 294 293 294 293 292 292 292 292 292 291 291 291 291 290 290 289 289 289 288 288 287 286 285 285 284 282 281 281 280 279 279 279 278 277 276
290 288 288 288 290 290 291 292 293 293 293 292 292 292 292 291 291 291 291 291 291 291 290 290 289 289 288 287 286 285 285 284 283 283 281 280 280 279 279 278 278 277 276 274
289 291 290 288 292 292 292 293 292 292 292 292 292 292 292 292 292 291 291 291 291 291 290 290 289 288 287 286 285 284 283 283 283 282 280 279 279 278 278 278 278 276 275 274

GFSCGP_850_thetae_036.txt.gz
Theta_e
310 307 308 308 307 309 308 309 310 309 309 311 310 309 309 304 303 302 301 301 301 302 302 303 304 305 306 307 307 308 310 313 317 319 319 320 320 321 320 317 317 318 319 319
307 307 307 307 307 308 309 309 309 308 309 309 310 309 305 303 302 302 301 300 300 301 302 303 304 305 306 306 306 306 307 307 308 308 309 311 312 313 316 315 314 314 315 315
309 311 308 308 308 308 307 308 309 311 310 308 308 308 306 302 301 301 300 300 299 300 301 302 303 304 304 304 304 304 304 304 304 304 305 305 306 310 309 309 310 309 309 310
308 309 311 309 309 308 311 308 310 310 311 312 308 312 307 304 302 300 299 299 299 300 300 301 301 301 301 301 302 304 304 304 304 304 304 305 304 304 303 303 303 303 303 303
313 310 310 311 310 309 312 309 308 309 308 308 308 309 306 303 304 300 298 298 299 299 300 299 300 300 301 301 302 302 302 303 302 302 302 302 302 301 300 300 300 300 300 300
311 309 308 310 307 309 305 307 306 304 305 309 308 309 309 306 306 301 299 298 299 300 299 299 299 300 302 302 301 301 301 301 300 300 300 299 299 298 297 296 296 294 293 293
310 309 308 308 307 307 307 308 312 311 309 312 306 307 308 306 303 302 299 299 299 299 299 299 300 300 300 300 299 299 298 299 298 297 297 297 296 295 295 293 292 292 292 291
312 314 308 307 308 309 307 309 311 310 309 308 307 311 310 302 300 301 302 301 300 299 299 300 299 298 299 298 297 296 296 296 295 295 295 294 294 294 293 292 292 291 290 290
310 313 307 306 307 308 308 309 307 307 293 304 309 308 305 300 299 298 298 299 299 299 299 300 300 299 299 298 296 295 295 294 293 293 292 292 292 291 291 290 290 290 289 289
310 313 309 307 307 306 308 306 311 307 308 306 309 308 309 304 301 297 297 298 300 299 299 300 300 300 299 297 295 294 293 292 292 291 291 291 291 290 290 289 289 289 289 288
308 311 310 309 309 308 308 309 307 308 307 307 304 306 303 304 301 299 298 300 301 301 300 300 300 300 298 297 296 294 292 291 291 290 290 290 289 289 289 288 288 288 287 287
309 309 308 310 306 304 306 307 308 311 308 303 305 310 302 302 300 300 300 302 303 302 301 300 300 301 299 298 297 293 291 290 290 289 289 289 289 289 288 288 287 287 286 285
310 308 304 308 308 306 307 306 306 305 303 302 306 308 302 301 300 301 302 303 303 303 302 302 301 300 300 297 296 292 290 289 289 289 289 289 289 288 288 288 287 287 286 285
310 307 308 312 309 307 308 306 305 305 303 305 309 309 306 303 301 300 302 303 303 301 300 300 300 300 300 298 296 293 290 289 289 289 289 289 289 288 288 288 287 286 286 285
309 307 305 304 303 305 306 306 304 305 307 309 309 307 303 304 302 302 303 302 301 299 298 298 299 300 299 297 296 292 290 290 290 290 289 289 289 288 288 287 287 286 285 284
303 306 304 303 304 303 305 303 303 304 303 302 303 303 300 303 304 303 303 302 300 298 298 298 298 299 298 297 295 293 292 290 290 290 289 289 289 288 288 288 287 286 284 283
305 303 304 309 297 300 307 304 303 302 301 303 305 305 294 296 296 298 299 298 297 297 296 296 296 298 298 296 294 293 292 291 290 290 289 289 289 288 288 288 287 285 284 283
302 301 304 297 299 306 303 292 296 304 302 298 294 291 294 295 296 296 296 296 295 295 295 295 295 296 295 293 292 291 291 291 290 289 289 289 288 288 288 287 286 284 283 282
298 302 298 301 300 301 300 292 292 294 295 293 297 297 294 294 293 293 294 294 293 294 294 293 292 292 291 291 291 290 290 290 290 289 289 288 288 288 288 287 285 283 282 282
298 300 307 294 302 303 296 291 292 293 295 290 294 292 291 291 288 288 292 292 292 293 293 292 292 291 291 290 290 290 289 289 289 289 288 288 288 288 287 286 283 282 282 281
297 297 304 297 300 296 291 289 292 292 295 291 292 293 291 288 291 292 292 292 292 292 292 292 291 291 290 290 289 289 289 289 289 288 288 288 288 287 286 284 282 281 281 281
296 298 296 296 298 300 290 290 293 293 292 294 294 294 292 292 292 292 292 292 292 292 292 291 291 290 290 290 289 289 289 289 288 288 287 287 287 286 285 284 281 281 280 280
294 294 294 296 296 290 291 293 294 294 294 293 293 293 292 292 292 292 292 292 292 291 291 291 291 290 290 290 289 289 289 288 288 287 287 286 286 285 283 282 280 280 279 279
289 288 291 291 290 290 291 293 294 294 294 294 293 293 292 291 291 292 292 291 291 291 291 291 291 290 290 290 289 289 289 288 287 287 286 285 284 283 282 280 279 279 278 278
291 289 288 289 289 290 292 293 293 293 293 292 292 292 292 291 291 292 291 291 291 291 291 291 290 290 290 290 289 289 288 287 286 285 285 284 283 283 280 279 278 278 278 277
289 289 290 290 291 292 293 294 294 293 292 291 291 291 291 291 291 291 292 291 291 291 291 290 290 290 290 289 289 288 287 286 285 284 283 282 282 281 279 278 278 277 277 276

GFSCGP_850_thetae_039.txt.gz
Theta_e
309 308 310 309 307 309 308 308 310 309 309 311 310 309 309 303 303 302 302 301 301 302 302 303 304 306 307 309 311 315 318 319 321 322 322 322 321 319 319 316 315 316 317 317
307 308 308 307 307 308 307 308 308 307 308 309 309 309 307 303 302 302 301 300 301 301 302 303 303 305 306 306 307 308 308 309 309 308 308 309 309 310 310 310 310 310 310 310
308 311 306 307 306 308 306 308 307 310 309 308 308 309 306 302 301 301 300 300 300 301 302 302 303 304 303 303 303 304 304 305 305 305 305 306 305 305 306 305 305 304 304 304
307 308 309 307 308 306 308 306 307 309 311 313 307 313 308 303 302 300 299 299 299 300 301 301 301 301 302 303 303 304 304 304 303 303 303 304 303 304 302 302 302 302 302 302
313 308 309 310 310 307 310 306 307 309 309 308 308 309 308 304 304 301 298 298 299 299 300 300 299 300 301 301 302 301 301 301 301 301 300 300 300 300 298 298 297 296 296 296
310 309 308 310 308 308 304 306 306 304 305 310 309 310 309 307 306 301 299 299 299 299 298 298 299 300 300 299 300 300 300 300 299 298 298 297 297 296 296 295 295 294 292 292
310 309 307 307 307 306 306 309 312 312 312 314 306 307 309 306 303 303 300 299 299 299 298 298 299 299 300 298 299 299 298 299 297 297 297 297 296 295 295 294 293 291 291 291
313 315 308 305 308 309 306 309 313 314 311 309 306 310 310 302 301 301 301 301 300 299 298 298 299 299 299 298 300 298 297 297 296 294 294 294 294 294 294 293 291 291 291 290
312 314 306 306 305 307 308 309 307 306 294 306 309 307 306 301 299 298 299 300 299 299 298 299 298 300 298 298 298 296 296 294 293 293 293 293 293 292 291 291 290 290 289 289
310 313 308 306 307 306 307 306 311 308 311 310 309 309 310 305 302 297 296 298 299 300 298 299 300 300 299 298 296 295 293 293 292 292 291 291 291 290 290 289 289 289 288 288
308 311 310 307 307 308 308 309 307 308 308 309 308 308 303 305 302 299 297 299 300 300 299 300 301 300 299 297 296 294 293 293 292 290 290 290 290 289 289 289 289 288 288 287
308 310 309 309 306 304 306 307 307 311 309 303 306 310 303 302 301 300 299 301 301 302 301 301 301 300 300 299 298 295 292 292 290 290 290 290 290 289 289 289 288 288 287 287
309 310 308 310 308 305 307 305 305 305 305 304 309 309 302 300 300 300 301 302 302 302 301 300 300 300 301 300 298 296 293 291 290 289 289 290 289 289 289 288 288 288 287 287
310 308 312 319 313 308 308 306 305 308 305 308 309 307 305 302 301 299 301 303 303 302 302 302 301 301 301 299 298 297 294 291 289 289 289 289 289 289 289 288 288 288 287 287
310 315 307 306 305 307 307 306 305 307 309 311 311 308 304 305 303 303 305 303 302 302 302 301 300 299 300 299 298 297 294 290 289 289 289 289 289 289 289 288 288 288 287 287
305 312 307 307 304 305 305 305 305 306 307 308 306 306 303 305 304 303 304 302 302 301 300 299 297 298 298 299 298 297 295 292 289 289 290 290 289 289 289 288 288 288 287 287
307 306 309 314 301 304 310 305 304 303 301 306 306 306 296 299 299 302 303 303 303 302 300 297 297 295 295 296 298 296 295 292 291 291 290 290 289 289 288 288 288 288 288 287
306 307 309 300 302 310 302 292 300 303 302 297 295 293 299 300 302 302 301 301 300 298 297 295 294 294 294 296 297 296 293 292 292 291 290 289 289 288 288 288 288 288 287 287
302 304 299 302 304 304 296 292 298 302 301 297 300 298 295 294 295 295 296 296 296 294 293 293 294 294 294 294 294 293 292 291 290 290 290 290 289 288 288 288 288 288 287 286
299 303 309 300 305 308 301 292 292 295 297 289 299 296 291 292 290 291 295 294 292 292 292 293 293 293 292 291 291 291 291 290 290 289 289 289 288 288 288 288 287 287 287 286
299 299 308 302 304 302 296 290 292 300 301 294 294 294 291 290 293 293 292 292 292 292 291 292 292 292 291 291 290 290 290 289 289 289 289 288 288 288 287 287 287 287 286 286
299 301 301 300 301 304 291 290 296 296 292 295 294 294 294 294 294 292 292 292 292 292 292 292 292 292 291 290 290 290 290 289 289 289 288 288 287 287 287 286 286 286 285 285
297 299 301 300 301 291 292 294 295 295 295 294 295 295 294 295 293 292 292 292 292 291 291 291 292 291 291 290 290 290 290 290 289 289 288 288 287 286 286 286 285 285 284 284
290 289 292 293 291 290 291 293 294 294 294 294 294 294 293 292 292 292 291 291 291 291 291 291 291 290 290 290 290 290 290 290 289 288 288 287 286 285 285 284 284 284 283 281
292 290 289 289 289 291 291 293 294 294 293 293 293 293 292 292 292 291 291 291 291 291 291 291 291 291 290 290 290 290 290 289 288 288 287 286 285 284 284 283 283 283 282 279
289 290 291 291 291 292 293 294 294 294 293 293 292 291 291 291 291 291 291 291 291 291 291 291 291 290 290 290 290 290 289 289 288 287 286 285 284 283 282 282 282 281 278 278

GFSCGP_850_thetae_042.txt.gz
Theta_e
312 316 317 318 317 316 316 316 318 315 312 314 317 317 315 309 307 307 305 304 302 302 303 305 307 308 311 317 320 322 322 322 321 321 321 321 321 320 319 316 315 316 316 316
312 316 317 313 313 313 313 316 317 314 311 313 315 315 316 309 309 308 305 303 302 301 302 304 306 308 310 312 313 314 314 316 316 317 315 314 314 313 310 309 309 309 309 309
317 316 311 312 311 313 314 315 316 316 312 311 313 316 316 308 305 304 303 302 301 301 301 303 304 306 307 308 308 307 307 306 306 306 306 306 306 306 305 305 304 304 304 304
313 311 310 311 313 313 315 312 312 312 314 319 312 322 316 312 308 304 302 301 301 300 302 303 303 303 304 304 304 304 304 304 303 303 302 303 303 303 302 302 301 301 300 300
316 311 312 314 314 311 316 311 312 312 314 314 314 317 319 308 310 307 303 302 301 300 300 301 301 302 303 302 302 302 302 302 301 301 300 300 300 299 298 297 296 295 295 294
314 309 312 314 309 311 308 310 310 310 313 318 318 317 320 314 312 310 304 302 300 299 299 299 300 301 301 300 300 300 300 300 299 299 298 298 298 297 296 295 295 295 294 294
314 313 309 308 312 308 311 315 320 320 318 321 309 314 319 314 308 308 305 302 300 298 299 299 299 300 299 299 299 299 299 298 298 298 298 297 297 297 297 296 296 295 294 293
320 321 312 309 315 315 311 317 321 324 320 319 308 315 315 308 304 303 305 302 300 298 298 298 299 300 299 298 298 298 298 298 298 298 298 297 296 296 295 294 293 292 292 291
318 319 308 307 307 313 312 313 313 311 304 317 316 313 311 305 304 302 303 301 299 298 298 298 299 300 299 298 298 298 298 297 296 296 296 295 294 293 293 292 291 291 290 289
316 319 309 307 308 307 311 311 314 314 321 323 316 315 319 309 308 303 302 301 300 299 298 298 298 299 298 298 298 297 296 295 295 294 294 293 292 291 291 290 290 289 289 288
311 314 312 308 310 313 310 311 311 313 316 324 322 317 312 312 310 305 304 302 301 299 299 299 299 299 299 298 298 296 294 293 293 293 292 291 291 290 290 289 289 289 288 288
313 313 316 312 308 306 311 313 313 318 314 311 314 319 306 307 307 306 305 302 301 300 300 299 300 300 299 299 298 296 294 293 291 291 291 291 290 290 289 289 288 288 288 288
312 315 320 316 310 307 309 309 311 313 313 318 320 319 305 304 304 304 304 302 301 300 300 299 300 300 300 300 298 297 295 293 292 290 290 290 289 289 289 289 288 288 288 288
312 315 319 323 319 314 312 311 310 312 317 317 316 317 308 307 306 304 302 302 301 300 300 300 299 300 300 300 300 298 296 294 292 290 290 289 289 289 289 289 288 288 288 288
312 317 316 316 313 312 313 313 311 312 314 317 317 314 311 309 307 306 305 303 301 300 300 300 300 299 299 300 299 298 297 295 293 290 289 289 289 289 289 289 289 288 288 288
309 316 315 315 312 309 311 312 311 311 312 313 314 313 311 308 307 305 304 302 301 302 301 301 301 301 302 301 300 299 297 297 293 291 289 289 289 289 289 289 289 288 288 288
311 314 313 318 315 309 310 311 311 311 311 312 313 313 306 305 305 305 304 302 303 302 302 302 302 300 298 298 298 298 298 296 295 292 289 289 289 289 289 289 289 288 288 288
309 311 311 313 308 313 310 300 309 309 308 306 304 304 305 305 304 304 305 305 303 303 303 301 300 297 296 294 294 295 296 296 294 292 290 289 289 289 289 289 288 288 288 288
304 309 305 310 311 312 300 298 304 307 309 304 306 302 298 298 299 300 302 302 302 303 302 301 297 294 293 293 294 294 296 295 294 292 292 291 290 290 289 289 288 288 287 287
299 304 311 304 313 316 309 297 294 301 307 301 303 301 296 295 303 304 300 298 297 296 296 294 293 293 293 294 294 295 295 294 292 291 291 290 289 289 289 288 288 287 287 287
303 304 309 307 310 309 303 294 294 307 311 297 301 301 295 298 301 298 296 296 295 293 292 292 292 292 293 293 292 292 291 291 290 290 290 289 289 289 288 288 287 286 286 286
305 307 307 306 309 310 294 292 301 301 295 298 297 300 298 297 295 294 294 292 292 292 292 292 292 292 292 292 291 291 290 290 290 290 289 289 289 289 288 287 286 286 286 285
305 305 306 307 307 293 293 295 296 296 297 296 296 296 295 294 293 293 292 292 292 292 292 292 292 292 291 291 291 290 290 290 290 290 290 289 289 288 288 287 286 285 285 285
294 292 297 301 294 292 292 295 295 296 297 295 295 295 294 294 294 292 292 292 292 292 292 291 291 291 291 291 290 290 290 290 290 290 289 289 288 288 287 286 285 285 285 284
295 293 293 292 291 291 292 293 295 294 294 294 294 294 294 294 293 292 292 292 292 291 291 291 291 291 291 291 290 290 290 290 290 289 289 288 287 287 286 285 285 284 283 282
291 292 294 296 293 295 295 297 295 294 294 293 293 293 293 293 293 292 292 292 291 291 291 291 291 291 291 291 290 289 289 290 289 289 288 288 286 286 285 284 283 283 282 282

GFSCGP_850_thetae_045.txt.gz
Theta_e
315 317 319 319 319 320 320 321 321 321 317 316 318 318 319 314 312 313 312 310 308 305 304 306 307 311 317 320 320 320 321 321 322 322 323 323 323 321 320 318 315 314 315 315
316 317 319 319 319 319 318 319 320 321 315 315 318 319 319 318 314 313 313 311 308 304 303 305 308 312 318 318 318 319 320 320 320 321 321 320 319 314 309 309 309 307 307 307
319 319 316 316 316 317 318 319 320 320 316 314 316 318 319 318 315 312 311 310 307 305 303 302 307 309 315 318 318 318 318 319 319 318 314 309 307 306 306 305 305 304 304 304
317 318 315 315 317 317 319 318 317 317 317 321 317 322 321 321 315 311 309 308 306 304 303 302 304 307 310 311 312 311 310 310 309 308 306 305 304 304 303 302 301 301 300 299
318 314 314 316 317 316 318 315 316 316 318 319 320 318 320 319 317 313 309 307 305 304 302 301 302 306 307 307 306 306 305 304 303 302 302 302 301 301 300 299 297 297 296 295
316 312 314 316 313 314 314 315 314 315 317 322 320 321 322 321 316 315 309 306 305 303 301 300 302 303 304 304 304 303 302 301 301 300 300 299 299 298 298 297 296 296 295 295
316 316 314 313 315 311 314 317 323 323 321 323 317 322 322 320 313 315 309 306 304 303 301 299 301 301 302 302 302 301 301 300 299 299 298 298 297 297 297 296 296 296 295 294
321 323 318 313 318 320 315 319 324 328 327 324 311 318 320 315 311 308 309 306 304 302 300 299 300 300 301 301 301 300 299 298 298 298 297 297 297 296 296 296 295 295 294 293
322 323 315 314 315 318 316 317 319 318 311 317 318 316 315 309 307 307 308 305 303 302 300 299 299 300 300 300 300 299 298 297 297 297 297 297 297 296 295 294 294 293 292 292
320 323 313 310 310 311 315 315 316 317 324 325 322 320 320 311 309 307 307 305 303 301 299 298 298 300 300 299 299 298 297 297 297 297 296 296 295 294 294 293 293 292 291 290
318 319 315 310 312 315 312 314 315 317 319 327 325 321 317 317 312 308 307 305 303 301 300 298 298 299 300 299 298 298 297 297 296 296 295 295 294 293 292 292 292 290 290 289
317 319 323 316 313 311 315 315 315 319 319 316 319 322 309 313 314 309 307 305 303 302 300 299 298 298 299 298 298 299 297 296 295 295 294 294 292 292 291 291 290 289 289 288
315 318 323 321 312 309 311 312 314 315 315 320 322 321 309 308 309 309 308 306 304 302 301 299 298 298 299 298 298 298 296 296 295 294 293 292 291 291 291 290 289 289 288 288
315 317 321 326 323 317 314 313 312 314 317 318 320 319 310 309 309 308 308 306 305 302 301 299 298 298 298 298 299 298 297 295 295 294 293 292 291 290 290 290 289 289 288 288
316 318 318 319 319 319 316 314 313 313 314 318 319 318 317 311 310 309 307 306 304 303 302 300 299 298 298 298 298 298 298 297 296 295 293 292 290 289 289 289 289 289 288 288
311 316 317 318 318 318 318 317 315 313 313 314 316 317 317 315 310 309 307 306 304 303 302 301 300 299 299 299 299 300 300 299 298 296 294 292 289 289 289 289 289 289 289 288
310 312 314 319 317 317 313 315 314 315 313 314 315 315 310 311 309 308 307 306 305 304 303 301 300 300 299 299 301 301 301 299 298 297 295 292 290 289 289 289 289 289 288 288
311 310 313 318 315 319 317 315 311 315 314 313 313 309 308 308 308 308 309 308 306 304 303 302 301 300 300 300 301 300 299 298 298 297 295 292 290 289 288 288 288 288 288 288
307 311 313 316 318 317 315 303 310 314 315 313 311 306 303 304 305 304 306 306 305 304 303 302 302 301 302 300 298 296 295 295 296 296 295 294 292 290 288 288 288 288 288 288
301 306 311 311 318 320 310 305 304 309 313 310 307 304 300 301 309 309 304 304 305 304 303 303 301 300 298 296 294 293 294 294 295 296 296 295 293 290 289 289 289 288 288 288
303 305 310 314 315 314 304 297 300 312 313 302 305 302 299 303 306 304 304 303 301 300 300 301 300 296 293 293 293 293 293 293 294 295 293 292 291 291 290 289 289 288 288 287
308 309 310 311 312 314 297 295 306 304 297 302 304 304 303 302 301 298 298 298 297 296 294 293 293 292 292 292 292 293 293 292 291 290 290 290 290 290 289 289 288 288 288 287
308 309 311 311 310 295 296 296 299 302 303 302 301 303 302 300 297 295 296 296 294 293 293 293 293 292 292 292 292 292 292 291 290 290 290 290 290 289 288 288 288 288 287 286
298 296 304 304 297 296 294 298 301 302 299 298 298 298 300 299 295 294 293 293 293 293 293 292 292 292 292 291 291 291 291 290 290 290 290 290 289 289 289 288 288 287 287 287
297 296 298 295 292 293 295 298 299 301 301 297 295 295 295 295 294 294 293 293 293 293 292 292 292 292 291 291 291 291 291 290 290 290 290 290 289 289 289 288 287 287 286 286
293 295 297 300 294 298 297 300 300 300 296 295 294 294 294 294 294 294 293 292 292 292 292 292 291 291 291 291 291 291 291 290 289 289 289 289 289 288 288 287 287 286 285 285

GFSCGP_850_thetae_048.txt.gz
Theta_e
315 315 316 316 316 317 318 318 318 320 315 316 315 315 315 313 312 313 313 312 310 308 306 306 307 310 313 317 318 319 319 321 322 323 324 323 323 322 322 320 317 314 314 314
315 316 316 318 318 318 317 317 317 318 314 314 315 315 316 314 312 312 313 313 310 307 306 305 307 313 315 316 318 319 319 320 320 321 321 322 322 320 317 312 311 308 308 307
317 318 317 316 318 318 317 318 317 318 315 314 313 314 315 315 316 313 313 313 311 308 305 304 307 313 314 316 317 318 318 319 320 321 321 321 318 310 308 307 306 305 304 303
316 317 316 317 317 316 317 317 317 317 317 317 314 318 318 317 316 313 314 313 310 307 305 304 307 312 315 315 316 316 317 319 319 319 316 311 307 306 304 304 302 301 300 299
317 315 314 316 316 316 317 315 316 316 315 316 316 317 318 317 318 313 310 311 309 306 305 304 306 309 315 317 317 317 317 317 314 310 307 305 304 303 302 300 299 297 297 297
315 313 314 315 312 314 313 314 315 315 316 317 317 319 319 319 317 316 311 309 308 305 304 303 303 307 311 312 312 311 311 309 306 304 303 302 302 301 299 298 297 297 296 296
314 314 314 313 313 312 314 316 320 320 318 319 316 318 319 317 315 314 311 309 307 305 303 301 302 306 308 309 308 307 305 303 302 301 301 300 299 299 298 297 297 296 296 295
317 318 315 312 315 316 313 316 319 321 322 319 310 315 316 310 310 312 312 308 306 304 302 301 303 306 306 305 305 304 302 302 301 300 300 299 298 298 297 297 296 296 295 295
319 320 314 312 314 316 314 315 317 317 306 312 316 314 314 308 307 308 308 306 305 303 301 301 302 303 304 304 303 302 301 300 299 299 299 298 298 297 297 296 296 295 295 294
320 323 314 308 311 312 314 313 315 315 316 319 319 318 317 311 308 306 306 306 304 303 301 300 301 302 302 302 301 300 299 299 299 298 298 297 297 297 296 296 295 294 293 293
317 319 312 309 311 314 312 313 314 315 316 318 319 319 315 315 310 306 307 306 304 303 301 301 301 301 302 301 300 300 299 298 298 298 297 297 297 296 295 294 294 293 292 291
316 318 314 312 312 311 313 314 314 317 317 315 315 320 309 311 310 307 307 306 304 303 301 301 300 300 301 300 299 299 298 298 297 297 297 296 296 295 294 293 292 292 291 290
315 316 318 319 312 309 311 311 314 315 313 318 317 319 307 307 309 308 307 306 304 302 301 300 299 299 301 300 299 299 298 298 297 296 296 295 295 294 294 293 292 291 290 290
316 317 318 323 320 314 311 311 312 314 315 315 317 317 310 308 307 307 307 306 304 302 301 300 299 300 299 300 299 298 298 297 296 296 295 295 295 295 293 292 291 291 290 289
315 318 316 318 318 316 312 312 311 312 314 316 317 316 315 313 307 307 308 307 305 303 302 301 300 300 299 299 299 298 297 297 296 296 296 296 295 293 292 291 290 290 289 289
312 317 316 318 315 317 318 316 311 311 312 314 314 315 314 315 311 308 308 306 305 303 302 302 301 300 299 299 298 298 298 298 297 296 297 296 295 293 291 291 290 290 289 289
312 313 313 319 315 316 318 317 317 316 311 312 313 313 311 311 306 308 307 306 305 304 303 303 302 301 300 299 298 298 298 297 298 299 298 297 295 293 292 291 290 289 289 289
310 311 313 317 316 320 316 313 314 316 316 313 311 308 307 310 312 311 309 308 307 306 305 303 302 301 301 300 299 298 297 298 300 300 299 297 295 294 292 291 289 289 289 288
310 310 315 318 320 317 315 305 308 312 314 313 314 312 305 308 308 306 307 307 307 307 306 305 306 304 301 300 299 299 299 299 299 299 298 297 295 294 293 291 290 288 288 288
303 309 313 312 318 321 306 301 304 308 312 307 310 309 301 303 307 305 307 307 307 307 308 309 307 303 301 301 300 299 299 299 298 297 295 295 295 294 294 292 290 288 288 288
304 306 311 314 316 313 300 297 302 310 309 301 307 304 301 304 307 310 310 309 310 309 308 306 303 303 302 301 300 299 297 295 294 293 294 295 295 295 294 292 290 289 288 288
307 308 308 310 313 315 298 298 307 302 298 304 305 303 302 304 306 306 307 306 306 304 302 301 301 299 298 296 294 293 293 293 293 293 294 294 293 292 291 291 290 290 289 288
309 307 310 309 310 295 296 296 298 300 300 303 304 304 303 302 301 300 301 302 301 299 299 299 298 294 293 292 292 292 292 292 293 293 291 290 290 290 290 290 289 289 288 288
298 297 304 304 299 296 295 297 301 302 302 297 298 301 303 302 300 298 297 297 296 295 294 293 292 293 293 292 292 291 291 292 292 291 290 290 290 290 289 289 289 289 288 288
297 298 298 295 293 295 296 298 300 300 299 300 299 296 298 300 297 295 295 295 294 293 292 293 293 293 292 292 291 291 291 291 291 290 290 290 290 289 289 289 289 288 288 287
293 296 299 301 295 299 300 303 304 300 299 300 297 295 295 295 294 294 294 293 293 293 293 293 292 292 292 291 291 291 291 291 290 290 289 289 289 289 288 288 288 288 287 286

GFSCGP_850_thetae_051.txt.gz
Theta_e
314 311 312 311 311 313 315 316 316 315 314 313 312 312 311 312 311 311 312 311 311 311 310 309 309 309 310 311 313 315 317 319 321 322 323 323 323 323 321 322 321 319 315 314
313 313 313 313 312 313 314 314 314 314 313 312 312 312 311 311 311 311 312 312 312 310 308 308 308 308 311 312 315 317 319 319 321 321 322 322 321 321 322 320 317 314 313 310
314 315 315 314 315 316 315 315 314 315 314 312 312 312 312 312 312 313 312 312 312 311 310 308 307 309 313 314 316 317 319 319 320 321 321 320 320 321 319 314 310 308 305 304
314 315 315 314 315 315 315 314 315 315 316 315 312 317 314 313 312 310 312 311 312 310 309 309 308 310 313 315 317 317 318 317 318 319 319 321 320 318 311 307 305 303 301 299
314 314 314 315 314 313 315 314 315 315 314 314 314 313 314 313 315 315 312 311 312 311 309 309 308 308 313 315 315 316 316 316 318 319 319 320 317 309 305 304 301 299 297 297
313 313 312 313 311 313 311 313 313 312 313 315 315 315 316 316 316 315 313 311 311 310 308 308 307 308 313 313 313 313 316 317 318 319 317 313 307 305 303 300 298 297 297 297
313 313 313 312 312 312 313 313 316 317 315 319 314 314 318 315 313 313 311 309 308 308 307 306 306 307 312 313 313 314 316 317 317 313 308 305 304 302 301 299 298 298 297 296
316 315 313 311 313 313 312 314 316 318 318 317 310 315 316 312 313 311 313 314 309 307 306 306 306 306 309 314 315 315 315 314 310 306 303 302 301 300 298 298 297 297 296 295
315 315 312 310 313 314 312 315 315 317 301 310 315 313 312 309 308 308 309 308 306 305 305 305 305 305 307 310 312 311 311 308 305 302 301 300 299 298 298 297 297 296 295 295
316 320 311 309 312 312 312 311 315 313 314 314 316 315 318 313 310 306 305 305 304 304 304 304 304 304 306 308 309 307 306 304 301 301 300 299 298 297 297 297 296 296 295 295
314 319 312 309 311 313 312 313 313 314 312 314 315 318 312 314 311 306 306 306 305 304 304 304 303 303 305 305 305 304 302 301 300 299 298 298 297 297 297 296 296 295 295 294
313 317 311 311 309 308 312 313 312 316 314 312 313 320 308 310 310 308 307 306 306 305 304 304 303 302 302 302 302 302 301 300 299 298 298 297 297 297 296 296 295 294 294 293
314 316 316 314 311 309 311 312 314 314 310 317 315 320 306 308 309 309 307 307 306 304 303 303 302 302 302 301 301 300 299 299 298 298 297 297 297 296 296 295 294 294 293 292
315 315 318 320 319 313 311 310 312 315 316 316 317 318 312 309 308 306 307 307 306 304 304 302 302 302 301 300 300 299 299 298 298 297 297 297 297 296 295 294 294 293 292 291
315 317 314 317 315 313 311 311 312 314 315 317 318 317 316 311 307 308 309 307 305 304 303 303 302 302 301 300 300 298 298 298 297 297 296 297 296 295 294 293 293 292 292 291
312 316 315 317 314 314 316 312 310 312 313 314 315 316 313 314 314 309 311 308 306 305 305 303 302 301 301 301 300 299 298 297 297 296 297 296 295 294 294 293 292 291 291 290
313 314 315 320 314 315 318 317 317 316 312 312 313 314 310 310 309 308 309 308 308 308 307 304 303 302 302 302 300 300 299 297 296 296 297 296 295 294 294 293 291 291 290 290
311 314 314 319 315 319 316 313 315 317 316 314 311 310 307 310 312 313 313 312 310 309 307 305 304 303 303 301 300 299 298 298 297 296 296 295 295 293 293 292 291 292 290 289
313 312 316 318 319 316 315 307 311 314 316 315 315 313 312 310 310 308 312 310 310 310 308 307 306 306 304 303 302 301 300 299 297 296 296 296 295 294 294 294 296 291 289 289
306 312 314 313 319 321 311 303 303 309 316 309 312 313 313 305 309 311 310 309 308 307 307 306 305 304 304 304 304 302 300 299 297 296 297 297 297 297 298 294 293 291 290 289
308 310 313 315 318 312 302 297 302 313 311 298 304 306 303 306 310 311 310 307 307 306 306 307 306 306 309 307 305 302 300 299 299 297 298 298 297 295 295 294 293 292 290 289
309 309 310 311 314 315 302 300 308 304 299 303 303 304 303 305 308 307 306 307 307 308 307 306 305 306 305 302 300 300 299 299 298 298 297 295 294 294 294 294 293 291 290 289
309 307 308 310 311 297 297 299 300 300 303 303 304 304 304 304 305 306 306 305 306 305 306 304 302 301 301 300 299 299 296 294 294 293 293 293 294 294 294 293 292 291 290 289
300 298 307 306 302 297 295 297 299 300 300 299 300 303 302 302 302 302 303 302 302 302 301 301 300 300 297 293 292 292 292 292 292 292 292 292 292 291 290 290 290 290 289 289
300 299 301 299 295 296 298 296 299 300 297 297 298 298 301 302 300 300 299 299 299 298 297 297 295 293 292 292 292 291 291 291 291 291 291 291 290 290 290 289 289 289 289 288
294 298 302 304 299 302 302 301 300 301 298 302 299 296 296 298 299 296 296 296 295 294 293 292 292 292 292 292 292 291 291 291 290 290 290 290 290 289 289 289 288 288 288 287

GFSCGP_850_thetae_054.txt.gz
Theta_e
313 311 311 311 309 312 313 313 315 314 314 312 311 311 311 311 310 310 311 312 311 312 311 310 310 310 310 311 311 312 312 313 315 321 322 323 323 323 322 321 321 321 320 319
311 311 311 311 311 311 312 313 312 312 312 311 312 310 310 309 310 312 312 312 313 312 311 310 310 310 310 311 311 313 313 317 321 321 321 322 322 321 321 320 321 320 317 314
313 314 313 313 313 313 312 312 312 314 313 311 311 310 310 310 311 313 313 314 314 314 312 310 309 309 309 311 312 313 315 317 318 320 321 321 320 320 319 320 320 315 313 309
312 313 314 313 313 313 314 312 314 314 315 315 311 316 313 311 310 309 312 312 313 312 310 311 310 309 310 311 313 315 317 318 318 319 320 320 320 320 319 320 316 312 306 303
314 313 313 314 314 313 314 313 313 314 313 313 313 313 313 312 312 312 313 314 313 312 312 311 310 311 310 311 313 316 317 317 318 318 319 319 319 320 319 315 310 304 301 299
312 312 312 313 312 312 311 312 311 310 311 314 314 313 315 314 314 314 313 315 315 314 312 310 310 309 309 312 314 316 316 316 317 317 318 318 319 319 316 308 304 300 298 297
312 312 312 311 312 311 312 313 315 316 314 317 312 312 317 314 313 312 314 316 315 314 311 308 308 308 309 312 315 315 315 314 314 315 315 316 318 318 310 304 301 298 297 297
315 315 312 310 313 314 312 313 314 315 316 314 310 315 315 311 313 315 315 313 312 310 309 308 308 308 308 311 314 313 313 313 313 314 316 316 314 310 304 302 299 298 297 297
314 314 310 309 311 313 311 314 313 316 298 309 314 313 312 309 308 309 312 309 309 310 308 307 307 307 308 310 313 311 311 312 314 316 314 312 306 304 302 299 297 297 296 296
313 315 309 309 312 311 311 310 314 311 313 313 315 314 317 313 310 309 307 306 308 307 306 305 306 307 307 308 312 312 311 313 314 314 310 305 302 301 298 297 297 296 296 296
312 315 312 310 311 312 311 312 312 312 311 313 312 317 310 314 311 310 308 310 309 308 307 307 306 306 306 306 310 312 313 313 313 309 305 302 301 298 297 297 296 296 296 295
311 315 311 311 309 308 311 313 311 313 313 311 312 319 309 310 310 310 311 312 310 309 308 307 306 306 305 304 306 310 311 310 310 306 302 300 299 297 296 296 296 296 295 295
312 314 312 313 311 309 310 311 313 312 310 314 315 320 306 306 310 311 311 312 308 307 307 306 305 304 304 304 305 307 308 307 305 301 300 298 297 296 296 296 296 296 295 295
313 314 314 318 317 311 311 310 311 315 317 316 317 318 313 311 310 309 311 311 309 307 307 306 305 304 304 303 303 305 305 303 301 299 298 297 297 296 296 296 296 295 295 294
314 317 314 315 315 312 311 311 312 314 315 318 319 317 317 313 309 311 313 310 308 306 306 306 306 304 303 303 302 304 304 302 299 298 297 297 296 296 296 295 295 294 294 293
312 317 316 317 315 312 313 310 311 313 314 315 316 317 313 315 314 310 313 311 308 309 311 309 306 305 305 304 303 302 302 301 299 297 297 295 295 295 295 294 294 293 292 291
314 316 315 320 316 313 316 316 312 311 312 313 315 315 312 312 310 311 313 312 312 313 313 312 310 307 305 305 304 302 301 300 297 296 295 295 294 294 294 294 293 293 292 291
311 316 316 319 315 320 317 315 316 316 314 311 311 312 310 312 313 312 313 313 313 314 313 313 311 308 306 304 303 302 300 299 297 296 295 294 294 294 294 293 292 292 291 290
313 313 315 318 320 317 314 307 312 315 316 315 315 314 314 313 310 310 311 312 312 313 313 313 312 308 305 303 302 300 300 299 297 296 296 295 294 293 293 293 292 291 291 291
313 315 313 314 319 321 314 306 308 310 317 311 312 313 313 309 311 314 314 313 313 312 312 311 308 306 305 303 302 301 299 299 299 298 296 295 294 296 293 292 292 294 293 296
310 314 315 316 318 314 304 297 307 317 313 298 305 307 309 307 312 310 311 312 311 310 308 307 306 305 305 303 302 301 300 300 300 299 299 298 296 295 293 292 294 295 297 293
310 311 312 313 316 317 303 301 309 306 299 303 304 305 305 307 308 308 309 309 307 306 305 305 305 304 304 304 304 304 306 307 306 302 300 298 295 294 295 295 296 292 291 290
311 310 309 310 312 301 300 301 302 301 304 302 304 304 304 305 306 305 305 305 305 305 306 306 305 304 303 303 302 303 302 300 298 297 296 295 294 294 294 293 293 292 291 290
301 300 306 307 304 300 298 298 299 300 303 302 303 303 303 303 304 305 305 305 306 306 306 305 304 303 302 301 300 299 298 298 297 296 295 295 294 294 293 293 293 293 292 292
300 301 303 304 300 298 301 299 299 299 299 298 298 302 302 302 301 301 303 303 303 303 302 301 301 300 299 296 294 293 293 292 292 292 292 293 293 292 293 293 292 291 291 290
296 301 306 306 301 304 303 306 299 299 298 299 298 297 299 300 301 299 299 299 299 299 299 298 295 293 292 292 292 292 291 291 291 291 291 291 291 291 291 290 290 289 289 289

GFSCGP_850_thetae_057.txt.gz
Theta_e
312 310 311 311 308 311 311 311 313 313 313 312 310 310 311 311 310 309 311 312 312 313 314 312 312 311 310 311 311 311 312 312 312 318 322 322 323 324 323 322 320 321 322 321
310 310 310 310 310 310 312 313 312 311 310 310 311 310 309 309 309 311 313 313 313 314 314 313 311 311 310 310 311 311 312 312 313 320 322 321 322 322 322 321 320 320 321 320
312 313 311 311 311 312 311 311 311 313 312 309 310 310 309 310 310 311 313 314 314 315 315 314 312 311 310 311 311 311 312 312 315 322 321 320 321 321 321 320 320 319 319 317
311 312 313 312 312 311 313 310 311 312 314 314 311 315 313 310 309 308 312 314 316 315 314 313 313 311 311 311 310 311 312 313 313 316 319 320 320 320 320 319 318 318 316 313
312 312 312 313 312 311 313 311 311 313 312 313 312 312 314 311 311 311 312 315 317 317 316 315 314 313 312 310 310 311 313 314 314 317 318 318 319 319 318 318 317 316 312 307
310 312 311 312 311 311 310 311 310 309 310 313 314 312 315 312 313 312 313 315 315 316 316 314 311 311 310 309 309 311 313 315 316 317 318 318 318 318 318 317 316 313 307 302
311 311 311 311 312 310 312 313 314 313 312 316 309 311 315 311 311 310 312 317 317 315 315 314 312 310 309 309 309 312 313 315 317 316 317 317 318 318 318 318 316 310 303 299
312 312 311 309 314 313 312 312 314 313 313 312 310 314 314 309 312 313 314 315 314 314 315 315 313 310 309 308 309 312 314 315 316 315 316 317 318 317 317 318 316 306 302 298
312 312 310 309 310 312 311 313 312 314 297 308 312 311 310 309 308 310 312 312 311 313 314 314 312 309 308 308 309 311 314 315 315 314 315 315 316 316 316 315 309 302 298 297
312 313 310 309 311 310 311 310 313 310 312 311 313 313 315 314 312 309 309 311 312 312 313 313 310 309 307 307 309 311 314 315 314 312 313 313 314 315 314 310 303 298 297 296
311 312 310 309 310 311 311 311 311 311 310 311 311 315 309 313 311 312 309 314 314 314 313 313 310 308 307 307 308 311 313 313 312 311 311 312 314 314 310 304 299 296 296 296
310 313 310 310 308 307 310 311 311 312 310 309 310 316 310 309 309 310 313 315 314 313 312 311 310 308 307 306 307 309 311 312 311 310 311 312 313 311 305 300 296 296 296 295
311 313 309 312 311 307 309 310 312 311 308 312 313 317 305 307 307 310 312 313 313 313 312 311 309 308 307 306 306 307 309 311 310 309 310 311 308 304 300 297 295 295 295 295
313 314 312 317 315 311 310 310 310 313 315 315 316 317 314 312 308 309 313 313 313 314 313 310 310 309 308 307 306 305 306 309 311 310 311 310 306 302 299 296 295 295 294 294
314 314 314 315 311 311 310 310 311 313 314 315 316 315 316 314 309 312 316 316 312 313 313 311 309 310 309 307 306 305 304 306 310 310 309 308 304 300 298 295 294 294 294 293
313 315 313 315 313 312 313 310 310 312 313 314 314 315 314 314 313 311 314 315 312 313 314 314 312 309 309 308 307 305 304 304 306 308 306 305 302 298 296 294 294 293 293 293
313 314 316 319 315 315 316 314 314 312 312 313 315 315 312 313 310 312 314 313 313 315 315 315 314 313 311 309 308 307 305 303 304 305 303 302 299 297 295 294 293 293 293 292
312 314 315 319 316 319 316 314 314 314 313 311 313 313 312 312 314 314 314 312 314 314 314 315 315 314 313 310 307 306 304 303 302 303 302 299 297 296 294 293 293 292 292 291
314 314 317 319 319 318 315 311 312 314 316 314 311 312 312 312 311 312 312 313 313 313 313 313 313 313 312 311 308 304 303 302 300 301 300 298 297 295 294 293 293 292 291 292
311 315 314 313 319 320 315 309 310 311 318 314 313 313 313 312 312 314 314 315 314 314 313 312 312 312 311 309 306 303 302 300 299 299 299 298 297 295 294 293 292 291 291 296
308 313 316 316 317 315 305 298 310 317 314 301 310 313 312 309 312 312 311 312 312 312 311 310 309 308 307 305 303 301 300 299 299 298 297 296 295 294 294 292 291 290 297 290
311 313 315 315 317 318 302 303 312 307 302 304 305 306 307 309 310 310 310 311 310 309 308 307 305 304 303 302 301 300 300 299 298 297 296 295 294 292 291 290 291 296 292 291
310 309 309 311 312 308 304 306 307 304 303 304 303 304 305 305 305 306 306 306 306 305 305 304 304 303 302 301 301 300 300 299 299 300 300 300 300 298 297 297 295 292 290 290
301 301 305 307 305 303 301 301 301 301 302 303 303 303 303 303 305 305 305 304 304 305 305 305 303 302 302 301 300 298 299 299 300 299 297 296 295 294 293 293 292 292 293 292
298 299 301 303 303 302 304 302 300 300 301 301 301 302 302 302 303 304 304 304 304 304 304 303 302 302 302 301 300 299 298 298 298 297 296 296 295 294 293 292 292 292 291 290
297 301 305 305 300 303 303 305 301 302 300 299 300 298 300 301 301 301 302 302 302 302 302 301 301 301 300 299 297 295 293 292 292 292 292 292 292 293 292 292 292 292 292 291

GFSCGP_850_thetae_060.txt.gz
Theta_e
311 309 310 310 308 310 309 310 312 311 311 311 310 309 309 312 310 310 313 314 315 314 317 314 313 312 312 312 312 312 311 312 312 312 314 320 322 322 324 324 325 323 323 326
309 310 309 309 308 310 311 312 311 309 310 310 310 310 309 309 310 312 313 314 315 316 317 316 314 313 312 312 311 311 311 311 312 312 314 318 322 322 322 323 323 324 322 322
310 312 309 310 310 311 310 310 310 312 311 308 309 309 308 309 310 313 314 314 315 316 317 317 316 315 313 312 312 311 310 311 312 312 314 318 321 321 322 323 322 320 318 320
310 310 311 310 311 311 311 309 310 311 313 312 310 313 311 310 309 307 312 314 316 316 316 316 316 315 314 314 313 311 310 310 312 312 314 318 320 321 321 321 321 319 319 319
311 310 311 312 311 309 312 309 309 311 311 311 310 313 313 310 311 311 311 315 316 317 317 317 316 316 315 313 312 310 309 310 311 312 313 318 320 320 320 320 319 319 318 317
310 310 310 311 310 310 308 310 309 308 309 313 310 311 312 310 312 311 312 315 316 316 315 315 314 314 313 312 311 310 309 310 311 313 316 320 320 318 320 319 319 318 317 316
311 311 310 311 311 310 311 312 313 311 311 314 309 311 314 310 309 309 311 316 316 315 316 316 316 315 314 312 310 309 308 310 312 313 315 315 319 319 319 318 317 317 317 313
311 311 310 309 312 312 311 312 312 309 310 310 308 313 312 309 310 312 314 315 313 314 314 315 316 316 315 312 310 309 308 309 311 313 314 315 316 317 317 318 317 317 316 313
309 309 309 308 310 311 310 313 311 312 296 307 310 308 309 308 308 309 312 312 313 314 315 316 315 315 313 312 310 308 308 309 311 313 315 315 316 316 317 316 317 317 316 310
310 311 309 309 310 309 310 309 312 309 311 309 311 311 312 312 312 309 308 311 314 315 316 316 316 315 313 311 309 307 307 309 311 313 315 316 315 316 316 316 316 316 313 305
309 310 310 309 309 310 310 311 310 310 309 309 309 314 307 310 310 311 309 314 314 315 316 315 315 314 313 310 309 308 307 309 310 312 315 315 314 315 316 315 315 314 308 300
309 311 310 309 308 306 309 310 310 311 309 307 309 315 309 308 308 309 312 313 314 315 315 314 314 314 312 310 308 307 307 309 310 313 315 312 313 313 314 314 313 310 303 297
310 312 307 312 310 307 309 309 310 309 307 310 312 315 306 307 309 311 311 314 314 314 314 314 315 314 312 311 309 308 307 308 310 313 314 311 310 311 313 313 312 307 298 295
313 313 314 317 314 309 310 308 309 312 314 314 312 315 313 312 310 309 312 314 314 314 314 315 317 315 313 312 310 308 307 308 310 312 312 310 310 310 311 312 311 304 297 294
314 314 314 313 312 310 310 310 310 312 313 313 315 313 314 312 309 312 316 314 314 315 313 316 317 316 313 312 311 308 307 307 308 310 311 310 309 309 310 310 306 299 295 293
313 314 313 314 313 313 313 310 310 311 312 313 313 314 313 313 314 311 313 316 314 315 315 315 316 315 315 314 312 310 308 306 306 307 308 310 308 309 309 306 302 297 293 293
313 314 314 318 313 312 314 313 313 311 311 312 313 313 313 312 309 313 313 314 314 315 316 316 315 315 315 315 313 312 310 307 305 305 306 308 309 309 308 304 299 295 293 292
311 313 315 318 313 319 315 313 314 314 313 311 311 312 313 313 313 313 314 313 313 314 314 314 314 314 314 314 313 310 309 307 305 303 304 306 307 308 306 303 299 295 292 292
308 310 315 318 319 316 313 310 311 313 315 313 313 312 312 313 310 311 313 313 313 313 313 313 313 312 312 312 311 309 308 306 304 303 302 303 304 305 304 302 298 294 292 291
308 309 312 313 319 318 313 307 309 310 317 312 311 312 312 310 310 312 312 313 314 314 314 313 313 311 310 309 309 307 306 304 303 301 300 300 301 302 301 299 296 294 292 291
309 309 312 316 318 316 304 299 310 316 313 303 307 311 310 307 312 312 310 312 313 312 313 312 311 310 309 308 307 305 303 302 301 299 298 298 298 298 297 295 294 293 292 291
311 313 314 314 316 318 303 304 311 307 304 304 306 308 308 307 308 310 310 309 310 309 309 308 308 307 306 304 303 302 301 299 298 296 295 295 295 295 295 294 293 292 291 291
307 310 311 312 312 308 305 307 310 310 312 309 307 308 307 306 306 306 307 306 306 306 305 305 304 304 303 301 300 299 298 298 297 295 294 294 293 293 292 292 291 291 291 291
302 302 305 305 305 305 306 305 304 306 305 304 302 303 304 304 304 305 305 305 304 304 304 304 303 302 302 300 299 297 298 298 298 298 298 300 299 297 295 294 293 291 291 291
302 301 302 303 302 303 307 307 306 305 304 302 302 303 302 303 302 303 303 303 304 304 303 302 302 302 301 300 298 298 298 300 301 300 299 298 297 297 297 296 296 295 295 294
298 301 303 304 303 303 303 304 306 303 300 301 300 299 300 300 300 299 300 301 301 302 302 301 300 301 300 298 298 298 298 297 297 296 295 295 294 293 293 292 292 291 291 290

GFSCGP_850_thetae_063.txt.gz
Theta_e
310 309 310 310 308 309 308 310 311 309 309 311 310 309 310 312 311 311 314 315 316 317 318 317 314 314 314 313 313 313 312 312 312 312 312 312 312 320 320 320 326 324 326 324
308 309 309 308 307 310 310 311 311 309 308 310 310 310 310 309 312 314 314 315 316 316 318 318 317 315 314 314 313 313 312 311 311 311 312 312 315 317 319 324 325 327 323 325
309 310 308 309 308 309 309 310 310 311 310 308 308 309 308 308 309 311 314 315 315 316 317 317 318 317 315 314 314 313 313 312 311 311 311 312 318 319 324 322 323 322 324 322
309 309 309 309 310 309 311 307 309 311 312 311 309 311 310 308 309 307 312 314 315 316 316 317 317 316 316 316 315 313 312 312 311 310 310 311 313 316 317 321 322 322 323 322
310 309 310 311 310 308 310 307 308 310 310 310 310 312 311 309 310 310 311 314 315 316 316 316 316 316 315 314 314 314 312 311 310 310 310 311 313 316 318 320 321 322 321 320
309 309 309 310 309 309 307 309 308 306 308 312 310 311 312 309 311 310 310 314 315 315 315 315 315 316 315 314 313 312 312 311 310 309 310 311 312 318 318 320 321 320 320 319
310 310 309 310 310 309 310 311 311 310 311 315 307 310 313 309 308 309 310 315 315 315 314 315 317 317 317 315 314 313 311 310 310 309 310 311 312 317 317 319 320 320 318 318
310 310 310 308 310 311 309 311 311 309 308 308 308 312 311 308 310 311 312 313 313 312 313 314 316 316 316 315 314 312 311 309 309 309 309 311 311 314 317 319 319 319 318 318
308 309 308 308 309 310 310 312 310 310 295 307 308 307 307 306 307 308 312 312 312 314 315 316 317 317 317 316 315 314 312 309 308 308 310 311 312 317 317 318 319 318 317 317
308 310 308 308 310 309 309 308 312 308 309 308 309 309 311 312 311 309 307 311 314 314 315 317 317 317 316 315 314 312 310 309 308 308 310 310 311 314 315 317 318 317 316 316
308 309 309 308 309 309 310 310 309 309 308 309 308 312 306 309 309 308 308 312 314 314 317 317 317 317 317 315 313 312 311 309 308 307 309 310 310 314 315 316 316 316 316 315
308 310 309 309 307 305 307 309 309 310 308 306 307 314 307 308 309 309 309 312 314 315 316 316 316 316 315 315 314 313 311 310 308 307 309 310 310 313 315 315 315 315 314 314
309 311 306 311 310 307 307 307 309 307 307 309 312 315 305 306 308 310 310 312 313 314 315 315 315 315 315 317 314 313 312 310 308 307 309 310 309 313 315 314 314 314 313 311
311 312 312 317 312 309 309 307 308 311 310 313 311 314 312 311 311 309 312 313 314 315 314 313 314 315 316 317 315 314 313 311 308 307 309 309 309 313 313 312 313 314 313 310
314 316 313 313 312 310 310 309 310 311 312 313 314 312 313 311 309 312 314 314 313 314 313 315 316 316 316 316 315 314 313 311 310 308 308 309 309 313 311 310 311 312 311 309
312 316 314 315 313 314 314 310 308 310 312 312 312 313 313 313 312 311 313 314 314 314 315 316 316 316 316 315 316 314 313 312 309 308 308 309 310 312 311 309 309 310 310 308
310 314 314 317 314 314 315 314 314 313 310 312 312 312 312 311 309 311 312 313 314 315 315 315 315 315 315 315 315 315 314 311 309 307 307 308 309 311 310 309 308 309 309 307
308 308 310 317 314 317 315 313 313 314 313 312 312 313 313 312 312 312 313 312 313 313 313 314 314 314 313 314 313 313 312 310 309 306 306 306 307 309 309 308 307 308 307 305
308 308 311 315 317 316 313 309 310 312 314 312 312 312 312 312 311 311 312 312 313 313 312 312 312 312 313 313 312 311 309 308 307 307 305 304 304 305 306 307 307 307 304 300
308 309 311 313 314 315 312 309 309 309 316 311 311 311 311 310 310 312 312 312 312 313 313 313 313 313 312 312 312 310 309 306 305 305 304 302 302 302 303 305 306 304 300 295
306 309 311 314 315 314 309 303 307 315 312 304 308 310 310 307 311 312 311 311 312 312 312 312 312 312 310 310 309 308 307 306 304 302 300 299 298 299 300 301 301 300 296 293
309 310 311 312 313 313 308 305 313 311 307 308 309 310 309 310 310 310 310 309 310 310 310 309 309 308 308 307 305 304 303 301 299 298 297 296 295 296 296 296 296 296 294 293
304 305 306 311 311 308 308 310 310 310 302 304 306 307 306 304 304 305 306 305 305 306 306 305 304 304 304 303 301 300 299 298 297 296 295 295 294 294 294 294 293 292 292 291
301 301 302 303 301 302 305 307 306 307 309 307 304 304 304 303 302 302 303 304 304 303 302 301 301 301 300 299 298 297 298 297 296 295 294 293 293 292 292 292 292 293 294 293
297 300 299 301 303 303 304 304 303 306 305 305 302 300 302 302 301 301 303 302 302 302 301 300 299 299 298 297 297 296 297 300 300 299 299 298 297 296 295 294 294 293 293 293
297 300 303 304 301 302 303 301 301 303 304 303 300 298 299 299 298 299 300 301 300 299 298 297 297 297 297 296 297 298 299 298 299 298 298 297 297 297 296 296 295 294 292 292

GFSCGP_850_thetae_066.txt.gz
Theta_e
311 316 317 317 316 314 314 315 315 315 313 315 316 317 317 316 315 315 315 315 316 316 318 317 316 315 314 314 315 315 315 314 314 314 313 312 312 311 311 316 328 323 325 325
314 315 316 313 312 313 314 316 316 316 312 313 316 316 316 316 316 316 316 316 316 316 316 318 318 317 315 314 314 314 314 314 313 313 313 312 312 312 312 314 324 323 325 324
315 314 312 313 312 314 315 316 315 315 313 312 313 316 317 316 314 314 314 315 315 316 316 315 315 316 317 316 315 314 314 313 313 312 311 311 311 311 312 316 322 321 321 328
314 312 312 312 313 314 315 313 314 314 315 316 313 314 316 316 315 314 315 316 316 315 315 315 314 315 316 317 316 315 313 313 313 312 311 311 311 312 312 317 316 319 325 326
314 312 313 314 314 313 315 312 313 313 316 315 315 315 315 313 315 316 316 316 316 315 315 315 315 315 315 315 315 315 314 313 313 311 311 311 310 311 312 316 317 322 326 325
312 309 312 313 310 312 310 313 313 313 315 317 315 315 315 316 315 316 315 315 315 314 315 315 315 315 315 315 315 314 313 313 312 312 311 310 310 310 311 315 318 322 323 323
312 313 311 310 313 311 313 316 316 317 318 318 312 315 315 315 314 314 315 315 314 313 314 315 315 316 316 316 315 315 314 313 312 311 310 310 309 310 311 313 317 317 323 322
313 313 313 312 314 315 314 315 316 322 317 315 310 315 316 315 313 313 313 314 313 313 313 314 315 315 317 317 316 315 314 313 312 310 309 309 309 310 311 311 317 319 321 322
312 312 310 309 311 313 313 314 314 314 307 314 314 315 315 313 312 312 312 313 314 313 314 315 316 318 318 317 316 315 315 314 312 311 309 308 308 309 311 310 318 318 319 321
312 312 310 309 310 310 312 313 315 314 320 318 315 314 316 316 317 315 314 314 313 313 314 316 316 317 317 317 316 315 315 314 311 310 309 308 308 309 310 311 317 318 318 319
312 312 311 311 312 314 313 313 312 313 315 319 317 315 315 316 316 315 315 312 313 314 314 315 317 317 317 317 316 315 314 313 313 311 309 308 308 308 310 311 312 316 317 318
311 313 314 312 310 309 311 314 314 315 316 314 314 316 311 313 314 312 313 312 313 314 314 316 316 317 317 317 316 315 315 315 314 312 310 308 307 309 310 310 315 315 316 317
311 314 317 317 312 308 311 312 312 314 312 319 319 318 311 310 312 311 312 313 314 314 314 315 316 316 316 315 316 316 315 315 315 312 310 308 307 309 310 309 312 314 314 315
311 313 317 320 318 314 312 312 312 313 315 316 316 316 316 314 314 313 313 313 313 314 315 315 315 316 315 314 314 314 316 315 314 313 311 309 308 308 310 309 311 312 314 314
312 314 314 316 316 315 315 314 313 313 314 316 316 316 316 315 315 314 314 314 314 314 315 314 314 314 314 314 313 314 315 315 314 313 312 310 308 308 310 308 311 313 314 313
312 314 315 315 316 316 315 314 313 313 314 314 314 315 315 314 314 314 313 313 314 314 314 314 315 314 314 313 314 314 315 315 314 313 312 310 308 308 310 308 311 312 312 311
307 310 314 316 315 315 316 315 316 315 315 315 316 316 316 316 315 314 313 312 312 313 313 314 314 314 314 314 314 314 314 313 313 312 311 309 308 308 309 308 310 312 310 309
308 308 310 312 312 314 316 315 315 316 316 316 315 315 315 315 315 314 313 313 313 312 312 313 313 313 313 313 312 312 312 312 312 309 308 308 307 307 308 307 309 311 309 308
308 308 310 311 313 313 312 312 314 315 316 315 315 316 315 314 313 313 313 313 312 312 312 312 312 312 313 313 313 313 313 311 310 310 308 307 306 305 306 307 308 309 308 307
305 308 309 312 312 313 310 309 307 311 316 315 314 314 315 314 314 314 313 313 312 312 312 312 312 312 312 313 313 313 312 311 310 308 306 305 304 304 304 305 306 307 306 305
307 306 309 308 310 312 311 306 308 315 318 306 308 311 311 312 313 313 311 311 311 311 311 311 311 311 311 311 310 310 309 308 307 305 303 301 300 300 300 301 302 303 302 301
307 309 310 311 311 313 307 306 313 309 309 309 309 309 305 306 308 309 309 308 308 309 308 308 308 308 307 307 307 306 305 304 302 300 299 298 297 297 297 297 298 298 299 296
304 305 305 305 305 306 305 305 306 304 304 305 305 306 306 305 304 305 305 306 305 306 306 306 305 305 305 304 303 302 301 300 299 298 297 296 295 295 294 295 295 295 295 292
302 301 303 303 302 305 305 304 305 304 304 304 304 301 302 301 301 303 302 302 303 304 304 303 302 301 300 300 300 299 298 298 297 296 295 294 294 293 293 293 293 293 293 293
301 302 303 304 303 304 303 302 301 304 305 304 303 304 305 302 300 299 300 301 301 301 301 300 299 298 298 297 296 296 296 295 295 294 294 293 292 293 294 293 293 294 294 294
299 300 300 301 300 302 300 300 302 303 302 302 303 303 302 299 298 299 298 299 301 300 299 297 296 296 295 294 295 296 296 297 299 300 299 298 296 295 294 293 293 292 291 291

GFSCGP_850_thetae_069.txt.gz
Theta_e
315 315 315 316 316 317 316 317 317 317 316 316 317 317 317 317 317 317 317 317 317 317 317 318 316 315 315 315 317 318 319 320 323 324 324 324 323 323 322 324 325 328 327 327
316 316 316 317 317 317 317 316 316 317 316 315 316 317 317 317 317 317 317 317 317 317 318 318 317 316 316 315 314 315 316 317 318 319 318 316 316 315 314 314 314 319 326 327
316 315 315 315 315 316 316 316 316 316 316 316 316 317 318 318 318 317 317 317 317 317 317 317 318 316 317 317 316 315 315 315 316 315 315 314 314 313 313 312 312 312 316 327
315 315 314 315 315 315 315 316 316 316 316 315 316 316 316 317 317 318 317 317 317 317 317 317 317 317 316 315 315 316 315 314 314 314 314 314 313 313 313 312 312 312 312 329
315 315 315 315 315 315 316 315 315 316 317 317 317 317 316 317 317 317 317 317 318 318 318 318 317 316 315 315 314 314 314 314 313 313 313 313 313 313 311 311 312 312 312 324
315 312 314 315 313 314 314 315 316 316 316 316 315 316 316 317 317 317 317 317 317 317 317 316 315 315 314 313 314 314 313 314 313 312 312 312 312 312 311 311 311 312 314 323
314 314 313 312 314 313 315 316 315 317 320 317 316 316 317 317 316 317 317 316 316 316 315 315 315 315 316 316 315 315 314 314 313 313 312 312 312 311 311 311 311 311 314 317
314 314 314 313 315 315 315 316 317 321 319 318 313 317 316 317 317 316 315 315 315 315 315 314 314 315 315 316 317 316 316 314 313 312 312 311 311 311 312 311 310 310 311 317
314 314 313 313 313 314 315 316 316 318 317 315 315 316 317 317 315 315 315 315 315 315 315 314 314 314 314 315 316 316 316 314 313 311 311 311 310 310 311 310 310 310 311 315
314 315 312 312 312 312 313 314 316 315 321 319 316 317 317 317 317 317 316 315 316 315 315 314 315 316 317 317 317 316 316 315 314 313 312 312 311 310 309 309 309 310 311 314
313 313 313 312 313 314 313 313 314 314 316 319 319 317 317 317 317 317 318 317 315 315 315 314 314 315 316 316 317 317 316 315 314 313 313 312 311 310 309 309 309 309 311 312
313 314 316 314 313 313 314 314 314 316 316 315 316 318 316 316 316 316 315 316 314 314 314 313 312 314 316 317 317 317 316 315 315 314 313 313 311 310 309 308 308 309 311 311
312 314 317 316 315 311 312 313 313 315 314 320 320 316 315 316 315 315 314 315 315 315 315 315 315 315 315 316 316 315 315 316 315 314 314 314 313 311 310 308 308 308 310 311
311 314 317 319 318 317 314 313 314 314 316 316 317 317 316 316 316 316 315 315 315 315 314 314 314 314 316 316 315 314 314 315 315 315 314 315 314 314 311 309 308 309 310 310
309 314 313 315 316 316 317 317 316 314 314 315 316 316 316 316 316 316 316 315 315 315 314 314 315 314 315 314 313 313 313 314 314 314 314 314 312 313 311 309 308 309 310 309
310 312 312 314 313 314 316 317 317 317 316 316 315 316 316 316 315 315 315 315 315 315 314 314 314 314 314 313 313 313 313 313 313 313 314 313 311 312 310 309 308 309 310 308
307 310 313 314 313 311 313 315 316 317 316 316 316 316 316 316 316 316 316 316 315 315 314 314 314 313 313 313 312 313 313 313 312 312 312 311 310 310 309 308 307 308 310 308
307 308 309 311 311 313 313 312 314 315 316 316 316 315 315 315 315 315 315 316 315 315 314 314 313 313 312 312 311 311 311 311 311 311 310 310 309 308 308 307 307 307 309 307
305 307 307 308 309 309 309 309 311 310 312 314 315 316 316 315 315 316 316 315 314 314 313 313 312 312 312 312 312 312 312 312 312 311 310 307 306 305 305 305 305 306 307 306
306 307 307 309 310 309 307 308 309 310 312 308 309 310 310 312 316 316 313 312 312 311 311 311 311 311 311 311 312 312 312 312 311 310 309 307 305 303 302 302 303 304 305 306
306 305 308 309 309 309 310 308 308 312 310 304 304 306 307 309 310 309 306 307 307 308 308 308 308 308 308 309 309 309 309 308 308 307 305 304 302 301 300 299 300 301 303 304
303 304 306 308 307 309 306 306 310 306 304 304 305 305 304 304 304 308 305 304 306 306 307 306 306 306 306 306 306 306 306 305 304 303 302 301 300 299 298 297 297 298 299 299
301 302 304 306 307 306 304 305 304 305 304 305 304 305 305 305 305 304 305 304 304 305 305 306 306 305 305 304 304 302 302 301 301 300 298 298 297 296 295 295 296 296 296 296
301 301 302 302 301 302 301 301 303 305 305 305 306 305 304 303 304 304 305 305 303 302 304 305 304 303 302 302 301 300 300 298 297 297 296 295 294 293 293 293 293 294 294 294
301 301 302 302 302 302 302 303 304 301 303 304 304 302 303 304 305 304 302 301 301 301 302 302 302 301 300 299 298 297 296 295 295 294 293 292 292 292 292 292 292 292 293 293
299 299 300 300 300 300 300 300 301 299 300 301 302 300 302 302 302 301 301 299 298 299 299 299 299 298 297 295 295 294 294 293 294 294 293 294 294 294 293 292 292 291 291 291

GFSCGP_850_thetae_072.txt.gz
Theta_e
315 314 313 314 314 315 316 316 314 315 315 316 315 314 314 316 316 316 317 317 317 317 317 317 317 317 316 318 319 323 326 325 324 324 326 328 326 326 327 326 326 329 328 330
315 314 314 315 317 316 316 315 314 314 314 315 314 313 313 314 315 316 317 317 317 317 317 317 317 318 317 316 316 321 323 323 319 320 321 323 323 324 324 322 321 323 326 329
316 316 315 316 316 316 315 314 314 314 315 313 313 313 314 315 315 315 316 317 317 317 317 317 318 317 317 317 316 316 318 318 318 319 321 323 326 326 325 319 317 318 321 326
315 315 315 315 315 314 314 314 314 315 314 313 315 313 313 312 312 314 317 317 317 316 316 317 317 317 318 317 317 316 315 317 318 318 318 319 318 318 316 315 314 314 314 316
314 313 314 315 315 314 314 314 315 315 315 315 315 313 312 311 313 313 315 317 317 317 317 317 318 317 317 317 317 316 315 315 315 315 315 316 316 316 315 314 314 313 313 312
314 312 314 315 312 313 313 315 315 315 314 312 312 313 311 312 314 315 316 317 317 317 317 317 316 317 317 316 316 316 315 314 313 314 314 314 314 314 314 314 314 313 312 311
314 313 313 313 313 313 315 314 313 315 314 314 313 312 312 314 313 314 314 316 316 315 316 315 315 315 315 315 315 314 314 313 313 313 313 313 313 313 313 314 313 313 312 311
312 312 313 311 313 314 313 313 314 313 316 313 311 312 312 314 315 316 315 315 315 315 315 315 315 314 314 315 316 315 314 313 312 312 312 312 312 312 313 313 312 312 312 311
313 313 312 311 312 313 314 313 313 313 305 311 312 312 312 313 313 314 315 315 315 314 315 315 315 314 314 314 314 315 315 314 313 313 312 312 312 312 312 312 312 312 311 311
313 314 312 310 312 312 312 312 314 312 312 312 312 312 312 312 313 312 312 316 316 315 315 315 315 314 314 314 313 315 315 314 314 313 313 313 312 312 311 311 311 311 311 311
313 313 312 311 311 312 312 312 313 312 312 313 312 311 313 313 314 315 315 315 315 314 313 313 314 314 313 314 314 314 315 314 314 314 313 314 314 313 312 311 311 311 311 310
313 314 312 312 311 310 312 311 312 312 312 310 312 314 314 312 313 315 314 315 315 315 316 315 314 314 315 315 315 315 316 316 316 315 314 315 315 314 313 312 311 311 310 310
312 313 310 313 313 310 311 311 312 312 310 313 313 313 310 312 314 315 315 315 315 315 315 315 314 314 315 315 316 316 316 314 314 315 315 314 315 315 315 314 312 311 310 309
312 314 313 314 317 315 315 314 312 313 314 313 313 313 313 312 311 312 314 315 315 315 315 314 314 314 314 315 315 315 314 314 313 313 314 314 315 314 314 314 312 311 309 308
310 313 313 313 313 313 314 315 316 318 315 314 313 312 313 312 311 313 314 315 315 315 315 315 315 314 314 314 314 314 314 313 313 312 313 314 314 314 313 312 312 311 309 307
309 310 311 308 310 311 311 312 313 314 316 317 316 314 313 313 314 313 314 314 315 315 315 315 315 315 314 314 313 313 313 313 312 312 312 312 312 312 313 311 310 310 309 307
307 309 311 308 309 308 311 310 311 312 312 314 315 314 313 313 313 313 313 314 314 314 315 315 315 315 314 313 313 313 312 311 311 311 311 311 310 309 309 309 309 308 308 307
304 305 307 304 302 306 307 308 310 312 312 312 313 314 313 313 313 313 314 314 314 314 314 314 314 313 313 312 312 311 311 311 310 311 312 311 310 308 307 306 306 306 305 306
305 304 302 298 296 301 302 302 303 306 306 307 309 309 307 307 308 311 311 310 308 308 309 310 311 311 311 311 311 311 311 310 310 310 310 310 309 307 306 305 304 303 303 304
301 304 304 297 301 297 303 305 307 307 308 304 305 305 305 306 307 308 310 308 308 308 307 307 308 307 308 309 309 308 309 309 309 309 309 307 306 305 304 302 301 301 301 302
303 302 303 303 304 303 302 304 307 306 304 303 303 304 304 304 306 306 307 307 306 306 306 306 306 307 307 306 307 308 308 307 307 307 307 306 304 303 301 299 298 298 298 298
301 301 300 304 305 304 305 305 307 303 303 303 301 302 304 305 305 307 306 306 305 305 305 305 305 305 305 305 304 306 304 305 305 304 303 303 302 300 299 298 297 296 295 297
298 297 296 299 298 305 304 303 302 302 302 302 303 305 305 305 306 306 305 305 304 303 304 303 304 304 303 304 303 302 302 301 302 301 300 299 298 297 297 296 295 295 294 295
298 299 297 297 298 299 300 301 300 300 301 302 303 304 305 304 303 302 303 304 303 302 302 302 302 303 302 300 299 299 299 299 298 299 297 296 295 294 294 294 294 294 294 294
296 296 295 296 298 299 300 300 300 301 302 302 300 301 303 302 300 301 302 302 302 302 301 300 301 301 301 300 297 296 296 295 295 295 295 294 293 293 293 292 292 292 292 292
296 296 296 297 298 298 298 298 298 299 299 299 300 299 300 299 300 300 300 299 299 298 297 297 298 299 299 298 297 295 293 292 292 293 293 292 293 293 293 293 292 291 291 292

GFSCGP_850_thetae_075.txt.gz
Theta_e
314 310 310 310 310 311 313 314 313 312 314 314 312 311 311 314 314 313 314 315 316 317 317 317 317 317 317 316 317 322 327 330 331 331 330 330 329 332 331 328 327 328 328 331
311 310 310 310 312 313 313 314 313 312 313 313 312 311 310 310 312 314 313 314 315 316 316 317 317 317 317 317 317 317 321 326 328 329 325 326 323 326 330 329 328 327 329 329
312 313 312 314 315 314 314 313 313 312 312 311 311 309 310 310 313 315 315 315 315 315 316 316 317 317 317 317 317 317 317 318 323 324 327 328 327 327 329 328 328 329 326 331
313 313 313 313 313 313 314 312 312 312 312 311 311 310 310 311 311 310 313 315 316 316 316 316 316 316 316 317 317 317 317 316 318 322 325 325 323 322 321 323 325 324 327 326
313 312 311 313 313 311 312 313 313 314 313 313 312 311 309 309 310 309 311 314 315 317 316 317 317 317 317 316 317 317 317 316 317 319 321 322 323 322 322 323 323 325 325 325
311 312 313 312 311 312 311 313 312 311 309 310 309 310 308 309 311 312 313 315 316 316 316 316 316 315 316 317 317 317 316 316 315 316 318 319 320 321 320 321 321 321 320 319
313 312 312 312 311 311 312 309 309 311 311 309 309 309 309 309 310 312 314 314 314 315 314 315 314 314 314 315 316 315 315 315 315 314 315 316 316 316 316 316 316 316 315 314
311 311 311 310 311 311 311 310 309 309 314 311 308 311 312 309 313 313 314 314 313 314 314 314 315 315 314 314 314 314 314 314 314 313 313 313 313 313 313 313 313 314 313 314
309 310 310 310 310 311 311 312 310 311 299 308 309 309 309 309 310 312 313 314 315 315 316 316 316 316 315 314 314 314 313 313 313 313 312 312 312 312 312 312 312 312 313 312
311 313 310 310 311 310 311 310 312 309 308 309 309 309 311 310 310 313 312 314 314 315 315 315 315 314 315 314 314 314 313 313 314 313 313 313 312 312 312 312 312 312 312 312
309 311 311 310 310 310 311 311 311 310 310 309 309 309 306 309 311 313 313 314 315 315 315 314 314 314 314 315 315 315 315 315 314 314 314 314 314 313 313 313 313 312 312 312
311 311 309 310 309 309 310 310 310 311 310 308 309 312 309 309 312 312 313 314 314 314 314 315 314 314 314 314 314 315 315 315 315 315 314 315 315 315 314 314 314 313 312 312
311 310 304 310 310 310 311 311 311 310 308 311 309 313 309 309 309 311 311 313 313 314 315 314 314 314 314 314 314 314 314 315 314 314 314 314 314 315 315 314 314 313 312 312
313 312 309 310 314 313 314 313 314 313 308 311 311 311 312 310 308 310 312 312 313 314 314 314 314 315 315 314 314 313 314 314 314 314 313 313 314 313 314 313 312 312 311 311
312 313 312 312 312 313 314 313 313 315 315 317 313 312 312 311 310 311 312 313 313 313 313 314 314 314 314 315 314 314 314 314 313 312 312 312 312 312 311 311 312 312 310 310
308 306 310 309 310 310 310 309 310 312 313 313 313 314 313 313 313 312 312 312 313 313 313 313 314 314 315 315 315 314 314 313 313 313 312 312 311 310 310 310 310 310 310 309
308 308 307 300 306 307 304 307 308 309 310 311 313 312 311 310 310 309 310 310 308 308 309 309 310 311 312 312 312 312 312 312 312 311 311 311 311 311 310 309 308 308 308 307
305 306 306 293 293 297 302 303 306 308 309 309 309 310 306 305 305 307 308 308 307 308 308 307 306 308 309 310 311 311 310 311 311 312 312 311 311 312 311 310 307 305 305 305
302 300 294 294 286 297 299 299 300 303 304 304 305 304 304 304 305 307 308 305 306 308 308 308 307 306 306 306 307 308 308 307 308 309 309 309 309 310 309 309 308 306 303 302
302 302 299 286 295 296 299 301 306 305 303 303 303 303 303 304 303 303 304 304 305 307 307 306 306 306 306 306 306 307 307 307 307 307 307 308 308 307 307 307 305 303 302 301
299 302 303 301 302 297 298 299 305 299 300 302 302 301 301 301 302 301 303 303 306 304 304 304 304 304 307 307 305 305 306 306 305 305 305 305 305 304 303 304 302 302 300 298
297 296 297 294 301 301 301 304 304 301 302 302 301 300 301 302 303 304 304 306 305 303 303 303 303 303 302 303 303 303 303 303 303 303 302 302 302 301 301 300 300 299 298 295
295 298 296 298 298 300 302 302 299 302 300 300 300 300 302 304 304 305 305 303 301 301 301 300 301 302 301 300 301 302 302 301 301 301 301 299 298 298 298 297 297 297 295 295
295 296 295 294 295 295 298 299 299 299 299 299 299 301 303 302 301 303 301 300 300 300 300 300 300 300 300 299 298 298 299 298 297 298 298 297 296 294 294 294 294 294 293 294
294 295 290 291 296 298 299 299 299 298 297 297 298 300 300 300 299 301 299 298 299 299 299 298 298 298 298 298 296 295 298 296 295 294 294 294 293 293 292 292 292 292 292 292
294 294 295 293 296 296 296 296 295 296 296 297 298 298 298 299 299 298 297 298 298 298 298 297 297 297 298 298 297 294 293 293 292 291 291 292 292 292 291 292 291 291 290 291

GFSCGP_850_thetae_078.txt.gz
Theta_e
312 310 310 310 308 308 309 312 313 312 313 313 311 310 309 313 313 313 314 314 314 314 315 316 316 316 316 316 316 317 322 326 330 332 334 333 332 330 331 332 331 330 329 329
309 309 309 309 309 310 311 312 312 311 312 312 311 310 309 309 311 313 313 313 314 314 314 314 315 316 317 316 316 316 317 321 325 329 331 332 332 332 330 333 331 332 328 328
309 310 310 311 312 312 312 311 312 311 311 310 310 307 308 309 311 313 314 313 314 315 316 315 315 315 316 316 316 316 316 316 319 322 329 332 333 333 332 330 334 333 330 329
312 312 311 312 312 311 312 311 312 312 310 309 309 307 308 309 308 308 313 312 313 314 315 315 316 316 315 316 316 316 316 316 317 320 324 327 328 329 327 328 329 331 333 331
311 312 312 312 312 311 311 311 312 312 310 312 310 309 307 307 309 308 309 312 316 316 316 316 316 316 317 316 316 316 316 316 316 317 320 322 326 327 328 327 327 327 331 331
310 311 310 310 311 311 310 311 309 307 306 308 308 307 305 308 310 311 311 313 313 315 314 314 314 314 314 314 314 316 316 316 316 317 318 319 319 323 325 326 326 325 325 328
312 311 311 311 311 311 310 308 308 309 309 308 307 308 307 308 308 310 310 311 312 313 314 315 315 314 314 315 314 314 316 316 315 316 316 317 320 323 323 323 323 322 322 322
311 312 310 310 310 311 309 307 308 307 310 309 308 310 310 309 309 310 313 313 314 315 315 315 315 315 315 315 314 313 314 314 315 315 315 315 315 317 318 318 318 317 316 316
310 310 309 309 309 310 311 310 307 308 296 306 308 308 308 308 309 311 312 314 314 315 314 315 314 314 315 315 314 314 314 313 313 313 313 313 313 313 313 313 313 313 313 313
308 311 309 310 310 309 309 308 311 308 307 306 308 308 309 311 310 310 310 313 314 314 314 314 314 314 314 314 314 315 314 314 313 313 314 314 314 313 313 312 313 312 312 312
309 309 310 309 310 310 310 310 310 309 307 307 306 308 305 309 310 309 311 313 313 313 313 314 313 313 313 314 314 314 314 315 315 315 315 314 314 314 314 314 314 314 313 313
309 309 309 310 308 308 309 309 310 310 309 306 308 310 307 308 307 309 311 311 312 312 313 313 313 313 313 314 314 314 314 314 314 314 314 313 314 314 314 314 314 313 313 313
311 311 309 311 310 309 310 310 309 308 306 307 308 311 305 307 307 308 309 310 311 313 313 313 314 314 314 314 314 314 314 314 313 313 313 313 313 313 313 314 312 312 312 311
311 310 309 311 312 311 313 311 313 310 306 308 310 311 309 308 308 310 311 312 313 313 312 313 314 314 313 313 313 314 314 314 314 314 313 313 313 312 313 312 312 311 311 311
310 308 311 311 311 312 313 312 312 313 313 312 313 313 312 311 310 311 312 311 312 312 312 312 313 313 313 313 314 314 314 313 313 313 313 312 312 312 312 311 311 311 310 310
307 308 310 308 310 311 311 310 311 311 311 312 311 312 310 310 310 310 310 309 308 308 308 308 309 310 311 312 312 312 312 312 311 312 312 312 311 311 311 311 310 310 310 310
305 308 306 304 304 307 305 306 307 308 309 310 311 310 308 307 306 306 307 307 305 306 308 308 308 308 308 308 308 309 310 311 310 310 310 310 311 311 311 311 311 310 309 308
304 301 297 296 295 305 302 300 304 307 307 308 309 308 306 305 304 304 307 304 304 304 305 306 306 307 307 307 308 309 307 308 308 308 307 307 307 308 308 309 309 310 309 308
302 300 296 298 290 296 298 298 298 299 301 304 305 303 303 301 301 303 306 302 303 303 305 305 304 304 304 305 306 308 308 306 306 307 307 307 307 307 307 307 307 307 308 307
302 300 298 284 289 292 295 301 300 302 300 302 303 302 301 301 298 296 300 300 302 303 305 304 304 304 303 303 303 305 305 306 306 306 306 306 305 305 306 306 305 305 304 304
303 303 303 290 289 292 296 301 302 297 298 302 301 301 300 299 299 299 299 301 303 304 303 302 302 302 301 301 301 302 303 304 305 305 305 304 303 303 302 303 303 302 302 301
297 298 298 300 302 299 298 300 300 299 301 302 301 299 299 299 299 300 300 303 303 301 300 300 299 299 299 299 300 300 301 303 303 303 303 302 301 300 300 300 299 299 300 299
297 295 295 296 298 298 299 301 299 300 300 300 299 299 298 298 299 302 301 299 300 299 297 298 299 299 298 298 298 299 300 300 301 301 301 301 298 297 297 297 297 297 297 296
295 295 295 296 296 296 300 298 299 300 299 297 296 296 298 299 300 300 299 298 300 299 297 297 298 298 298 297 296 297 298 299 299 299 299 299 297 294 294 294 294 295 293 293
294 294 291 291 295 296 297 297 296 295 295 295 296 296 296 298 298 298 297 299 299 297 297 297 298 298 298 297 297 296 296 298 298 297 296 295 294 293 292 291 293 293 292 291
293 294 295 293 295 295 294 295 294 294 295 295 295 297 297 298 297 297 296 297 297 296 296 296 296 296 297 297 296 297 296 296 296 295 293 293 293 292 291 291 289 290 289 290

GFSCGP_850_thetae_081.txt.gz
Theta_e
311 309 309 308 306 306 307 310 311 311 311 312 310 309 308 312 312 312 314 314 314 314 314 314 314 315 315 315 316 316 318 321 328 332 332 331 332 332 331 330 329 330 331 331
309 309 308 308 308 309 310 311 311 310 311 312 310 309 307 308 311 313 313 313 313 314 314 315 314 313 314 315 315 315 316 317 319 324 326 330 331 333 332 332 331 329 331 331
308 309 307 309 309 309 309 309 310 310 309 308 308 306 305 306 309 312 312 312 312 312 313 315 315 314 314 314 315 316 316 316 316 318 324 328 332 333 334 333 332 331 328 331
309 310 309 309 310 309 311 309 309 310 309 308 307 306 306 307 306 307 310 310 313 314 314 315 315 315 315 315 315 315 315 315 315 316 319 322 324 328 326 330 332 332 331 329
309 310 310 310 310 309 310 310 310 310 307 310 309 308 306 306 308 308 308 312 313 314 314 314 314 314 314 315 315 315 315 315 315 315 317 320 323 324 328 329 331 331 332 330
309 310 310 310 309 310 308 308 306 305 304 307 306 305 304 306 309 309 308 310 312 313 314 314 314 314 314 314 314 314 314 315 315 314 315 317 320 323 325 326 328 329 329 329
311 311 310 310 310 310 308 307 307 307 307 307 305 306 305 306 307 307 307 311 313 314 314 314 314 315 315 315 314 314 313 314 315 315 315 316 318 322 324 325 325 325 327 328
310 312 310 309 309 310 307 307 307 306 307 307 307 308 308 308 308 310 311 312 313 313 313 313 314 314 314 314 314 315 314 314 313 314 314 315 316 317 319 320 322 324 325 324
309 310 309 309 308 310 310 308 305 306 295 306 306 307 307 306 309 309 310 312 312 313 313 313 313 313 314 314 314 314 314 314 314 313 313 313 313 313 313 313 314 314 315 315
308 309 309 309 309 309 309 307 310 306 305 305 306 308 307 307 309 308 308 311 311 312 312 313 313 313 313 314 314 314 314 314 314 314 314 314 314 314 313 313 313 313 312 312
306 308 310 309 309 309 309 309 307 308 306 306 305 307 304 306 308 307 308 311 311 313 313 313 313 313 313 313 314 314 314 314 313 314 313 313 313 313 314 314 313 313 312 312
307 308 309 309 307 306 308 308 307 308 308 305 307 308 305 306 307 310 310 310 312 312 312 313 313 313 313 313 313 313 313 314 313 313 313 313 313 313 313 313 313 313 313 312
309 310 308 312 310 309 309 309 308 307 306 306 309 309 306 305 306 308 309 310 311 311 312 312 313 313 313 313 312 312 313 313 313 313 313 313 313 313 313 312 311 312 312 312
310 310 310 311 312 310 312 312 312 309 310 309 308 309 307 306 309 309 309 310 311 311 310 311 312 312 312 312 311 312 312 312 312 312 312 312 312 312 312 312 311 312 311 310
310 312 311 311 312 312 311 311 312 312 310 309 311 311 309 310 308 309 309 309 310 310 310 310 311 311 311 311 311 312 312 312 312 312 312 311 310 311 311 311 311 311 311 310
307 311 310 310 309 310 312 310 310 310 311 311 311 311 309 309 309 309 308 307 306 306 307 308 309 309 310 310 310 310 310 310 310 309 309 309 309 308 308 308 309 309 310 310
306 305 305 310 305 308 308 306 308 308 308 308 309 309 307 306 306 306 306 306 305 304 304 304 305 306 307 308 308 308 308 308 309 309 307 307 307 308 308 308 308 308 308 308
303 304 302 301 297 308 304 298 300 306 307 307 307 307 306 305 303 303 304 303 302 303 303 303 304 305 305 305 305 305 305 306 306 307 307 306 306 307 307 307 307 307 306 306
303 302 296 301 289 298 301 298 297 301 302 303 305 305 303 301 300 302 305 300 300 301 302 303 304 303 302 302 302 301 301 301 301 303 304 306 306 306 306 306 306 306 305 304
301 301 301 285 295 297 296 300 298 299 298 299 304 301 301 299 300 296 306 299 300 302 303 303 302 301 300 300 299 299 298 298 299 300 302 303 304 305 305 305 305 305 305 302
304 302 302 293 291 292 294 298 300 296 297 301 302 301 300 297 298 298 298 300 302 303 301 299 298 298 298 299 299 298 298 298 298 298 299 301 302 302 302 303 302 302 303 301
303 304 302 298 300 300 297 296 299 298 300 301 301 300 299 299 298 297 297 300 300 299 299 299 299 298 298 298 298 298 298 298 297 297 297 297 299 300 300 300 300 299 298 297
298 298 297 299 300 297 299 299 301 301 301 300 299 296 296 296 297 298 298 300 299 298 298 299 299 298 297 297 297 297 297 297 297 296 296 296 298 299 298 298 297 297 296 295
295 295 295 295 296 296 299 299 299 299 298 296 295 295 295 296 296 296 296 297 297 297 296 296 296 296 296 296 296 296 296 297 297 296 295 295 297 297 296 295 295 294 293 293
294 294 292 292 295 296 297 297 297 296 296 295 295 295 294 295 296 296 297 297 297 296 296 296 296 295 296 296 296 296 296 296 295 296 295 295 295 295 295 295 293 292 291 291
293 293 296 294 296 296 296 296 294 294 294 293 293 294 294 294 295 297 297 297 296 296 295 295 295 295 295 295 296 294 293 293 294 295 294 293 293 293 293 292 290 289 288 288

GFSCGP_850_thetae_084.txt.gz
Theta_e
310 308 307 309 306 305 306 308 309 309 310 311 310 308 307 311 311 312 313 313 313 313 313 313 313 314 314 314 315 317 319 319 324 329 332 334 333 332 332 331 330 329 328 326
308 308 307 306 306 308 308 309 310 309 310 310 308 308 307 307 309 311 312 312 311 312 313 312 313 313 313 313 314 314 315 316 318 322 324 330 332 332 331 330 331 331 330 330
308 308 306 307 307 308 308 308 309 309 308 306 305 305 304 305 307 309 309 309 309 311 311 312 313 313 313 312 312 314 314 314 315 317 323 327 331 331 331 330 331 331 332 332
308 307 307 308 308 306 308 307 308 308 308 309 305 305 305 306 304 305 307 310 311 312 313 313 313 314 314 314 314 314 314 314 314 314 319 321 322 323 320 323 325 329 331 332
308 309 308 309 309 308 309 307 308 308 306 308 308 306 305 303 308 307 306 309 311 313 313 314 314 313 313 313 313 313 314 314 314 313 313 316 320 322 324 324 326 327 329 331
308 309 309 308 307 309 306 305 304 304 303 306 305 305 304 305 307 308 306 311 312 312 313 313 314 314 314 314 314 313 313 314 315 314 313 313 315 317 321 324 326 326 328 329
310 310 309 309 309 308 306 306 307 307 306 306 304 305 304 306 307 306 307 310 312 312 313 313 313 314 314 314 314 314 314 313 313 314 314 314 315 318 320 323 326 328 329 330
309 311 309 308 309 309 306 307 307 305 305 306 305 307 306 305 307 308 310 311 312 312 312 313 313 313 314 314 314 313 314 314 313 312 312 313 314 315 316 317 319 322 322 322
308 309 308 308 307 309 309 307 304 305 293 304 305 305 306 305 306 308 309 311 312 312 312 312 313 313 314 314 314 314 314 313 313 314 314 314 313 313 313 312 312 312 313 313
308 308 308 308 308 308 308 305 309 304 303 304 305 306 305 308 307 306 307 310 312 313 313 313 313 313 312 313 313 313 313 313 313 313 313 313 313 313 313 312 312 312 312 312
305 308 309 308 308 308 308 308 306 306 306 305 304 305 303 307 306 306 308 311 311 312 312 312 312 313 313 313 313 313 313 313 313 313 313 313 312 312 312 312 312 312 312 312
306 307 309 309 307 306 307 307 307 307 306 303 305 306 304 306 306 308 309 310 311 311 311 312 312 312 312 312 312 311 312 312 313 313 313 313 313 313 313 312 312 311 311 311
307 307 305 310 309 307 308 307 306 305 305 305 308 307 304 305 306 308 308 309 310 311 311 311 311 311 310 310 310 310 311 311 311 311 311 312 312 312 312 312 312 312 312 311
309 308 308 309 310 308 310 310 307 308 308 308 307 307 306 305 307 307 308 309 309 309 310 310 310 309 309 309 309 309 309 309 309 309 308 308 308 308 309 309 309 310 311 311
310 312 311 310 310 311 311 310 309 308 309 310 308 307 308 306 307 307 308 308 308 308 308 308 307 307 307 307 308 308 308 308 307 307 307 308 307 307 306 307 308 308 308 309
308 312 310 310 311 309 312 310 310 311 311 311 311 311 309 309 308 306 307 306 305 305 305 305 305 305 305 305 305 305 305 305 305 305 305 306 307 307 307 307 306 307 307 307
310 309 311 312 307 310 313 309 308 308 308 309 312 309 306 307 307 308 307 306 305 303 303 303 303 303 304 304 304 303 303 302 301 301 301 301 301 301 302 304 306 306 306 306
306 305 305 302 305 312 305 298 302 307 307 307 306 306 306 307 307 306 305 304 302 302 302 301 301 301 302 302 302 302 301 300 300 300 299 299 299 299 299 300 302 303 304 304
304 303 299 306 304 301 302 300 297 302 304 304 305 303 304 303 302 302 303 300 299 299 300 300 301 302 302 301 301 300 300 299 299 299 298 298 298 298 298 297 298 299 300 301
301 302 305 293 302 301 301 297 297 299 299 298 303 301 299 299 300 297 303 301 298 300 301 302 301 299 298 298 298 298 298 298 298 298 298 298 298 297 297 296 297 298 299 299
303 303 304 291 295 294 295 297 298 296 296 298 302 302 299 296 299 300 304 301 298 300 300 299 299 299 298 298 298 297 297 297 297 297 297 297 297 296 296 295 296 298 299 298
306 305 303 296 298 303 296 297 299 298 299 301 300 299 298 298 297 297 297 297 299 300 299 298 298 298 297 296 296 296 296 296 295 295 296 296 296 296 295 295 295 297 297 297
303 301 301 301 302 297 296 299 300 300 301 299 299 297 296 296 296 296 296 296 296 297 297 297 296 295 295 295 295 295 295 295 295 295 296 296 295 295 295 295 295 296 296 295
295 295 297 299 297 297 297 299 300 300 299 297 297 296 296 296 296 296 295 296 296 297 297 297 296 295 295 295 295 295 295 295 295 296 295 294 294 295 295 294 294 294 294 293
294 294 292 292 294 296 297 298 298 297 297 296 296 295 295 295 295 295 295 294 296 296 297 296 295 295 295 295 295 294 293 294 295 295 294 294 294 293 293 293 293 293 292 290
293 293 296 294 296 297 298 298 298 298 297 296 295 294 293 293 292 292 293 293 294 296 296 295 294 294 294 295 294 293 293 293 293 292 293 293 293 292 292 292 292 290 289 288

GFSCGP_850_thetae_087.txt.gz
Theta_e
309 307 308 308 306 305 305 305 307 308 309 310 309 308 308 310 310 311 312 312 312 312 312 312 312 313 313 314 315 316 318 319 322 325 328 332 332 332 332 332 331 331 330 329
308 307 306 305 304 306 307 308 309 308 308 309 308 309 307 307 308 308 308 309 310 310 311 311 311 312 313 313 313 313 314 316 318 319 320 324 326 329 330 331 331 331 331 331
308 308 305 307 306 308 307 307 308 309 307 305 304 306 304 305 306 307 307 306 310 311 311 312 312 312 312 312 312 313 313 313 315 317 320 323 326 327 329 330 330 329 330 331
307 306 305 305 306 305 308 306 306 307 307 307 305 306 306 304 306 304 306 309 311 311 311 312 312 313 313 313 313 312 312 313 313 313 315 317 320 321 321 324 327 328 327 327
307 307 306 307 307 306 307 305 306 306 306 307 307 307 306 303 307 305 306 310 311 311 312 313 313 313 313 313 313 313 313 313 313 312 312 313 315 319 322 324 326 327 327 328
308 308 307 306 306 307 304 305 304 302 302 306 305 305 304 304 307 306 308 309 310 311 311 312 312 312 313 313 314 313 313 313 314 313 312 312 313 315 318 321 322 324 326 327
309 309 308 308 308 307 306 306 307 308 307 307 303 305 304 305 305 306 308 309 310 311 312 312 313 313 313 313 313 313 313 313 312 313 314 315 316 318 320 323 325 327 328 328
308 310 308 308 308 308 305 306 308 307 306 306 305 307 306 305 305 309 309 309 310 311 311 312 313 313 313 313 313 313 313 313 313 313 313 313 313 313 314 315 315 316 316 317
307 307 308 307 307 308 308 307 304 304 292 303 305 305 304 305 306 307 309 310 310 310 311 312 312 312 312 313 313 313 313 313 313 313 312 312 312 312 312 312 312 312 312 312
308 309 308 308 308 307 306 304 308 304 303 304 304 305 306 307 307 305 307 309 310 310 311 312 312 312 312 312 312 312 312 313 312 312 312 312 312 312 312 312 312 312 312 311
305 308 309 308 308 308 307 307 305 305 305 304 303 305 301 308 306 305 307 309 310 311 311 312 312 312 312 312 312 311 311 312 312 312 312 313 313 313 313 313 312 312 312 312
306 307 309 309 307 305 307 306 306 307 305 302 304 305 303 306 305 308 308 309 310 311 311 311 311 311 311 310 309 309 309 310 309 308 308 308 308 308 308 310 310 310 311 311
306 307 303 309 308 306 307 306 305 304 305 304 308 306 302 305 305 308 308 309 310 310 310 310 310 309 308 308 308 308 308 308 307 307 306 305 306 306 307 308 308 308 309 309
308 306 307 309 308 307 309 307 305 307 308 307 307 307 306 303 304 305 308 310 309 309 310 309 308 307 307 306 306 305 305 305 305 304 303 304 304 304 304 305 307 307 307 307
308 307 309 309 309 308 308 308 306 307 308 308 308 307 308 305 306 307 309 308 308 308 308 307 306 305 305 304 304 303 303 303 302 301 301 300 300 300 300 300 300 301 302 304
308 309 309 309 309 309 312 309 308 308 307 309 304 306 306 306 307 307 308 308 307 306 305 305 304 304 303 303 302 302 302 301 301 300 300 300 300 299 299 299 298 298 298 298
309 309 309 311 308 309 313 310 309 308 308 309 310 308 306 306 307 307 307 307 305 304 303 302 302 302 301 301 300 300 300 301 301 300 300 300 300 299 299 299 298 298 298 298
306 307 308 306 310 315 309 298 303 308 308 307 306 306 307 308 308 309 307 306 304 303 302 301 300 300 300 300 299 299 298 299 299 298 298 297 297 297 297 297 297 297 297 297
306 306 302 307 302 304 304 300 303 308 309 305 305 304 306 306 305 304 306 303 302 300 299 299 300 300 300 299 298 298 298 297 296 296 296 296 296 296 296 296 296 296 297 296
303 305 308 300 306 305 304 297 297 300 303 299 306 304 301 301 303 300 303 299 298 299 299 300 300 299 298 298 298 297 296 296 295 295 295 295 295 295 295 296 296 296 295 295
305 305 308 302 304 300 297 297 298 300 302 297 302 303 300 298 301 301 302 301 298 298 299 299 298 298 298 297 296 295 295 295 295 295 295 295 295 295 296 295 294 294 295 295
304 306 304 297 302 305 296 298 299 298 299 300 301 302 300 298 298 301 301 297 297 298 299 298 297 296 296 295 295 295 295 295 294 294 294 295 295 295 295 294 294 294 294 294
306 302 300 301 303 297 297 298 299 300 300 299 301 299 299 298 297 296 296 297 296 296 296 296 297 297 296 295 295 294 294 294 294 294 293 294 295 295 294 293 294 294 293 294
296 295 300 301 297 296 297 299 300 301 301 300 299 297 297 296 296 295 295 295 295 295 295 296 296 296 296 295 294 294 294 294 294 294 293 293 293 292 292 293 293 293 293 293
295 295 293 294 294 296 297 299 300 300 300 299 297 297 296 295 295 294 294 294 293 293 294 295 295 295 295 294 293 293 293 293 292 292 291 291 291 291 291 292 292 292 292 291
293 293 297 297 296 298 298 299 299 300 298 297 297 295 295 295 294 293 292 292 291 292 292 293 293 293 293 292 292 292 292 292 292 292 291 290 290 290 291 291 292 291 290 289

GFSCGP_850_thetae_090.txt.gz
Theta_e
310 313 314 314 313 311 313 311 312 310 311 313 313 314 314 313 312 313 314 312 311 312 312 312 312 313 313 313 315 317 320 321 328 330 331 333 332 331 331 331 331 332 331 329
312 313 312 310 309 310 310 312 312 311 310 312 312 314 314 312 311 309 309 310 309 310 311 311 311 311 311 312 313 313 315 318 321 323 326 329 330 330 330 329 330 332 332 332
312 311 308 309 309 310 310 312 311 312 310 309 309 313 311 309 308 308 307 307 309 310 310 311 311 311 312 312 312 312 312 314 316 319 324 325 327 329 328 327 327 327 332 333
310 307 309 310 310 311 311 310 311 311 313 312 309 312 313 309 310 309 310 311 311 310 311 312 312 312 313 313 311 311 311 312 312 313 317 319 321 322 322 329 330 331 329 333
311 308 309 310 311 310 311 309 310 311 313 312 312 312 313 308 311 312 311 311 310 310 311 312 312 312 312 312 313 313 312 311 311 312 312 313 317 322 328 329 326 328 326 326
310 307 309 310 307 309 307 310 309 309 311 313 312 313 313 311 311 312 310 310 309 309 310 311 312 312 313 313 313 313 313 313 313 312 311 311 313 317 321 323 323 324 325 326
311 310 309 308 310 308 309 312 313 313 314 313 306 309 313 308 308 313 311 310 309 309 310 312 312 312 312 313 313 313 313 312 313 314 314 315 315 317 319 323 324 324 324 324
311 311 310 309 311 311 311 312 314 317 313 312 306 311 312 308 307 310 310 309 308 309 311 312 312 312 313 313 313 313 313 313 313 313 313 313 313 313 313 313 313 313 312 312
311 310 308 308 307 311 310 311 309 308 302 313 311 310 308 308 309 309 309 309 309 309 311 311 312 312 312 312 312 312 312 312 312 312 312 312 312 311 311 311 311 311 311 311
310 311 308 308 308 308 310 309 311 310 316 315 309 310 313 310 311 311 310 310 308 309 310 311 311 311 312 312 312 312 312 312 312 312 312 312 312 312 312 312 312 312 312 312
308 312 310 309 311 312 308 309 309 310 311 320 313 311 311 312 313 311 311 310 309 309 310 310 311 311 311 311 311 311 311 310 310 309 308 308 308 307 308 308 308 309 309 309
308 311 313 311 307 306 308 310 310 312 311 308 310 313 306 311 312 311 310 308 308 310 310 310 311 311 310 309 309 309 308 308 307 306 306 305 305 305 306 306 306 307 307 308
309 312 314 311 310 307 309 308 310 309 310 313 315 312 306 310 309 310 309 307 309 309 310 310 309 309 308 307 307 306 305 305 304 303 303 303 303 303 303 302 301 301 301 301
308 310 312 312 311 312 311 309 308 310 313 312 311 312 309 310 311 309 308 309 308 309 309 309 308 307 306 306 304 304 303 303 302 302 301 301 301 301 301 300 300 300 299 299
309 313 310 311 310 310 312 311 309 310 311 312 312 310 310 311 311 309 309 309 307 308 308 308 307 306 305 303 303 302 301 301 301 300 300 300 300 300 299 299 299 298 298 297
309 312 311 311 310 311 312 311 310 310 311 311 310 310 310 310 310 308 308 308 307 307 307 306 305 304 303 302 301 301 300 299 299 299 299 298 297 297 296 296 296 296 296 296
311 311 312 313 310 313 313 313 311 311 311 311 311 311 308 309 308 308 309 308 308 308 307 305 304 303 302 301 300 299 298 298 298 297 296 295 295 295 295 295 295 295 296 296
309 310 312 311 313 315 310 301 308 310 310 310 310 310 309 308 309 309 309 309 309 307 305 303 302 301 301 300 299 298 297 297 296 295 295 295 295 295 295 295 295 295 295 295
308 308 307 313 315 313 308 302 308 310 312 309 310 309 307 307 307 306 308 308 307 305 303 301 300 300 300 299 298 298 297 296 295 295 295 295 295 295 295 295 295 295 295 295
305 309 312 306 315 316 310 300 299 304 313 308 308 307 305 306 309 309 307 306 304 302 300 300 300 299 299 298 298 297 296 295 295 295 295 295 295 294 294 295 295 295 295 294
307 308 312 311 312 310 304 298 298 311 314 297 307 307 304 308 307 307 305 302 300 299 299 300 299 298 298 297 296 296 295 295 295 295 294 294 294 294 293 294 295 295 294 293
309 310 309 306 311 312 298 297 303 305 297 299 303 306 303 304 304 304 301 299 298 298 299 299 298 297 296 296 296 295 295 295 294 294 294 294 294 294 294 293 293 293 292 292
308 309 309 309 310 299 298 299 300 300 300 300 302 301 303 303 302 301 300 298 297 298 298 297 296 296 296 296 296 295 295 294 294 294 294 293 293 292 292 292 291 291 291 292
300 297 305 305 303 299 298 299 299 300 301 302 303 303 301 301 301 300 297 296 296 296 296 295 295 295 295 295 295 295 294 294 293 293 293 293 293 293 292 291 290 290 291 291
300 298 301 301 296 297 297 299 299 300 300 301 300 300 299 298 296 297 296 296 295 295 294 293 293 293 293 293 293 293 292 292 291 290 290 290 290 291 291 291 290 290 290 290
295 298 303 306 299 302 300 300 300 300 299 299 299 296 296 296 296 296 295 294 293 292 291 292 292 291 291 290 290 290 289 289 288 288 288 288 288 288 288 289 289 289 289 289

GFSCGP_850_thetae_093.txt.gz
Theta_e
314 314 314 315 315 316 317 315 315 314 313 314 315 315 315 315 314 315 316 316 315 314 313 313 312 313 313 314 326 329 331 332 332 326 329 331 331 331 330 330 331 331 332 331
313 314 315 315 314 314 315 314 314 313 313 314 315 315 315 315 315 314 314 313 313 312 312 311 311 311 312 312 312 320 328 331 333 328 326 330 332 330 326 330 331 333 334 330
314 314 312 311 311 313 314 314 314 314 313 312 313 314 315 312 311 310 310 309 311 312 312 312 311 310 310 311 311 312 314 325 330 331 327 330 335 332 330 329 331 329 332 329
313 309 311 312 312 313 312 312 313 314 314 313 313 313 315 313 313 312 312 313 313 312 312 312 312 312 312 312 312 312 311 312 319 327 329 327 329 331 330 332 331 331 331 331
311 310 311 312 312 312 313 312 313 314 314 314 313 312 314 311 313 314 314 314 313 313 313 312 311 312 312 313 312 311 310 310 311 313 320 326 328 331 329 327 328 327 328 328
311 308 311 312 310 311 311 312 312 313 313 312 312 313 314 313 313 314 313 313 312 312 311 311 311 312 312 312 313 313 312 311 310 310 311 321 321 326 326 326 325 324 324 325
312 310 310 309 310 310 312 312 313 312 314 312 309 313 313 311 312 314 313 313 312 312 312 311 311 311 312 312 312 313 313 313 314 313 313 313 314 316 319 320 322 323 321 321
311 311 311 310 312 311 312 312 315 319 316 314 307 312 313 310 310 314 313 312 312 312 312 311 311 311 312 312 312 312 313 313 313 313 313 313 314 313 313 312 312 312 311 311
311 312 310 310 310 312 312 312 312 311 307 315 312 312 311 310 311 313 312 311 312 312 311 311 311 311 311 312 312 312 312 312 312 312 312 311 311 311 311 311 311 312 312 312
312 312 310 308 310 309 311 311 311 312 319 317 313 313 313 311 311 312 311 312 312 312 311 310 310 311 311 312 312 312 312 312 312 312 312 312 312 311 311 310 309 309 309 309
311 313 310 310 311 312 310 311 311 311 314 324 317 312 312 313 312 313 312 312 312 311 310 309 310 311 311 311 311 311 311 310 310 308 308 307 307 306 306 306 306 306 306 306
310 313 313 311 309 308 311 312 311 312 313 311 314 316 309 312 312 313 312 312 311 311 310 309 310 310 310 310 309 309 308 307 306 305 305 304 304 303 303 302 302 302 301 301
310 314 315 312 311 309 310 311 312 312 315 318 317 313 308 310 313 313 313 311 311 310 308 308 308 308 308 308 308 307 306 304 303 302 302 302 301 301 301 301 300 300 299 299
309 313 312 312 312 312 311 311 310 312 313 313 313 313 310 312 313 313 312 310 310 309 308 307 307 307 307 306 305 304 303 302 302 301 300 300 299 299 298 297 297 296 296 296
310 313 311 311 312 312 313 312 312 311 312 312 312 312 312 312 313 312 311 310 310 309 308 307 307 307 306 305 303 302 301 301 300 299 299 298 296 296 296 295 295 295 295 295
310 315 312 314 312 311 312 312 312 311 311 311 311 312 313 311 311 312 311 311 310 309 308 307 307 306 304 303 302 301 300 298 298 297 296 295 295 295 295 295 295 295 295 295
312 313 315 316 312 313 314 312 312 312 311 312 312 312 311 312 312 312 311 310 309 309 308 307 306 305 303 302 301 299 298 297 297 296 295 296 296 296 296 295 295 295 295 295
311 313 315 316 314 314 312 307 311 312 312 311 311 312 311 311 311 311 311 310 309 309 308 307 305 303 302 301 299 298 298 297 296 296 296 296 295 295 295 295 295 294 295 295
310 312 314 315 315 314 314 305 309 311 311 311 311 311 311 311 311 311 310 310 309 309 308 306 304 302 301 300 299 298 297 297 296 296 295 295 295 295 294 294 294 294 294 294
306 310 313 313 317 316 312 306 307 310 312 311 310 310 309 309 310 311 309 309 309 309 308 304 302 301 300 299 298 298 297 296 296 295 295 295 294 294 294 294 294 294 294 294
310 309 313 312 316 316 305 300 306 314 316 303 310 310 308 308 310 310 308 308 308 308 304 302 300 300 299 298 298 297 296 296 295 295 295 294 294 294 293 293 293 293 293 293
309 312 313 313 314 315 300 300 310 308 299 301 308 309 307 308 307 307 307 307 306 304 301 300 300 299 298 297 296 296 296 295 295 295 294 294 293 292 292 292 293 293 293 292
311 310 311 311 313 303 300 302 302 301 301 300 305 307 307 305 304 303 304 304 302 300 300 299 298 297 296 296 296 295 295 295 294 294 293 292 291 290 290 290 290 291 291 291
303 300 307 308 306 303 300 299 300 300 300 300 301 305 304 303 300 300 300 299 299 300 299 298 297 296 296 295 295 294 293 292 292 291 290 289 289 289 288 289 289 289 289 289
303 302 305 304 299 299 300 301 300 299 300 300 301 302 303 304 300 300 298 298 298 297 297 296 296 295 294 293 292 292 291 290 289 288 288 288 288 288 288 289 288 289 289 288
298 303 306 309 303 304 303 304 301 300 300 301 302 302 302 303 301 300 298 297 297 296 296 295 294 293 292 291 290 290 289 288 288 288 288 288 288 288 289 289 289 289 289 288

GFSCGP_850_thetae_096.txt.gz
Theta_e
313 313 313 312 312 313 315 314 314 314 313 313 313 314 313 313 313 314 315 315 315 315 314 313 313 315 325 329 331 332 333 334 332 328 327 328 328 328 329 332 332 335 334 329
313 313 313 313 313 313 314 314 314 312 312 313 313 312 312 313 313 314 314 315 315 314 313 313 312 312 312 313 319 328 330 332 333 332 330 327 330 331 332 334 333 332 331 329
313 313 313 312 312 313 313 314 312 314 312 312 312 312 313 312 313 313 313 313 312 312 313 312 311 311 311 311 311 314 325 330 332 333 332 334 334 333 332 333 331 331 331 327
313 311 312 311 311 312 312 312 313 312 312 311 311 307 312 309 309 310 311 310 311 311 312 312 312 311 311 311 310 310 312 323 329 331 332 329 333 330 329 327 329 327 327 326
311 309 311 312 312 312 313 312 313 314 313 313 311 309 311 309 310 310 312 313 313 313 312 312 312 312 312 312 312 311 310 312 324 329 330 331 330 328 326 325 325 324 325 325
310 309 311 311 310 311 310 311 312 312 311 310 310 308 309 308 309 311 313 314 313 313 312 312 311 311 312 312 312 311 309 310 313 322 327 327 327 325 325 323 323 323 323 323
310 309 309 310 309 310 311 310 310 310 310 310 306 310 310 310 312 312 312 313 312 312 311 311 311 311 311 312 313 313 312 310 310 312 315 321 320 323 324 323 324 323 322 320
310 311 309 309 310 310 310 309 312 312 314 311 306 309 309 308 311 314 313 312 312 312 312 311 311 311 311 311 313 313 314 314 314 314 314 315 316 316 315 314 312 312 311 311
310 312 309 309 310 310 310 310 311 308 303 311 308 309 309 308 310 312 312 312 312 312 311 311 310 311 311 311 311 312 312 313 313 312 312 312 311 311 311 311 311 311 311 310
311 311 310 308 309 309 309 308 309 310 307 310 310 310 309 309 309 310 310 311 312 312 311 310 310 310 310 310 311 311 311 311 311 311 311 311 311 311 310 308 308 307 307 306
311 312 310 309 309 310 308 309 310 309 312 313 311 308 309 309 309 311 310 311 312 312 311 310 310 310 310 310 310 311 311 311 311 310 309 308 307 306 305 305 303 302 301 301
310 311 311 310 308 308 308 310 309 310 310 308 312 310 309 309 308 311 311 311 312 312 310 310 310 310 310 310 310 310 309 308 307 306 305 304 303 302 302 301 301 299 298 298
309 312 311 311 310 309 309 309 310 309 310 310 309 308 307 308 309 311 311 312 312 311 310 309 309 309 309 309 309 308 306 305 304 303 302 302 301 300 299 298 297 296 296 296
310 313 311 310 310 309 310 310 309 310 310 309 309 309 309 309 309 311 311 311 311 311 310 309 308 309 309 308 307 305 303 302 302 301 300 300 298 297 296 296 296 296 296 296
310 311 310 309 309 310 310 310 310 309 310 309 310 309 308 308 309 311 311 311 311 310 309 308 308 308 307 306 304 303 302 301 300 300 299 297 296 296 296 296 296 296 295 295
309 310 309 308 309 310 310 310 310 310 309 310 309 308 308 310 312 312 311 310 310 310 309 308 308 307 306 305 303 302 301 300 299 298 296 296 296 297 297 297 296 296 295 295
309 309 310 310 310 309 309 309 310 310 309 309 309 310 309 308 310 311 311 310 310 310 309 308 308 307 305 304 302 301 300 298 297 296 296 297 297 297 296 296 295 295 294 294
308 307 310 310 309 311 309 307 309 310 310 309 309 309 308 309 311 311 312 311 310 309 309 308 308 306 304 302 301 300 298 297 297 296 296 297 296 296 295 295 294 294 293 293
309 308 311 311 306 308 309 305 306 307 309 309 309 309 309 311 310 310 311 311 310 310 309 308 308 306 303 302 300 299 298 297 297 296 296 296 295 295 295 294 293 292 292 292
308 310 311 312 314 314 309 307 308 307 309 307 308 308 307 309 309 308 311 311 310 310 309 308 307 305 303 301 299 298 298 297 296 296 295 295 295 294 293 292 291 291 291 291
311 310 312 313 314 308 304 304 309 309 310 305 308 309 309 309 310 310 311 311 310 309 308 308 306 304 302 300 299 298 298 297 296 295 295 294 294 293 291 291 290 290 289 289
311 312 312 313 314 313 300 302 309 306 301 303 308 310 309 309 308 309 310 310 310 309 308 307 304 302 300 299 298 298 297 296 296 295 294 293 292 291 290 289 289 289 288 288
309 308 311 311 309 301 302 303 304 301 302 302 303 308 309 308 307 308 308 308 308 308 306 303 302 300 299 298 297 297 296 296 295 294 292 291 290 289 288 288 288 288 288 288
304 301 307 306 304 301 301 301 302 303 301 301 301 304 307 307 305 305 304 304 305 304 302 301 300 299 299 297 296 296 295 294 292 291 290 289 289 288 288 288 288 289 289 289
301 300 300 301 301 300 302 302 302 302 301 300 300 301 305 306 304 304 304 304 303 301 300 299 299 298 297 296 295 294 293 291 290 289 289 289 289 289 289 289 289 289 288 288
298 301 303 303 303 304 303 303 304 302 301 301 300 301 302 304 304 303 303 302 301 300 299 298 298 297 296 295 294 292 291 290 289 289 289 288 288 288 288 288 288 288 288 287

GFSCGP_850_thetae_099.txt.gz
Theta_e
312 311 312 310 309 311 312 312 312 310 311 312 310 310 309 311 312 313 312 313 314 314 315 316 326 328 329 330 331 331 331 331 333 332 328 327 327 328 329 330 333 331 328 328
311 311 311 311 310 311 311 311 311 311 311 311 310 311 310 309 311 313 314 313 314 313 313 313 313 321 327 329 330 331 332 332 332 332 332 326 331 333 332 329 328 329 328 327
311 312 311 311 310 311 310 311 309 311 311 311 311 309 312 311 312 312 313 313 313 314 313 313 313 312 312 320 328 329 331 332 332 332 333 331 330 330 329 329 328 328 327 327
311 311 311 310 310 310 311 311 310 311 309 308 307 306 307 308 308 309 311 312 312 312 312 313 312 312 311 311 311 316 328 330 331 332 332 330 330 327 327 326 326 326 326 325
311 310 310 310 311 310 311 311 311 310 311 308 310 306 305 306 309 308 309 311 310 311 312 312 312 312 311 311 311 310 311 325 328 330 330 330 329 326 325 325 324 324 323 323
309 309 310 310 309 310 309 310 309 308 307 308 307 305 305 307 308 307 309 311 312 312 312 312 312 311 311 312 312 311 310 311 325 328 329 328 326 326 324 323 322 322 322 322
308 309 308 309 309 309 309 308 308 308 309 308 306 307 306 308 307 308 309 312 313 312 312 312 311 311 312 312 313 310 309 310 317 325 327 327 325 321 321 321 321 321 321 320
309 309 308 308 309 309 307 308 308 308 310 308 305 308 308 308 310 311 312 313 313 312 311 311 311 311 312 313 313 313 310 310 314 319 324 325 323 320 322 320 318 314 312 310
309 310 308 308 309 309 308 309 308 307 297 307 306 305 307 308 310 310 311 312 311 311 311 311 311 310 311 313 314 314 313 312 312 313 315 318 315 314 312 310 310 310 309 308
308 310 309 308 309 308 308 307 309 307 309 307 307 307 306 307 306 308 309 310 311 311 311 310 310 310 310 311 312 313 314 314 314 314 313 311 310 310 310 309 308 307 305 303
310 310 309 308 308 308 308 307 308 309 307 307 306 306 304 307 307 309 309 311 311 311 311 310 309 309 310 310 310 311 311 311 310 310 310 310 309 307 306 305 303 302 301 300
309 309 310 308 308 307 308 308 308 308 308 308 308 308 307 306 305 310 309 311 311 311 311 310 309 309 309 309 309 310 310 310 310 309 307 306 305 303 302 301 300 298 297 297
309 309 309 310 309 308 309 308 308 308 306 307 306 306 306 306 305 309 309 310 311 311 310 309 308 308 309 309 309 309 309 308 307 305 304 302 302 301 300 298 297 296 296 296
310 311 310 310 309 308 309 308 307 308 308 308 307 307 308 307 306 308 309 310 311 311 310 310 309 308 308 309 308 307 306 305 304 302 301 301 300 298 296 296 296 296 297 296
310 308 309 308 308 309 309 309 308 308 309 308 309 308 306 306 307 309 309 310 311 311 310 310 309 308 308 308 307 305 304 303 301 301 300 298 296 296 297 297 297 297 297 296
308 308 308 308 307 309 309 308 309 309 309 309 309 308 306 308 309 310 310 310 310 310 311 310 309 309 308 307 306 304 303 301 300 299 298 296 296 297 297 298 297 297 296 294
308 308 307 312 308 308 310 309 308 308 309 308 308 309 306 306 308 309 309 310 311 311 311 311 310 309 308 307 306 304 302 300 299 297 296 296 297 297 298 297 297 296 294 293
304 306 304 307 306 310 309 307 308 308 309 308 308 308 306 308 310 311 311 312 311 311 311 311 310 309 308 307 304 302 300 299 298 296 296 297 297 297 297 297 296 293 292 292
306 305 306 309 299 305 307 306 305 307 309 307 308 308 307 309 308 309 311 312 312 312 312 311 311 309 308 306 303 301 299 298 296 296 296 297 297 297 296 295 293 292 291 291
307 307 306 296 301 305 307 305 306 306 309 307 308 308 305 307 308 309 310 311 311 311 310 310 309 309 307 305 302 300 298 297 296 296 297 297 297 296 295 292 291 291 290 290
310 308 310 308 305 305 303 304 307 309 309 307 307 308 307 306 309 309 310 310 310 311 310 310 309 309 307 304 301 299 298 297 297 297 297 297 296 295 292 291 290 290 289 289
312 312 312 311 312 312 302 304 309 306 302 304 307 309 308 308 308 309 310 310 310 310 310 309 308 307 305 302 300 298 297 297 296 297 296 295 294 291 290 290 289 289 289 289
311 311 311 312 311 302 302 303 303 303 302 302 303 305 308 308 308 308 309 309 310 310 309 308 307 307 303 300 298 298 298 297 297 296 296 294 291 290 289 289 289 289 289 289
304 303 306 305 304 303 301 302 303 304 303 302 302 302 305 307 308 308 308 309 308 308 307 307 307 304 300 298 297 298 297 297 298 297 294 291 290 289 289 289 289 289 288 288
303 304 304 303 302 301 303 304 304 302 303 302 302 301 302 305 306 307 307 307 307 307 306 306 304 302 299 298 297 296 296 298 296 294 291 290 289 289 289 288 288 288 288 288
298 301 303 303 303 304 302 303 305 305 304 302 301 301 301 302 304 305 306 306 306 305 304 303 302 300 298 297 296 296 298 298 294 291 289 289 289 289 288 288 288 288 287 287

GFSCGP_850_thetae_102.txt.gz
Theta_e
311 311 313 312 308 310 310 311 312 311 310 311 309 311 308 311 311 310 311 312 314 318 321 324 327 329 329 329 329 330 330 330 331 331 331 326 332 333 334 332 329 326 327 327
311 312 311 311 310 311 310 310 310 310 310 310 309 310 309 308 309 311 312 312 313 315 316 319 325 327 329 329 330 330 330 329 330 330 330 332 327 331 329 327 327 327 327 327
311 311 310 310 310 310 309 309 308 311 310 310 309 309 310 309 310 311 311 312 313 314 313 315 318 326 328 329 329 330 330 331 331 331 332 332 330 326 327 327 327 327 326 326
310 310 310 310 311 310 309 308 309 309 308 308 307 308 304 308 308 308 311 312 312 313 312 313 313 314 320 326 327 329 330 331 331 332 332 330 327 326 326 326 325 325 325 325
311 309 309 311 311 309 310 309 310 309 307 308 308 305 304 306 307 307 309 311 312 313 313 313 312 312 312 312 315 325 328 329 331 332 331 329 328 327 326 325 324 324 324 323
309 308 309 310 309 309 308 308 307 306 306 308 306 306 305 305 307 308 308 310 311 311 312 312 312 312 312 312 311 311 311 320 327 329 330 328 328 327 325 324 323 322 322 322
308 308 308 309 309 309 309 309 308 307 309 309 305 304 307 305 305 306 307 309 310 310 311 311 311 311 311 311 311 311 310 310 314 326 329 327 327 325 323 322 321 321 320 320
309 309 308 307 309 309 307 308 307 307 308 306 305 307 308 305 307 308 309 311 311 311 311 312 312 311 311 311 312 311 309 309 309 320 327 328 326 324 322 321 320 319 319 314
308 309 308 307 308 309 309 308 306 307 297 307 306 304 305 306 307 309 309 310 311 312 312 312 311 311 311 312 314 312 309 310 313 319 325 327 324 324 319 321 319 314 310 309
307 309 308 308 308 308 308 307 310 307 308 309 307 306 305 307 306 307 307 309 311 311 311 311 310 310 311 313 315 314 311 312 315 318 323 325 325 318 316 312 310 309 308 306
308 309 309 308 308 308 307 307 307 307 308 309 306 306 303 306 307 307 307 309 311 311 310 310 310 310 310 312 314 315 314 314 315 317 318 319 314 311 310 309 307 305 302 301
309 308 309 308 308 307 307 307 307 310 308 306 307 307 305 304 305 307 309 310 311 311 311 310 310 310 310 311 313 314 315 315 316 315 312 310 310 308 307 304 302 301 298 297
308 309 308 310 308 307 308 307 307 306 306 309 308 307 303 305 306 306 309 310 311 311 311 310 309 309 309 310 310 310 310 310 310 310 310 309 307 304 302 301 299 297 296 296
309 309 309 310 309 308 309 308 306 307 307 306 307 307 306 306 306 306 308 310 310 311 311 310 309 309 309 308 309 309 309 309 309 308 307 305 302 301 299 297 296 296 297 297
309 307 308 308 307 308 308 309 308 307 309 308 309 306 306 304 305 307 308 309 310 310 310 310 309 308 308 308 308 308 308 307 307 305 303 302 300 298 296 296 297 297 297 297
306 305 307 306 307 308 309 307 308 308 308 307 307 306 305 307 307 308 309 309 310 310 311 310 310 309 308 308 308 307 307 305 304 302 301 300 297 296 296 297 297 297 297 296
308 306 306 310 307 309 309 308 307 308 308 308 308 309 304 305 305 308 309 309 310 311 311 311 311 310 309 309 309 308 306 304 302 300 299 297 296 296 297 297 297 297 296 294
305 306 305 307 307 313 311 307 306 307 307 308 307 307 306 307 309 310 310 311 311 310 310 311 311 310 310 309 308 306 304 302 300 299 297 296 296 297 297 297 297 296 294 293
303 303 301 304 293 306 306 304 306 306 309 306 307 307 306 308 308 308 310 310 311 311 311 311 311 311 310 309 308 305 303 300 299 298 296 296 296 297 297 297 297 294 293 292
305 304 305 289 301 305 307 304 305 306 310 308 307 307 304 305 307 309 310 310 310 311 311 311 311 310 310 309 308 305 302 300 299 297 296 296 296 296 296 296 294 293 291 291
306 303 308 294 296 300 300 303 306 308 308 306 307 307 306 305 308 309 309 309 310 310 311 310 310 310 310 309 307 304 301 299 299 296 295 296 296 296 296 294 292 291 291 290
308 307 306 300 302 308 303 303 307 306 303 304 306 307 307 307 307 308 308 309 309 310 309 309 310 309 308 308 307 304 301 299 297 295 295 296 296 295 294 292 291 290 290 289
310 308 309 308 307 301 303 303 303 304 303 301 302 303 306 307 308 308 308 308 309 309 309 309 309 309 307 307 306 305 301 299 296 295 295 296 295 294 292 291 290 290 289 289
304 303 306 308 305 303 302 302 303 302 303 303 304 303 302 304 306 307 308 308 309 309 308 308 308 307 307 306 305 303 300 297 296 296 296 295 295 293 291 290 289 289 288 288
302 305 305 304 304 302 302 302 302 303 303 303 303 303 302 302 303 304 305 307 308 308 308 307 306 306 306 306 303 300 298 297 296 295 295 295 293 292 292 289 289 288 288 288
299 303 306 306 304 305 304 305 306 306 306 306 304 302 302 301 301 303 304 305 306 306 306 306 305 305 306 304 300 298 296 296 296 295 295 297 298 292 289 289 288 288 288 287

GFSCGP_850_thetae_105.txt.gz
Theta_e
310 311 314 317 317 311 311 311 312 310 309 310 309 310 309 309 309 313 321 324 325 324 322 324 325 328 329 330 331 332 333 333 333 333 332 332 329 330 329 328 328 327 327 325
310 311 311 312 310 311 309 311 311 310 309 310 308 309 308 307 308 310 313 315 317 321 324 325 327 329 329 330 330 331 331 333 332 332 330 330 329 325 328 327 327 327 326 325
310 310 310 311 311 311 309 311 310 312 309 309 309 309 310 309 309 310 311 311 311 312 315 321 324 324 327 328 328 329 329 330 331 330 330 332 330 328 326 326 326 326 325 325
311 310 311 311 312 312 312 308 309 309 309 310 308 309 306 307 308 307 310 311 312 312 313 315 319 323 326 327 328 329 329 330 330 330 330 332 329 328 326 325 325 325 326 326
310 310 312 312 312 310 311 308 309 309 308 308 307 306 305 305 307 307 308 312 312 312 312 314 314 316 324 328 328 329 329 329 330 330 331 330 329 328 325 325 325 324 324 324
308 309 311 312 310 310 308 308 307 306 306 308 307 307 306 304 306 307 310 311 313 313 312 312 312 313 315 321 326 327 328 328 329 330 331 330 329 328 326 324 324 323 323 322
307 307 307 308 309 308 309 309 310 310 310 311 304 304 311 305 303 304 306 310 312 312 312 312 312 312 312 312 312 312 313 319 324 328 330 332 329 327 326 325 324 322 322 321
310 310 306 306 309 309 308 310 309 309 308 308 304 306 306 304 306 307 308 309 310 311 311 312 312 312 312 312 312 311 311 311 311 313 324 331 332 326 326 324 322 321 320 319
308 309 307 306 307 309 307 307 307 307 298 306 305 304 304 305 303 306 308 308 309 310 310 311 311 311 311 311 311 311 311 311 310 309 317 329 329 326 325 322 321 319 319 319
306 309 308 307 307 308 308 307 309 307 307 307 306 305 306 305 307 305 306 308 309 309 310 310 310 311 311 311 311 311 312 310 310 311 317 329 327 326 323 321 318 318 317 311
306 308 308 307 307 307 306 307 307 308 308 308 306 306 302 305 307 306 306 308 309 309 310 311 311 311 311 310 311 313 313 310 312 318 325 328 327 326 322 319 318 314 309 307
307 307 307 307 307 307 307 307 309 311 309 304 306 306 305 303 303 306 307 309 310 310 311 311 311 310 310 310 312 314 313 313 317 321 324 326 326 324 319 314 311 308 306 302
307 307 306 309 308 307 307 306 307 306 306 308 307 309 303 304 305 306 306 309 310 311 311 310 310 310 310 310 312 314 315 315 317 319 322 322 322 316 311 309 307 303 301 298
308 308 308 309 308 307 309 307 306 307 308 307 306 308 306 305 305 306 307 308 310 311 311 310 310 310 309 309 311 313 315 316 316 317 318 317 312 310 308 305 301 299 296 296
308 308 307 307 308 307 308 308 307 307 309 308 310 306 307 305 305 306 308 308 309 310 310 310 310 310 309 309 310 311 312 314 314 313 311 309 308 306 302 300 298 296 296 296
306 304 306 306 307 307 308 307 308 308 308 308 308 306 304 306 306 307 309 308 309 310 311 311 310 310 309 309 309 309 309 309 309 308 308 307 304 302 300 297 296 296 297 296
307 304 302 304 305 307 308 307 307 307 308 309 307 308 303 303 304 307 308 309 310 311 311 311 311 311 310 310 309 309 309 308 308 307 305 303 301 300 297 296 296 296 296 296
307 308 305 303 306 309 308 305 305 307 307 307 307 306 305 306 308 309 310 310 310 310 310 311 311 311 311 310 309 309 308 308 307 305 303 301 300 297 296 296 297 296 296 295
303 305 303 309 301 305 308 305 307 307 309 305 306 305 306 307 307 308 309 310 310 311 311 311 311 311 311 311 309 308 308 306 305 303 301 299 297 296 296 296 296 296 295 293
303 303 306 292 308 310 310 303 306 306 310 310 308 305 304 305 306 309 310 310 311 311 310 310 310 310 310 310 310 309 308 307 305 303 300 298 296 296 296 296 296 296 293 292
304 301 307 292 299 299 300 302 307 308 309 307 306 308 306 304 308 309 308 309 309 309 310 309 309 310 310 309 310 309 308 307 305 302 299 297 295 295 296 296 295 294 292 291
307 307 304 296 297 308 301 301 307 306 304 304 306 306 306 307 307 307 308 308 308 308 309 309 309 309 310 309 309 308 307 306 304 301 298 296 295 295 295 295 294 292 290 290
309 307 307 305 305 303 302 302 303 305 303 302 304 302 303 305 306 307 308 308 308 308 308 309 308 308 308 309 308 308 308 306 304 299 297 295 295 295 295 294 292 291 290 292
304 303 304 307 304 303 302 303 303 302 302 303 304 303 303 302 303 304 305 306 307 308 308 308 307 307 307 307 307 306 306 306 302 299 296 294 294 295 294 293 291 290 289 293
302 303 303 302 303 301 302 302 302 302 303 304 304 303 302 302 301 302 303 303 304 306 307 307 307 307 306 306 305 304 305 303 300 298 295 294 294 295 294 292 289 293 296 291
301 304 306 304 303 303 303 303 304 304 304 304 304 303 301 301 301 301 301 301 303 304 305 306 306 306 305 305 304 304 303 301 299 297 295 294 294 294 292 291 298 296 290 288

GFSCGP_850_thetae_108.txt.gz
Theta_e
311 313 319 318 315 313 316 317 318 310 310 310 309 310 310 309 309 315 322 325 326 326 323 326 327 329 330 330 330 330 331 331 332 332 332 332 331 329 328 327 327 327 326 325
311 312 312 315 315 315 311 311 314 311 309 308 309 309 307 306 308 311 315 320 323 322 323 322 323 328 329 330 330 330 330 331 332 332 332 331 330 329 328 327 327 327 326 325
313 311 311 312 311 313 314 312 310 312 309 308 309 309 308 307 308 309 311 314 317 319 320 319 321 323 325 328 329 329 330 331 332 333 333 333 332 329 328 326 325 325 325 324
311 310 310 310 310 310 313 310 309 310 314 315 308 312 308 306 307 305 310 311 313 314 315 315 317 321 324 326 328 328 329 329 331 331 333 333 331 329 328 326 325 325 324 324
310 310 309 311 311 311 312 308 309 309 309 307 308 307 308 305 306 306 307 311 313 314 313 313 313 314 319 322 323 326 328 328 329 330 332 332 331 330 328 326 324 325 325 324
308 308 308 309 310 310 309 311 308 306 307 310 310 308 308 305 306 306 309 312 313 314 314 313 312 312 316 319 322 325 326 328 328 329 330 331 330 329 328 327 325 323 323 323
307 306 306 310 310 310 310 313 314 311 309 312 302 305 310 307 303 305 308 313 315 314 313 312 313 312 313 315 319 324 326 327 328 329 329 329 330 329 328 327 325 323 323 322
310 310 305 305 309 310 311 313 313 313 311 310 304 307 307 305 307 308 308 309 310 311 313 313 313 312 313 313 314 318 323 325 326 327 327 328 330 330 328 327 326 324 323 322
309 309 306 305 306 308 306 312 310 307 299 306 306 305 304 304 305 305 306 308 310 311 311 311 312 312 312 312 312 312 312 312 311 311 312 320 327 330 328 326 324 324 322 320
306 308 306 306 306 307 307 307 309 307 310 308 306 305 307 307 306 307 305 308 312 311 310 309 310 311 311 311 311 311 312 311 311 311 311 310 318 329 327 327 324 322 320 318
304 306 307 306 306 305 305 307 307 308 308 310 307 308 302 306 306 307 307 306 307 309 310 309 309 310 311 311 311 311 311 311 311 311 310 310 314 328 329 326 323 321 318 317
304 305 306 306 306 305 305 306 308 310 309 304 307 310 303 303 303 304 306 307 308 309 311 310 309 310 310 310 311 311 310 311 312 310 310 312 323 323 324 324 323 320 316 317
305 306 302 307 307 306 306 305 306 306 306 309 309 311 303 304 305 306 306 308 308 309 309 309 310 310 311 311 311 310 311 313 313 313 315 320 321 323 323 323 322 318 316 310
308 307 307 308 308 306 308 306 305 306 307 308 307 309 308 306 305 306 308 309 308 309 310 310 311 311 311 310 310 310 311 313 313 317 319 320 321 321 322 323 319 315 309 304
308 310 307 306 306 307 308 308 306 307 309 309 310 308 307 306 306 306 308 309 309 309 310 311 311 311 311 310 310 310 311 313 314 317 318 318 319 320 322 319 313 308 303 299
305 304 306 305 306 306 307 308 307 308 308 308 309 308 307 307 307 307 308 308 309 310 310 311 311 311 311 310 310 310 310 312 314 316 318 319 319 320 317 310 307 302 299 296
306 303 302 304 305 306 306 307 307 307 307 309 308 309 304 304 303 306 309 308 309 310 310 310 311 311 311 311 310 310 310 311 314 315 316 317 317 312 308 305 301 298 296 296
306 309 305 307 305 308 307 305 305 306 307 307 308 306 305 306 308 308 309 309 310 310 310 310 310 310 311 311 311 310 309 310 311 313 313 312 309 306 304 300 298 296 295 296
305 307 306 309 307 307 306 304 303 304 307 304 304 304 305 307 307 307 309 309 310 310 311 311 311 310 310 310 311 310 309 309 308 309 308 307 306 303 300 298 296 295 296 296
302 307 309 297 310 309 308 304 306 307 309 307 305 303 303 304 305 308 309 309 310 310 310 310 309 309 309 310 309 310 310 309 308 308 307 306 304 301 299 297 295 296 296 295
302 300 308 297 307 302 300 302 308 310 309 304 306 308 305 303 307 308 309 308 308 309 309 309 309 309 308 309 309 309 309 309 309 307 306 305 302 299 297 295 295 296 295 294
306 307 304 294 297 308 300 302 309 307 303 305 306 305 306 307 307 307 308 308 308 308 308 308 308 308 308 308 308 309 309 309 308 307 306 304 301 298 296 295 295 295 294 293
307 306 307 307 306 302 302 304 305 305 304 304 305 304 305 306 306 306 306 306 307 308 308 307 307 308 307 307 308 308 308 307 307 306 305 303 299 297 295 294 295 294 293 291
303 303 304 306 303 302 302 303 303 303 302 302 302 303 302 302 302 303 303 304 303 304 306 308 308 308 307 307 307 307 306 306 305 304 304 302 298 296 294 294 294 294 293 290
300 302 301 301 302 301 301 302 301 301 302 303 302 302 301 302 301 301 301 301 301 302 303 305 307 307 306 305 306 305 305 305 303 302 302 300 297 295 294 294 294 294 291 289
301 304 304 301 302 302 302 300 302 302 302 302 301 300 300 300 300 300 300 300 300 301 301 303 305 306 306 305 305 304 304 303 302 301 301 299 296 294 293 294 293 292 289 293

GFSCGP_850_thetae_111.txt.gz
Theta_e
312 316 324 320 321 319 321 323 323 311 317 311 309 310 311 311 309 315 319 322 324 324 320 322 324 326 328 330 331 331 331 331 331 331 330 330 330 330 329 329 327 326 325 325
311 313 317 318 316 314 316 317 318 317 309 308 308 309 309 307 309 310 314 319 321 323 321 322 322 323 325 327 328 330 330 331 331 331 331 331 331 330 328 327 326 325 325 325
313 313 312 316 316 317 314 312 311 311 309 308 308 311 309 307 308 310 311 313 316 320 319 320 321 320 320 323 326 327 328 329 330 330 331 332 332 331 329 327 325 326 325 325
311 311 311 313 316 318 319 311 312 310 312 315 309 313 310 308 307 305 311 311 313 315 317 318 319 319 318 318 320 324 326 328 328 330 331 332 332 331 328 327 326 326 324 324
314 312 310 311 313 312 311 307 307 310 310 308 307 309 307 305 306 306 308 312 314 314 315 316 316 317 317 318 319 321 323 325 327 328 329 330 331 331 329 329 326 326 324 323
310 308 309 309 309 310 309 312 312 307 307 311 310 310 308 310 306 308 308 312 315 315 315 315 315 314 313 314 318 321 324 325 326 327 328 329 330 331 330 330 327 326 324 323
308 306 307 310 310 309 311 314 316 316 314 314 303 308 313 308 304 306 309 313 315 316 315 315 314 314 314 312 312 317 321 323 324 326 327 327 328 330 331 330 327 327 326 323
312 312 306 307 310 311 313 314 312 313 311 310 303 308 309 306 310 308 310 310 310 312 314 315 315 315 314 312 312 314 317 318 321 324 325 327 328 329 331 331 328 327 326 324
309 310 304 306 306 311 310 315 308 306 297 306 306 306 305 303 304 306 307 309 312 312 312 313 313 313 312 311 311 313 314 315 320 324 325 327 328 329 329 330 330 327 326 324
306 308 305 305 306 307 310 309 314 309 306 307 307 305 310 306 306 306 306 309 311 310 311 311 311 311 311 311 311 312 313 315 318 321 322 321 321 322 326 328 331 328 326 323
304 306 307 305 305 306 305 310 307 310 307 308 307 308 303 307 306 307 306 308 310 310 310 310 311 311 310 309 310 311 311 312 311 311 311 311 311 310 311 329 328 328 325 323
304 305 306 305 305 303 305 307 308 310 307 304 306 308 305 303 305 306 307 310 309 309 309 309 310 310 310 310 309 310 311 311 311 311 311 310 310 310 309 323 326 326 324 321
304 306 304 308 306 305 304 303 308 306 304 307 307 310 305 302 304 306 307 308 309 309 309 309 310 309 309 310 310 311 311 311 310 310 310 311 310 310 316 323 326 325 323 320
308 306 307 309 308 306 307 304 304 307 306 309 307 309 306 307 305 305 307 309 310 310 310 310 310 310 309 309 310 310 310 311 310 310 311 311 311 311 318 320 324 322 322 322
306 307 305 305 305 306 306 305 304 306 308 308 310 309 307 306 306 308 309 308 309 310 310 310 311 311 311 311 311 311 310 310 310 311 312 311 315 318 319 322 322 321 320 319
304 303 305 305 304 305 307 306 306 307 308 307 309 308 306 308 308 306 308 308 309 309 309 310 310 311 311 311 311 310 310 310 310 312 312 315 317 317 320 321 320 319 317 316
306 304 300 308 304 304 304 305 306 306 307 308 308 309 305 305 303 306 308 309 310 310 309 309 310 310 310 310 311 311 310 310 310 312 312 315 316 317 318 318 317 317 315 308
306 307 299 296 299 309 307 303 305 306 307 306 307 306 306 306 309 308 309 309 309 309 309 309 309 309 310 310 310 310 310 310 309 310 313 314 315 315 316 316 316 313 307 302
302 304 299 304 297 305 306 305 303 304 306 303 304 304 305 307 306 308 309 309 309 309 309 309 309 309 309 309 309 309 310 310 309 310 311 314 315 315 314 314 311 305 302 298
302 305 305 296 308 308 309 303 303 304 308 307 304 303 303 304 304 306 308 309 310 308 308 308 309 309 309 309 308 309 309 309 310 309 310 312 314 315 315 313 307 303 299 296
297 300 308 302 309 302 301 302 306 307 307 304 306 305 304 303 306 307 308 308 308 308 309 309 308 308 308 307 307 308 308 308 309 309 309 309 311 312 310 307 303 299 297 295
301 302 300 293 308 309 300 302 307 307 303 307 306 306 307 306 306 307 307 307 308 309 309 309 310 309 308 308 307 307 307 307 307 308 307 307 308 307 305 303 300 297 295 295
305 304 302 305 305 302 301 302 304 305 305 306 307 307 306 306 306 307 306 306 306 306 305 306 308 309 308 308 307 307 307 306 307 306 306 306 305 304 303 300 297 295 294 294
303 302 302 303 302 302 301 302 302 302 303 303 303 303 303 303 302 302 302 303 303 303 303 303 306 308 308 308 307 306 306 306 305 305 305 304 304 303 302 299 296 295 294 294
301 301 299 298 301 300 300 301 300 300 301 301 301 301 301 301 300 300 300 300 301 301 301 301 303 305 306 307 306 305 305 305 304 304 303 302 302 302 300 297 296 295 294 294
301 303 305 300 301 301 299 300 300 301 301 301 301 299 299 299 299 299 300 300 300 300 300 301 301 302 304 305 306 305 304 303 302 302 302 301 301 300 299 297 295 293 293 293

GFSCGP_850_thetae_114.txt.gz
Theta_e
314 323 329 327 327 324 324 328 328 321 322 319 319 322 322 320 312 315 318 322 325 325 324 325 327 329 330 330 331 329 325 323 323 324 325 326 327 327 327 328 328 327 326 324
316 322 323 324 322 324 326 328 328 324 313 314 319 320 320 318 314 313 315 318 322 324 325 321 322 327 330 330 329 331 331 331 331 330 329 329 329 328 329 329 327 327 326 325
320 317 318 321 317 320 321 327 322 321 312 312 315 322 319 316 315 313 311 313 317 322 322 322 321 322 324 326 327 328 329 329 330 330 331 331 331 331 330 328 327 326 325 325
316 311 317 319 317 317 317 313 313 314 315 323 318 329 324 320 319 312 312 312 313 314 316 322 319 320 320 320 322 325 326 327 328 329 331 331 330 330 330 328 327 326 324 325
316 313 317 318 319 319 316 315 316 314 314 313 314 317 322 315 317 318 312 312 312 314 315 315 317 317 317 317 317 318 322 325 326 328 329 330 331 331 332 331 329 327 325 325
314 311 314 317 314 311 311 314 314 311 312 320 319 316 322 319 316 316 316 314 315 315 315 315 315 316 316 317 317 317 319 321 324 326 327 328 329 330 330 331 331 330 326 325
312 312 309 311 314 312 313 317 319 319 317 322 308 314 319 317 314 315 316 315 316 316 316 316 314 315 315 316 316 317 317 319 321 324 325 327 328 329 330 330 330 328 327 326
316 314 310 310 314 315 315 318 319 322 321 320 305 314 317 312 315 312 310 312 312 313 314 315 316 315 314 315 315 313 314 316 320 322 324 326 327 328 329 328 329 329 328 326
317 312 307 310 311 313 314 317 311 311 305 311 313 312 311 312 309 309 309 308 310 312 312 313 314 315 314 314 313 313 312 311 314 320 323 324 325 327 327 327 329 330 332 329
313 310 307 307 311 311 314 314 315 315 318 316 314 311 314 313 312 311 309 309 310 311 312 312 312 312 312 313 313 313 312 311 312 317 319 320 322 324 326 327 328 330 331 331
309 310 307 308 312 313 313 315 314 316 313 318 317 317 311 311 312 312 311 309 310 310 310 311 310 311 312 312 311 311 311 311 311 315 317 319 322 324 325 327 327 328 329 330
308 308 310 311 306 308 312 314 314 317 316 313 311 316 309 309 309 308 309 309 310 310 310 310 310 310 310 311 311 311 310 310 311 314 316 318 318 317 316 314 314 324 326 328
308 310 312 309 308 306 311 310 314 312 310 316 318 318 312 306 307 307 307 309 310 310 310 310 310 310 310 310 310 309 309 310 311 311 311 311 311 311 311 311 311 311 318 324
308 308 312 312 311 310 309 311 312 314 314 315 314 315 313 312 312 309 307 308 308 310 311 310 311 311 311 310 310 310 309 309 310 310 311 311 310 310 310 310 310 311 314 324
310 312 309 308 308 309 310 309 310 312 313 313 313 312 312 312 312 312 310 309 309 311 311 310 310 310 311 311 310 310 310 310 310 310 310 310 310 311 311 311 310 316 321 321
306 312 309 307 306 309 309 310 310 310 311 311 311 312 312 311 311 311 310 309 309 310 310 310 310 310 310 310 311 310 310 310 310 310 310 310 312 312 313 312 316 320 321 320
308 310 310 312 307 309 311 309 310 309 310 311 311 311 311 311 310 309 309 309 309 310 310 310 309 309 309 309 310 310 311 310 310 309 310 311 312 312 314 317 318 321 320 320
309 309 312 308 308 312 311 310 309 309 310 310 310 311 310 310 310 309 309 309 309 310 309 308 308 308 308 309 309 309 310 310 310 310 310 310 312 313 316 317 319 319 318 318
308 309 310 312 312 311 310 306 307 308 309 309 309 309 309 307 307 309 309 310 310 309 309 308 308 308 308 309 309 308 309 309 310 310 310 310 311 312 315 316 318 318 317 316
306 309 312 305 312 312 310 307 305 307 310 310 308 309 308 305 308 310 309 308 308 308 308 308 308 308 309 309 309 308 308 308 309 309 310 309 310 312 313 315 316 317 316 314
308 309 311 310 313 314 307 304 307 312 312 308 308 309 307 307 309 308 308 308 308 308 308 309 309 309 309 308 308 308 308 308 308 308 308 308 309 311 311 313 314 314 313 310
310 311 311 311 312 312 303 304 310 310 308 307 306 305 305 305 305 306 307 307 307 308 309 308 308 308 309 308 307 307 307 307 307 307 307 307 307 308 311 312 312 312 310 305
310 310 311 311 311 304 302 306 305 306 305 305 306 306 307 305 305 305 306 305 305 305 304 304 304 306 307 308 307 307 306 306 306 306 306 306 306 306 308 310 310 308 304 299
304 303 309 308 305 304 302 302 304 304 304 305 306 306 306 306 305 304 303 302 302 302 302 302 302 303 305 307 307 307 307 306 306 305 305 304 304 304 304 305 306 305 302 298
306 304 304 305 301 300 300 302 301 301 302 301 301 302 303 302 301 301 301 301 301 301 301 301 301 301 302 304 305 306 306 306 305 305 304 304 303 302 302 302 302 302 300 298
302 305 308 310 304 304 301 300 300 300 300 300 301 300 300 300 300 299 299 299 299 299 299 300 300 300 301 301 302 304 305 305 304 303 303 302 302 301 301 300 300 298 297 296

GFSCGP_850_thetae_117.txt.gz
Theta_e
317 324 327 329 329 330 330 331 332 329 321 323 325 325 325 324 318 318 318 320 323 325 327 329 331 333 333 329 325 319 318 319 319 319 319 320 321 321 322 323 324 327 327 326
318 324 326 327 329 329 330 331 332 328 318 322 327 328 325 325 325 322 319 318 319 323 324 328 330 332 333 333 332 329 321 319 319 320 320 321 322 323 325 325 326 328 327 326
325 326 323 328 329 329 329 331 331 330 324 318 321 325 324 324 323 323 321 318 317 319 323 325 329 331 333 333 333 331 330 327 323 322 323 325 326 327 328 327 328 329 327 326
321 318 324 325 327 328 326 318 324 317 320 329 321 331 330 328 327 324 322 321 319 316 319 323 326 328 327 326 330 330 331 331 330 329 329 330 329 329 329 329 329 328 327 325
318 319 325 324 323 325 320 315 316 315 316 316 320 321 325 324 324 325 324 320 321 317 316 319 323 324 320 324 322 326 328 329 331 331 329 330 330 330 330 329 329 328 326 326
316 318 323 323 319 316 315 315 313 313 313 320 322 321 325 325 322 321 322 322 320 318 316 316 317 321 322 321 319 319 321 324 329 331 329 329 329 330 331 331 331 331 329 328
315 316 314 318 315 312 314 320 323 323 321 326 313 324 323 323 322 320 320 320 320 319 318 316 316 316 316 318 317 317 318 318 320 324 327 327 328 329 329 329 331 331 331 331
319 317 314 317 319 316 316 322 325 328 326 324 309 319 320 316 312 315 316 315 316 317 316 316 316 317 316 315 315 316 317 318 319 320 320 323 324 326 328 328 330 330 329 330
320 317 313 314 315 316 316 320 318 314 309 315 318 316 316 315 315 312 314 313 312 312 312 313 314 314 314 315 315 315 315 316 318 319 319 321 323 324 325 327 328 329 329 328
319 313 313 311 314 315 318 316 318 318 325 322 321 317 317 317 316 315 313 314 313 312 312 312 311 312 312 313 313 313 313 314 314 314 315 316 319 322 323 325 327 328 331 328
318 313 311 311 314 316 314 317 317 319 319 323 323 321 315 313 312 314 314 312 311 311 310 310 310 311 311 312 311 311 311 313 313 312 312 311 314 320 323 324 325 326 329 327
312 312 312 313 308 312 315 317 317 320 320 319 317 319 312 312 311 311 311 311 311 310 310 310 310 310 310 310 310 311 310 310 310 311 311 310 313 318 321 321 322 324 325 327
310 312 315 312 312 309 314 314 316 316 314 321 320 320 315 313 312 311 310 311 311 310 310 310 310 311 311 311 310 310 310 310 309 309 309 311 315 318 319 320 322 323 324 328
310 311 313 315 313 312 311 313 314 316 317 318 318 318 316 313 313 312 311 310 310 310 311 311 311 311 311 311 310 310 310 309 309 309 310 312 314 315 316 315 313 312 311 312
311 313 312 312 311 311 311 312 313 316 316 316 316 316 316 316 316 314 313 312 312 310 310 311 310 310 310 309 310 310 310 310 310 309 310 310 310 310 311 311 310 310 310 311
311 315 311 311 309 311 312 312 313 313 315 315 315 314 314 313 313 312 312 312 311 311 311 310 310 310 309 309 309 310 310 310 310 310 310 310 310 310 310 310 310 311 311 312
311 314 315 317 310 310 312 311 312 313 313 314 315 314 313 312 312 311 311 311 311 310 310 310 310 309 309 309 308 309 309 310 310 310 310 310 310 310 310 312 312 312 312 311
310 312 314 312 313 312 312 311 311 311 312 312 312 312 313 312 312 311 311 311 310 310 310 309 308 309 309 309 308 308 309 309 309 310 310 310 309 310 311 312 313 314 312 314
311 311 314 315 313 314 312 309 311 311 311 311 311 311 311 311 309 309 309 310 310 310 309 308 308 308 308 310 310 309 308 309 309 309 309 310 309 309 311 312 313 316 316 317
308 311 314 313 315 314 311 310 309 310 311 311 311 311 311 310 310 311 310 310 310 309 308 308 308 308 308 309 309 309 309 308 308 307 308 308 309 309 309 311 312 315 316 316
309 314 313 314 315 317 309 308 308 311 312 311 311 311 311 310 310 309 308 308 307 307 307 308 309 309 309 309 309 309 309 308 307 307 307 307 307 307 308 310 311 313 314 315
311 312 313 314 314 313 307 307 310 311 308 309 307 308 307 309 308 306 306 306 307 307 308 308 308 307 307 307 308 307 307 307 307 307 307 307 306 306 306 307 309 310 312 312
311 310 314 312 313 307 306 309 308 309 309 307 307 307 307 306 305 305 305 305 305 306 305 306 305 304 305 305 306 307 307 307 307 307 306 306 306 305 305 305 306 309 310 310
307 308 312 309 310 307 307 307 308 306 305 307 307 307 305 304 304 304 304 304 303 303 303 302 302 303 303 303 303 305 306 307 307 306 306 305 305 304 303 303 304 304 307 308
309 306 308 309 303 303 303 304 306 305 304 305 305 305 305 305 303 302 302 301 301 301 301 301 301 301 301 301 301 302 303 304 306 306 305 305 304 303 303 301 301 301 302 304
305 308 309 310 306 308 307 305 303 303 303 303 304 303 302 302 301 300 300 300 300 299 299 299 299 299 299 299 299 300 300 301 302 303 304 304 303 302 301 300 300 300 299 299